<?xml version="1.0" encoding="UTF-8" standalone="no" ?>
<gpx xmlns="http://www.topografix.com/GPX/1/1" xmlns:xsi="http://www.w3.org/2001/XMLSchema-instance" xsi:schemaLocation="http://www.topografix.com/GPX/1/1 http://www.topografix.com/GPX/1/1/gpx.xsd" version="1.1" creator="VisuGPX - https://www.visugpx.com">
  <metadata>
    <name>Randonnée Breil Sospel</name>
    <desc><![CDATA[Etape de breil sur Royat à Sospel sur le GR52]]></desc>
  </metadata>
  <wpt lat="43.9424" lon="7.51408">
    <ele>676</ele>
  </wpt>
  <trk>
    <name><![CDATA[Randonnée Breil Sospel_1]]></name>
    <trkseg>
      <trkpt lat="43.9424" lon="7.51408">
        <ele>676</ele>
        <time>2013-08-24T05:36:20Z</time>
      </trkpt>
      <trkpt lat="43.94235" lon="7.51397">
        <ele>676</ele>
        <time>2013-08-24T05:36:24Z</time>
      </trkpt>
      <trkpt lat="43.94235" lon="7.5141">
        <ele>676</ele>
        <time>2013-08-24T05:36:24Z</time>
      </trkpt>
      <trkpt lat="43.94227" lon="7.51416">
        <ele>676</ele>
        <time>2013-08-24T05:36:32Z</time>
      </trkpt>
      <trkpt lat="43.94218" lon="7.51419">
        <ele>676</ele>
        <time>2013-08-24T05:36:40Z</time>
      </trkpt>
      <trkpt lat="43.94202" lon="7.51408">
        <ele>676</ele>
        <time>2013-08-24T05:36:48Z</time>
      </trkpt>
      <trkpt lat="43.94222" lon="7.51423">
        <ele>676</ele>
        <time>2013-08-24T05:36:53Z</time>
      </trkpt>
      <trkpt lat="43.94231" lon="7.51454">
        <ele>676</ele>
        <time>2013-08-24T05:36:55Z</time>
      </trkpt>
      <trkpt lat="43.94197" lon="7.51376">
        <ele>676</ele>
        <time>2013-08-24T05:37:00Z</time>
      </trkpt>
      <trkpt lat="43.93993" lon="7.51619">
        <ele>356</ele>
        <time>2013-08-24T05:37:01Z</time>
      </trkpt>
      <trkpt lat="43.93977" lon="7.5162">
        <ele>334</ele>
        <time>2013-08-24T05:37:03Z</time>
      </trkpt>
      <trkpt lat="43.93956" lon="7.51621">
        <ele>317</ele>
        <time>2013-08-24T05:37:05Z</time>
      </trkpt>
      <trkpt lat="43.93968" lon="7.51612">
        <ele>338</ele>
        <time>2013-08-24T05:37:09Z</time>
      </trkpt>
      <trkpt lat="43.93977" lon="7.51606">
        <ele>345</ele>
        <time>2013-08-24T05:37:12Z</time>
      </trkpt>
      <trkpt lat="43.93989" lon="7.51596">
        <ele>360</ele>
        <time>2013-08-24T05:37:18Z</time>
      </trkpt>
      <trkpt lat="43.93989" lon="7.51584">
        <ele>360</ele>
        <time>2013-08-24T05:37:26Z</time>
      </trkpt>
      <trkpt lat="43.93993" lon="7.51572">
        <ele>371</ele>
        <time>2013-08-24T05:37:33Z</time>
      </trkpt>
      <trkpt lat="43.93996" lon="7.51559">
        <ele>371</ele>
        <time>2013-08-24T05:37:40Z</time>
      </trkpt>
      <trkpt lat="43.93989" lon="7.51551">
        <ele>377</ele>
        <time>2013-08-24T05:37:46Z</time>
      </trkpt>
      <trkpt lat="43.93981" lon="7.51542">
        <ele>377</ele>
        <time>2013-08-24T05:37:53Z</time>
      </trkpt>
      <trkpt lat="43.93981" lon="7.5153">
        <ele>377</ele>
        <time>2013-08-24T05:38:00Z</time>
      </trkpt>
      <trkpt lat="43.93981" lon="7.51516">
        <ele>385</ele>
        <time>2013-08-24T05:38:09Z</time>
      </trkpt>
      <trkpt lat="43.93976" lon="7.51505">
        <ele>385</ele>
        <time>2013-08-24T05:38:16Z</time>
      </trkpt>
      <trkpt lat="43.93968" lon="7.51499">
        <ele>378</ele>
        <time>2013-08-24T05:38:20Z</time>
      </trkpt>
      <trkpt lat="43.93959" lon="7.5149">
        <ele>378</ele>
        <time>2013-08-24T05:38:28Z</time>
      </trkpt>
      <trkpt lat="43.93954" lon="7.5148">
        <ele>378</ele>
        <time>2013-08-24T05:38:37Z</time>
      </trkpt>
      <trkpt lat="43.93951" lon="7.51469">
        <ele>385</ele>
        <time>2013-08-24T05:38:46Z</time>
      </trkpt>
      <trkpt lat="43.9395" lon="7.51455">
        <ele>385</ele>
        <time>2013-08-24T05:38:54Z</time>
      </trkpt>
      <trkpt lat="43.93948" lon="7.51443">
        <ele>394</ele>
        <time>2013-08-24T05:39:02Z</time>
      </trkpt>
      <trkpt lat="43.93952" lon="7.5143">
        <ele>394</ele>
        <time>2013-08-24T05:39:08Z</time>
      </trkpt>
      <trkpt lat="43.93957" lon="7.51418">
        <ele>408</ele>
        <time>2013-08-24T05:39:16Z</time>
      </trkpt>
      <trkpt lat="43.93961" lon="7.51407">
        <ele>413</ele>
        <time>2013-08-24T05:39:22Z</time>
      </trkpt>
      <trkpt lat="43.93964" lon="7.51395">
        <ele>413</ele>
        <time>2013-08-24T05:39:28Z</time>
      </trkpt>
      <trkpt lat="43.9397" lon="7.51386">
        <ele>413</ele>
        <time>2013-08-24T05:39:32Z</time>
      </trkpt>
      <trkpt lat="43.9397" lon="7.51373">
        <ele>420</ele>
        <time>2013-08-24T05:39:39Z</time>
      </trkpt>
      <trkpt lat="43.9397" lon="7.51361">
        <ele>420</ele>
        <time>2013-08-24T05:39:46Z</time>
      </trkpt>
      <trkpt lat="43.93966" lon="7.51349">
        <ele>428</ele>
        <time>2013-08-24T05:39:56Z</time>
      </trkpt>
      <trkpt lat="43.9397" lon="7.51337">
        <ele>434</ele>
        <time>2013-08-24T05:40:09Z</time>
      </trkpt>
      <trkpt lat="43.93978" lon="7.5133">
        <ele>440</ele>
        <time>2013-08-24T05:40:15Z</time>
      </trkpt>
      <trkpt lat="43.9399" lon="7.51326">
        <ele>449</ele>
        <time>2013-08-24T05:40:18Z</time>
      </trkpt>
      <trkpt lat="43.93999" lon="7.51324">
        <ele>463</ele>
        <time>2013-08-24T05:40:24Z</time>
      </trkpt>
      <trkpt lat="43.94007" lon="7.5132">
        <ele>472</ele>
        <time>2013-08-24T05:40:32Z</time>
      </trkpt>
      <trkpt lat="43.9402" lon="7.5132">
        <ele>472</ele>
        <time>2013-08-24T05:40:40Z</time>
      </trkpt>
      <trkpt lat="43.94029" lon="7.51317">
        <ele>472</ele>
        <time>2013-08-24T05:40:46Z</time>
      </trkpt>
      <trkpt lat="43.9387" lon="7.51355">
        <ele>342</ele>
        <time>2013-08-24T05:40:49Z</time>
      </trkpt>
      <trkpt lat="43.93855" lon="7.51357">
        <ele>325</ele>
        <time>2013-08-24T05:40:50Z</time>
      </trkpt>
      <trkpt lat="43.93841" lon="7.51359">
        <ele>310</ele>
        <time>2013-08-24T05:40:51Z</time>
      </trkpt>
      <trkpt lat="43.93829" lon="7.5136">
        <ele>294</ele>
        <time>2013-08-24T05:40:53Z</time>
      </trkpt>
      <trkpt lat="43.93826" lon="7.51348">
        <ele>286</ele>
        <time>2013-08-24T05:41:09Z</time>
      </trkpt>
      <trkpt lat="43.93833" lon="7.51339">
        <ele>292</ele>
        <time>2013-08-24T05:41:17Z</time>
      </trkpt>
      <trkpt lat="43.93841" lon="7.51331">
        <ele>292</ele>
        <time>2013-08-24T05:41:27Z</time>
      </trkpt>
      <trkpt lat="43.93833" lon="7.51322">
        <ele>292</ele>
        <time>2013-08-24T05:41:35Z</time>
      </trkpt>
      <trkpt lat="43.93842" lon="7.51328">
        <ele>325</ele>
        <time>2013-08-24T05:42:33Z</time>
      </trkpt>
      <trkpt lat="43.93851" lon="7.51323">
        <ele>320</ele>
        <time>2013-08-24T05:43:18Z</time>
      </trkpt>
      <trkpt lat="43.9386" lon="7.51318">
        <ele>320</ele>
        <time>2013-08-24T05:43:29Z</time>
      </trkpt>
      <trkpt lat="43.9387" lon="7.51318">
        <ele>329</ele>
        <time>2013-08-24T05:43:41Z</time>
      </trkpt>
      <trkpt lat="43.93879" lon="7.5132">
        <ele>344</ele>
        <time>2013-08-24T05:43:48Z</time>
      </trkpt>
      <trkpt lat="43.93888" lon="7.51317">
        <ele>362</ele>
        <time>2013-08-24T05:44:00Z</time>
      </trkpt>
      <trkpt lat="43.93893" lon="7.51307">
        <ele>353</ele>
        <time>2013-08-24T05:44:08Z</time>
      </trkpt>
      <trkpt lat="43.93894" lon="7.51293">
        <ele>345</ele>
        <time>2013-08-24T05:44:13Z</time>
      </trkpt>
      <trkpt lat="43.93885" lon="7.5128">
        <ele>337</ele>
        <time>2013-08-24T05:44:17Z</time>
      </trkpt>
      <trkpt lat="43.93876" lon="7.51269">
        <ele>328</ele>
        <time>2013-08-24T05:44:18Z</time>
      </trkpt>
      <trkpt lat="43.93869" lon="7.51258">
        <ele>311</ele>
        <time>2013-08-24T05:44:21Z</time>
      </trkpt>
      <trkpt lat="43.93874" lon="7.51249">
        <ele>303</ele>
        <time>2013-08-24T05:44:25Z</time>
      </trkpt>
      <trkpt lat="43.93879" lon="7.51239">
        <ele>303</ele>
        <time>2013-08-24T05:44:31Z</time>
      </trkpt>
      <trkpt lat="43.93879" lon="7.51226">
        <ele>314</ele>
        <time>2013-08-24T05:44:41Z</time>
      </trkpt>
      <trkpt lat="43.93871" lon="7.51219">
        <ele>319</ele>
        <time>2013-08-24T05:44:51Z</time>
      </trkpt>
      <trkpt lat="43.93863" lon="7.51212">
        <ele>319</ele>
        <time>2013-08-24T05:45:02Z</time>
      </trkpt>
      <trkpt lat="43.93854" lon="7.51211">
        <ele>319</ele>
        <time>2013-08-24T05:45:07Z</time>
      </trkpt>
      <trkpt lat="43.93848" lon="7.512">
        <ele>319</ele>
        <time>2013-08-24T05:45:19Z</time>
      </trkpt>
      <trkpt lat="43.9384" lon="7.51196">
        <ele>319</ele>
        <time>2013-08-24T05:45:25Z</time>
      </trkpt>
      <trkpt lat="43.93831" lon="7.51189">
        <ele>319</ele>
        <time>2013-08-24T05:45:32Z</time>
      </trkpt>
      <trkpt lat="43.93822" lon="7.51186">
        <ele>319</ele>
        <time>2013-08-24T05:45:39Z</time>
      </trkpt>
      <trkpt lat="43.93814" lon="7.5118">
        <ele>326</ele>
        <time>2013-08-24T05:45:51Z</time>
      </trkpt>
      <trkpt lat="43.93805" lon="7.51174">
        <ele>326</ele>
        <time>2013-08-24T05:45:57Z</time>
      </trkpt>
      <trkpt lat="43.93794" lon="7.5117">
        <ele>320</ele>
        <time>2013-08-24T05:46:02Z</time>
      </trkpt>
      <trkpt lat="43.93785" lon="7.51171">
        <ele>333</ele>
        <time>2013-08-24T05:46:29Z</time>
      </trkpt>
      <trkpt lat="43.93776" lon="7.51174">
        <ele>323</ele>
        <time>2013-08-24T05:46:38Z</time>
      </trkpt>
      <trkpt lat="43.93765" lon="7.51173">
        <ele>317</ele>
        <time>2013-08-24T05:46:43Z</time>
      </trkpt>
      <trkpt lat="43.93759" lon="7.51164">
        <ele>328</ele>
        <time>2013-08-24T05:47:02Z</time>
      </trkpt>
      <trkpt lat="43.93751" lon="7.51156">
        <ele>328</ele>
        <time>2013-08-24T05:47:11Z</time>
      </trkpt>
      <trkpt lat="43.93744" lon="7.51148">
        <ele>323</ele>
        <time>2013-08-24T05:47:21Z</time>
      </trkpt>
      <trkpt lat="43.93735" lon="7.51142">
        <ele>323</ele>
        <time>2013-08-24T05:47:36Z</time>
      </trkpt>
      <trkpt lat="43.93726" lon="7.51136">
        <ele>323</ele>
        <time>2013-08-24T05:47:47Z</time>
      </trkpt>
      <trkpt lat="43.93718" lon="7.51133">
        <ele>323</ele>
        <time>2013-08-24T05:47:57Z</time>
      </trkpt>
      <trkpt lat="43.9371" lon="7.51125">
        <ele>323</ele>
        <time>2013-08-24T05:48:09Z</time>
      </trkpt>
      <trkpt lat="43.93702" lon="7.51119">
        <ele>332</ele>
        <time>2013-08-24T05:48:23Z</time>
      </trkpt>
      <trkpt lat="43.93694" lon="7.51112">
        <ele>332</ele>
        <time>2013-08-24T05:48:34Z</time>
      </trkpt>
      <trkpt lat="43.93685" lon="7.51109">
        <ele>332</ele>
        <time>2013-08-24T05:48:44Z</time>
      </trkpt>
      <trkpt lat="43.93677" lon="7.51104">
        <ele>332</ele>
        <time>2013-08-24T05:48:55Z</time>
      </trkpt>
      <trkpt lat="43.93686" lon="7.511">
        <ele>351</ele>
        <time>2013-08-24T05:49:15Z</time>
      </trkpt>
      <trkpt lat="43.93694" lon="7.51097">
        <ele>359</ele>
        <time>2013-08-24T05:49:24Z</time>
      </trkpt>
      <trkpt lat="43.93702" lon="7.5109">
        <ele>370</ele>
        <time>2013-08-24T05:49:39Z</time>
      </trkpt>
      <trkpt lat="43.93706" lon="7.51078">
        <ele>370</ele>
        <time>2013-08-24T05:49:48Z</time>
      </trkpt>
      <trkpt lat="43.93707" lon="7.51065">
        <ele>357</ele>
        <time>2013-08-24T05:49:59Z</time>
      </trkpt>
      <trkpt lat="43.93713" lon="7.51055">
        <ele>357</ele>
        <time>2013-08-24T05:50:10Z</time>
      </trkpt>
      <trkpt lat="43.9372" lon="7.51047">
        <ele>357</ele>
        <time>2013-08-24T05:50:22Z</time>
      </trkpt>
      <trkpt lat="43.93729" lon="7.51044">
        <ele>368</ele>
        <time>2013-08-24T05:50:34Z</time>
      </trkpt>
      <trkpt lat="43.93738" lon="7.51047">
        <ele>361</ele>
        <time>2013-08-24T05:50:48Z</time>
      </trkpt>
      <trkpt lat="43.93746" lon="7.51055">
        <ele>361</ele>
        <time>2013-08-24T05:50:59Z</time>
      </trkpt>
      <trkpt lat="43.93752" lon="7.51064">
        <ele>377</ele>
        <time>2013-08-24T05:51:06Z</time>
      </trkpt>
      <trkpt lat="43.93761" lon="7.51059">
        <ele>377</ele>
        <time>2013-08-24T05:51:16Z</time>
      </trkpt>
      <trkpt lat="43.9377" lon="7.51055">
        <ele>368</ele>
        <time>2013-08-24T05:51:26Z</time>
      </trkpt>
      <trkpt lat="43.93774" lon="7.51043">
        <ele>351</ele>
        <time>2013-08-24T05:51:34Z</time>
      </trkpt>
      <trkpt lat="43.9378" lon="7.51033">
        <ele>351</ele>
        <time>2013-08-24T05:51:49Z</time>
      </trkpt>
      <trkpt lat="43.93781" lon="7.5102">
        <ele>351</ele>
        <time>2013-08-24T05:51:59Z</time>
      </trkpt>
      <trkpt lat="43.93786" lon="7.5101">
        <ele>351</ele>
        <time>2013-08-24T05:52:10Z</time>
      </trkpt>
      <trkpt lat="43.93789" lon="7.50998">
        <ele>359</ele>
        <time>2013-08-24T05:52:21Z</time>
      </trkpt>
      <trkpt lat="43.93794" lon="7.50987">
        <ele>359</ele>
        <time>2013-08-24T05:52:31Z</time>
      </trkpt>
      <trkpt lat="43.93796" lon="7.50975">
        <ele>370</ele>
        <time>2013-08-24T05:52:44Z</time>
      </trkpt>
      <trkpt lat="43.938" lon="7.50963">
        <ele>370</ele>
        <time>2013-08-24T05:52:54Z</time>
      </trkpt>
      <trkpt lat="43.93803" lon="7.50951">
        <ele>382</ele>
        <time>2013-08-24T05:53:04Z</time>
      </trkpt>
      <trkpt lat="43.93804" lon="7.50939">
        <ele>382</ele>
        <time>2013-08-24T05:53:13Z</time>
      </trkpt>
      <trkpt lat="43.93806" lon="7.50926">
        <ele>382</ele>
        <time>2013-08-24T05:53:23Z</time>
      </trkpt>
      <trkpt lat="43.93803" lon="7.50913">
        <ele>382</ele>
        <time>2013-08-24T05:53:32Z</time>
      </trkpt>
      <trkpt lat="43.93799" lon="7.50901">
        <ele>372</ele>
        <time>2013-08-24T05:53:40Z</time>
      </trkpt>
      <trkpt lat="43.93796" lon="7.50889">
        <ele>372</ele>
        <time>2013-08-24T05:53:48Z</time>
      </trkpt>
      <trkpt lat="43.93791" lon="7.50878">
        <ele>372</ele>
        <time>2013-08-24T05:53:58Z</time>
      </trkpt>
      <trkpt lat="43.93783" lon="7.50873">
        <ele>379</ele>
        <time>2013-08-24T05:54:09Z</time>
      </trkpt>
      <trkpt lat="43.93774" lon="7.50867">
        <ele>379</ele>
        <time>2013-08-24T05:54:17Z</time>
      </trkpt>
      <trkpt lat="43.9377" lon="7.50855">
        <ele>369</ele>
        <time>2013-08-24T05:54:26Z</time>
      </trkpt>
      <trkpt lat="43.93778" lon="7.50849">
        <ele>377</ele>
        <time>2013-08-24T05:54:41Z</time>
      </trkpt>
      <trkpt lat="43.93787" lon="7.50843">
        <ele>384</ele>
        <time>2013-08-24T05:54:50Z</time>
      </trkpt>
      <trkpt lat="43.93791" lon="7.50832">
        <ele>377</ele>
        <time>2013-08-24T05:54:58Z</time>
      </trkpt>
      <trkpt lat="43.93794" lon="7.5082">
        <ele>377</ele>
        <time>2013-08-24T05:55:05Z</time>
      </trkpt>
      <trkpt lat="43.93801" lon="7.50809">
        <ele>377</ele>
        <time>2013-08-24T05:55:15Z</time>
      </trkpt>
      <trkpt lat="43.93807" lon="7.50798">
        <ele>377</ele>
        <time>2013-08-24T05:55:25Z</time>
      </trkpt>
      <trkpt lat="43.93811" lon="7.50787">
        <ele>377</ele>
        <time>2013-08-24T05:55:34Z</time>
      </trkpt>
      <trkpt lat="43.93816" lon="7.50776">
        <ele>377</ele>
        <time>2013-08-24T05:55:44Z</time>
      </trkpt>
      <trkpt lat="43.9382" lon="7.50765">
        <ele>377</ele>
        <time>2013-08-24T05:55:54Z</time>
      </trkpt>
      <trkpt lat="43.93824" lon="7.50753">
        <ele>377</ele>
        <time>2013-08-24T05:56:05Z</time>
      </trkpt>
      <trkpt lat="43.93827" lon="7.50741">
        <ele>377</ele>
        <time>2013-08-24T05:56:16Z</time>
      </trkpt>
      <trkpt lat="43.9383" lon="7.50728">
        <ele>377</ele>
        <time>2013-08-24T05:56:26Z</time>
      </trkpt>
      <trkpt lat="43.93832" lon="7.50716">
        <ele>377</ele>
        <time>2013-08-24T05:56:35Z</time>
      </trkpt>
      <trkpt lat="43.93835" lon="7.50704">
        <ele>377</ele>
        <time>2013-08-24T05:56:43Z</time>
      </trkpt>
      <trkpt lat="43.93837" lon="7.50692">
        <ele>377</ele>
        <time>2013-08-24T05:56:51Z</time>
      </trkpt>
      <trkpt lat="43.93841" lon="7.50681">
        <ele>377</ele>
        <time>2013-08-24T05:57:00Z</time>
      </trkpt>
      <trkpt lat="43.93844" lon="7.50669">
        <ele>377</ele>
        <time>2013-08-24T05:57:09Z</time>
      </trkpt>
      <trkpt lat="43.93847" lon="7.50657">
        <ele>377</ele>
        <time>2013-08-24T05:57:19Z</time>
      </trkpt>
      <trkpt lat="43.9385" lon="7.50646">
        <ele>391</ele>
        <time>2013-08-24T05:57:30Z</time>
      </trkpt>
      <trkpt lat="43.93848" lon="7.50634">
        <ele>391</ele>
        <time>2013-08-24T05:57:41Z</time>
      </trkpt>
      <trkpt lat="43.93843" lon="7.50623">
        <ele>396</ele>
        <time>2013-08-24T05:57:52Z</time>
      </trkpt>
      <trkpt lat="43.93836" lon="7.50613">
        <ele>396</ele>
        <time>2013-08-24T05:58:01Z</time>
      </trkpt>
      <trkpt lat="43.9383" lon="7.50604">
        <ele>402</ele>
        <time>2013-08-24T05:58:15Z</time>
      </trkpt>
      <trkpt lat="43.93837" lon="7.50596">
        <ele>409</ele>
        <time>2013-08-24T05:58:28Z</time>
      </trkpt>
      <trkpt lat="43.93844" lon="7.50589">
        <ele>409</ele>
        <time>2013-08-24T05:58:37Z</time>
      </trkpt>
      <trkpt lat="43.93852" lon="7.50586">
        <ele>422</ele>
        <time>2013-08-24T05:58:48Z</time>
      </trkpt>
      <trkpt lat="43.93855" lon="7.50572">
        <ele>408</ele>
        <time>2013-08-24T05:58:55Z</time>
      </trkpt>
      <trkpt lat="43.93856" lon="7.5056">
        <ele>399</ele>
        <time>2013-08-24T05:59:03Z</time>
      </trkpt>
      <trkpt lat="43.93857" lon="7.50547">
        <ele>399</ele>
        <time>2013-08-24T05:59:12Z</time>
      </trkpt>
      <trkpt lat="43.93859" lon="7.50533">
        <ele>399</ele>
        <time>2013-08-24T05:59:21Z</time>
      </trkpt>
      <trkpt lat="43.9386" lon="7.5052">
        <ele>399</ele>
        <time>2013-08-24T05:59:33Z</time>
      </trkpt>
      <trkpt lat="43.93867" lon="7.50511">
        <ele>405</ele>
        <time>2013-08-24T05:59:42Z</time>
      </trkpt>
      <trkpt lat="43.93862" lon="7.50498">
        <ele>398</ele>
        <time>2013-08-24T05:59:52Z</time>
      </trkpt>
      <trkpt lat="43.93861" lon="7.50486">
        <ele>398</ele>
        <time>2013-08-24T06:00:02Z</time>
      </trkpt>
      <trkpt lat="43.93863" lon="7.50473">
        <ele>398</ele>
        <time>2013-08-24T06:00:12Z</time>
      </trkpt>
      <trkpt lat="43.93862" lon="7.50461">
        <ele>406</ele>
        <time>2013-08-24T06:00:25Z</time>
      </trkpt>
      <trkpt lat="43.93866" lon="7.50448">
        <ele>412</ele>
        <time>2013-08-24T06:00:36Z</time>
      </trkpt>
      <trkpt lat="43.93857" lon="7.50439">
        <ele>412</ele>
        <time>2013-08-24T06:00:44Z</time>
      </trkpt>
      <trkpt lat="43.93849" lon="7.50434">
        <ele>412</ele>
        <time>2013-08-24T06:00:48Z</time>
      </trkpt>
      <trkpt lat="43.93848" lon="7.5042">
        <ele>405</ele>
        <time>2013-08-24T06:00:56Z</time>
      </trkpt>
      <trkpt lat="43.93848" lon="7.50408">
        <ele>414</ele>
        <time>2013-08-24T06:01:07Z</time>
      </trkpt>
      <trkpt lat="43.93844" lon="7.50396">
        <ele>414</ele>
        <time>2013-08-24T06:01:15Z</time>
      </trkpt>
      <trkpt lat="43.93844" lon="7.50383">
        <ele>420</ele>
        <time>2013-08-24T06:01:27Z</time>
      </trkpt>
      <trkpt lat="43.93842" lon="7.50371">
        <ele>420</ele>
        <time>2013-08-24T06:01:36Z</time>
      </trkpt>
      <trkpt lat="43.93837" lon="7.50361">
        <ele>408</ele>
        <time>2013-08-24T06:01:47Z</time>
      </trkpt>
      <trkpt lat="43.93836" lon="7.50347">
        <ele>408</ele>
        <time>2013-08-24T06:01:56Z</time>
      </trkpt>
      <trkpt lat="43.93827" lon="7.50339">
        <ele>408</ele>
        <time>2013-08-24T06:02:01Z</time>
      </trkpt>
      <trkpt lat="43.93822" lon="7.50327">
        <ele>420</ele>
        <time>2013-08-24T06:02:24Z</time>
      </trkpt>
      <trkpt lat="43.93814" lon="7.50319">
        <ele>420</ele>
        <time>2013-08-24T06:02:30Z</time>
      </trkpt>
      <trkpt lat="43.93815" lon="7.50305">
        <ele>420</ele>
        <time>2013-08-24T06:02:40Z</time>
      </trkpt>
      <trkpt lat="43.93807" lon="7.50296">
        <ele>420</ele>
        <time>2013-08-24T06:02:54Z</time>
      </trkpt>
      <trkpt lat="43.93815" lon="7.50288">
        <ele>405</ele>
        <time>2013-08-24T06:03:31Z</time>
      </trkpt>
      <trkpt lat="43.93823" lon="7.50284">
        <ele>405</ele>
        <time>2013-08-24T06:03:42Z</time>
      </trkpt>
      <trkpt lat="43.93831" lon="7.50278">
        <ele>416</ele>
        <time>2013-08-24T06:03:52Z</time>
      </trkpt>
      <trkpt lat="43.93836" lon="7.50267">
        <ele>416</ele>
        <time>2013-08-24T06:03:58Z</time>
      </trkpt>
      <trkpt lat="43.93837" lon="7.50254">
        <ele>416</ele>
        <time>2013-08-24T06:04:07Z</time>
      </trkpt>
      <trkpt lat="43.93834" lon="7.50242">
        <ele>416</ele>
        <time>2013-08-24T06:04:17Z</time>
      </trkpt>
      <trkpt lat="43.93831" lon="7.5023">
        <ele>416</ele>
        <time>2013-08-24T06:04:27Z</time>
      </trkpt>
      <trkpt lat="43.93828" lon="7.50218">
        <ele>421</ele>
        <time>2013-08-24T06:04:36Z</time>
      </trkpt>
      <trkpt lat="43.93826" lon="7.50206">
        <ele>421</ele>
        <time>2013-08-24T06:04:46Z</time>
      </trkpt>
      <trkpt lat="43.93828" lon="7.50194">
        <ele>426</ele>
        <time>2013-08-24T06:04:58Z</time>
      </trkpt>
      <trkpt lat="43.93825" lon="7.50182">
        <ele>426</ele>
        <time>2013-08-24T06:05:08Z</time>
      </trkpt>
      <trkpt lat="43.9382" lon="7.50171">
        <ele>426</ele>
        <time>2013-08-24T06:05:20Z</time>
      </trkpt>
      <trkpt lat="43.93815" lon="7.50162">
        <ele>417</ele>
        <time>2013-08-24T06:05:28Z</time>
      </trkpt>
      <trkpt lat="43.93813" lon="7.50148">
        <ele>417</ele>
        <time>2013-08-24T06:05:40Z</time>
      </trkpt>
      <trkpt lat="43.93811" lon="7.50135">
        <ele>417</ele>
        <time>2013-08-24T06:05:51Z</time>
      </trkpt>
      <trkpt lat="43.93808" lon="7.50123">
        <ele>417</ele>
        <time>2013-08-24T06:06:02Z</time>
      </trkpt>
      <trkpt lat="43.93809" lon="7.5011">
        <ele>426</ele>
        <time>2013-08-24T06:06:14Z</time>
      </trkpt>
      <trkpt lat="43.93807" lon="7.50098">
        <ele>426</ele>
        <time>2013-08-24T06:06:26Z</time>
      </trkpt>
      <trkpt lat="43.93805" lon="7.50086">
        <ele>426</ele>
        <time>2013-08-24T06:06:39Z</time>
      </trkpt>
      <trkpt lat="43.93807" lon="7.50074">
        <ele>443</ele>
        <time>2013-08-24T06:06:54Z</time>
      </trkpt>
      <trkpt lat="43.93803" lon="7.50062">
        <ele>437</ele>
        <time>2013-08-24T06:07:02Z</time>
      </trkpt>
      <trkpt lat="43.938" lon="7.5005">
        <ele>431</ele>
        <time>2013-08-24T06:07:12Z</time>
      </trkpt>
      <trkpt lat="43.93803" lon="7.50039">
        <ele>436</ele>
        <time>2013-08-24T06:07:22Z</time>
      </trkpt>
      <trkpt lat="43.93807" lon="7.50027">
        <ele>436</ele>
        <time>2013-08-24T06:07:33Z</time>
      </trkpt>
      <trkpt lat="43.93807" lon="7.50014">
        <ele>442</ele>
        <time>2013-08-24T06:07:46Z</time>
      </trkpt>
      <trkpt lat="43.9381" lon="7.50003">
        <ele>442</ele>
        <time>2013-08-24T06:07:59Z</time>
      </trkpt>
      <trkpt lat="43.9381" lon="7.4999">
        <ele>442</ele>
        <time>2013-08-24T06:08:13Z</time>
      </trkpt>
      <trkpt lat="43.93812" lon="7.49977">
        <ele>442</ele>
        <time>2013-08-24T06:08:25Z</time>
      </trkpt>
      <trkpt lat="43.93815" lon="7.49966">
        <ele>448</ele>
        <time>2013-08-24T06:08:36Z</time>
      </trkpt>
      <trkpt lat="43.93818" lon="7.49954">
        <ele>448</ele>
        <time>2013-08-24T06:08:48Z</time>
      </trkpt>
      <trkpt lat="43.93818" lon="7.49941">
        <ele>448</ele>
        <time>2013-08-24T06:09:01Z</time>
      </trkpt>
      <trkpt lat="43.93821" lon="7.4993">
        <ele>448</ele>
        <time>2013-08-24T06:09:17Z</time>
      </trkpt>
      <trkpt lat="43.93824" lon="7.49918">
        <ele>456</ele>
        <time>2013-08-24T06:09:27Z</time>
      </trkpt>
      <trkpt lat="43.93826" lon="7.49905">
        <ele>456</ele>
        <time>2013-08-24T06:09:37Z</time>
      </trkpt>
      <trkpt lat="43.93831" lon="7.49894">
        <ele>456</ele>
        <time>2013-08-24T06:09:47Z</time>
      </trkpt>
      <trkpt lat="43.93831" lon="7.49881">
        <ele>456</ele>
        <time>2013-08-24T06:09:59Z</time>
      </trkpt>
      <trkpt lat="43.93835" lon="7.49869">
        <ele>461</ele>
        <time>2013-08-24T06:10:11Z</time>
      </trkpt>
      <trkpt lat="43.93841" lon="7.49859">
        <ele>461</ele>
        <time>2013-08-24T06:10:22Z</time>
      </trkpt>
      <trkpt lat="43.9384" lon="7.49846">
        <ele>461</ele>
        <time>2013-08-24T06:10:34Z</time>
      </trkpt>
      <trkpt lat="43.93839" lon="7.49834">
        <ele>461</ele>
        <time>2013-08-24T06:10:47Z</time>
      </trkpt>
      <trkpt lat="43.93841" lon="7.49822">
        <ele>474</ele>
        <time>2013-08-24T06:11:00Z</time>
      </trkpt>
      <trkpt lat="43.93849" lon="7.49816">
        <ele>487</ele>
        <time>2013-08-24T06:11:57Z</time>
      </trkpt>
      <trkpt lat="43.9385" lon="7.49803">
        <ele>487</ele>
        <time>2013-08-24T06:12:09Z</time>
      </trkpt>
      <trkpt lat="43.93842" lon="7.49799">
        <ele>487</ele>
        <time>2013-08-24T06:12:15Z</time>
      </trkpt>
      <trkpt lat="43.93833" lon="7.49796">
        <ele>487</ele>
        <time>2013-08-24T06:12:19Z</time>
      </trkpt>
      <trkpt lat="43.93826" lon="7.49785">
        <ele>487</ele>
        <time>2013-08-24T06:12:28Z</time>
      </trkpt>
      <trkpt lat="43.9382" lon="7.49776">
        <ele>487</ele>
        <time>2013-08-24T06:12:38Z</time>
      </trkpt>
      <trkpt lat="43.93815" lon="7.49765">
        <ele>487</ele>
        <time>2013-08-24T06:12:50Z</time>
      </trkpt>
      <trkpt lat="43.93805" lon="7.49763">
        <ele>487</ele>
        <time>2013-08-24T06:12:56Z</time>
      </trkpt>
      <trkpt lat="43.93801" lon="7.49751">
        <ele>487</ele>
        <time>2013-08-24T06:13:06Z</time>
      </trkpt>
      <trkpt lat="43.93796" lon="7.4974">
        <ele>480</ele>
        <time>2013-08-24T06:13:14Z</time>
      </trkpt>
      <trkpt lat="43.93793" lon="7.49729">
        <ele>480</ele>
        <time>2013-08-24T06:13:26Z</time>
      </trkpt>
      <trkpt lat="43.93785" lon="7.49721">
        <ele>473</ele>
        <time>2013-08-24T06:13:36Z</time>
      </trkpt>
      <trkpt lat="43.93778" lon="7.49713">
        <ele>473</ele>
        <time>2013-08-24T06:13:46Z</time>
      </trkpt>
      <trkpt lat="43.93784" lon="7.49703">
        <ele>490</ele>
        <time>2013-08-24T06:13:58Z</time>
      </trkpt>
      <trkpt lat="43.93795" lon="7.49703">
        <ele>508</ele>
        <time>2013-08-24T06:14:04Z</time>
      </trkpt>
      <trkpt lat="43.93805" lon="7.49699">
        <ele>519</ele>
        <time>2013-08-24T06:14:11Z</time>
      </trkpt>
      <trkpt lat="43.93796" lon="7.49694">
        <ele>508</ele>
        <time>2013-08-24T06:14:16Z</time>
      </trkpt>
      <trkpt lat="43.93796" lon="7.49681">
        <ele>514</ele>
        <time>2013-08-24T06:14:31Z</time>
      </trkpt>
      <trkpt lat="43.93794" lon="7.49669">
        <ele>508</ele>
        <time>2013-08-24T06:14:40Z</time>
      </trkpt>
      <trkpt lat="43.93793" lon="7.49657">
        <ele>499</ele>
        <time>2013-08-24T06:14:49Z</time>
      </trkpt>
      <trkpt lat="43.938" lon="7.49648">
        <ele>499</ele>
        <time>2013-08-24T06:14:58Z</time>
      </trkpt>
      <trkpt lat="43.938" lon="7.49634">
        <ele>493</ele>
        <time>2013-08-24T06:15:10Z</time>
      </trkpt>
      <trkpt lat="43.93809" lon="7.49629">
        <ele>501</ele>
        <time>2013-08-24T06:15:19Z</time>
      </trkpt>
      <trkpt lat="43.93814" lon="7.49618">
        <ele>501</ele>
        <time>2013-08-24T06:15:31Z</time>
      </trkpt>
      <trkpt lat="43.93818" lon="7.49607">
        <ele>501</ele>
        <time>2013-08-24T06:15:45Z</time>
      </trkpt>
      <trkpt lat="43.93822" lon="7.49594">
        <ele>495</ele>
        <time>2013-08-24T06:15:52Z</time>
      </trkpt>
      <trkpt lat="43.93826" lon="7.49581">
        <ele>495</ele>
        <time>2013-08-24T06:16:00Z</time>
      </trkpt>
      <trkpt lat="43.93831" lon="7.4957">
        <ele>506</ele>
        <time>2013-08-24T06:16:10Z</time>
      </trkpt>
      <trkpt lat="43.93831" lon="7.49558">
        <ele>506</ele>
        <time>2013-08-24T06:16:19Z</time>
      </trkpt>
      <trkpt lat="43.93833" lon="7.49546">
        <ele>506</ele>
        <time>2013-08-24T06:16:26Z</time>
      </trkpt>
      <trkpt lat="43.93833" lon="7.49534">
        <ele>506</ele>
        <time>2013-08-24T06:16:36Z</time>
      </trkpt>
      <trkpt lat="43.93826" lon="7.49526">
        <ele>506</ele>
        <time>2013-08-24T06:16:44Z</time>
      </trkpt>
      <trkpt lat="43.93825" lon="7.49514">
        <ele>513</ele>
        <time>2013-08-24T06:16:59Z</time>
      </trkpt>
      <trkpt lat="43.93827" lon="7.49501">
        <ele>513</ele>
        <time>2013-08-24T06:17:09Z</time>
      </trkpt>
      <trkpt lat="43.93823" lon="7.4949">
        <ele>513</ele>
        <time>2013-08-24T06:17:17Z</time>
      </trkpt>
      <trkpt lat="43.93816" lon="7.49481">
        <ele>505</ele>
        <time>2013-08-24T06:17:25Z</time>
      </trkpt>
      <trkpt lat="43.93812" lon="7.49469">
        <ele>505</ele>
        <time>2013-08-24T06:17:35Z</time>
      </trkpt>
      <trkpt lat="43.93807" lon="7.49457">
        <ele>505</ele>
        <time>2013-08-24T06:17:46Z</time>
      </trkpt>
      <trkpt lat="43.93803" lon="7.49447">
        <ele>505</ele>
        <time>2013-08-24T06:17:56Z</time>
      </trkpt>
      <trkpt lat="43.93794" lon="7.49441">
        <ele>505</ele>
        <time>2013-08-24T06:18:02Z</time>
      </trkpt>
      <trkpt lat="43.9379" lon="7.49429">
        <ele>505</ele>
        <time>2013-08-24T06:18:15Z</time>
      </trkpt>
      <trkpt lat="43.93783" lon="7.4942">
        <ele>511</ele>
        <time>2013-08-24T06:18:27Z</time>
      </trkpt>
      <trkpt lat="43.93778" lon="7.49407">
        <ele>511</ele>
        <time>2013-08-24T06:18:38Z</time>
      </trkpt>
      <trkpt lat="43.93775" lon="7.49395">
        <ele>511</ele>
        <time>2013-08-24T06:18:46Z</time>
      </trkpt>
      <trkpt lat="43.93767" lon="7.49388">
        <ele>511</ele>
        <time>2013-08-24T06:18:53Z</time>
      </trkpt>
      <trkpt lat="43.93759" lon="7.49382">
        <ele>511</ele>
        <time>2013-08-24T06:19:04Z</time>
      </trkpt>
      <trkpt lat="43.93752" lon="7.49372">
        <ele>511</ele>
        <time>2013-08-24T06:19:13Z</time>
      </trkpt>
      <trkpt lat="43.93746" lon="7.4936">
        <ele>511</ele>
        <time>2013-08-24T06:19:25Z</time>
      </trkpt>
      <trkpt lat="43.93737" lon="7.49356">
        <ele>520</ele>
        <time>2013-08-24T06:19:37Z</time>
      </trkpt>
      <trkpt lat="43.9373" lon="7.49347">
        <ele>527</ele>
        <time>2013-08-24T06:19:48Z</time>
      </trkpt>
      <trkpt lat="43.93721" lon="7.49341">
        <ele>537</ele>
        <time>2013-08-24T06:20:01Z</time>
      </trkpt>
      <trkpt lat="43.93713" lon="7.49347">
        <ele>555</ele>
        <time>2013-08-24T06:20:16Z</time>
      </trkpt>
      <trkpt lat="43.93722" lon="7.49348">
        <ele>564</ele>
        <time>2013-08-24T06:20:22Z</time>
      </trkpt>
      <trkpt lat="43.93722" lon="7.49335">
        <ele>564</ele>
        <time>2013-08-24T06:20:29Z</time>
      </trkpt>
      <trkpt lat="43.93718" lon="7.49324">
        <ele>556</ele>
        <time>2013-08-24T06:20:35Z</time>
      </trkpt>
      <trkpt lat="43.9371" lon="7.49314">
        <ele>563</ele>
        <time>2013-08-24T06:20:49Z</time>
      </trkpt>
      <trkpt lat="43.93702" lon="7.4931">
        <ele>563</ele>
        <time>2013-08-24T06:20:53Z</time>
      </trkpt>
      <trkpt lat="43.937" lon="7.49297">
        <ele>563</ele>
        <time>2013-08-24T06:21:04Z</time>
      </trkpt>
      <trkpt lat="43.93694" lon="7.49285">
        <ele>558</ele>
        <time>2013-08-24T06:21:15Z</time>
      </trkpt>
      <trkpt lat="43.93685" lon="7.49278">
        <ele>550</ele>
        <time>2013-08-24T06:21:22Z</time>
      </trkpt>
      <trkpt lat="43.93678" lon="7.49268">
        <ele>539</ele>
        <time>2013-08-24T06:21:26Z</time>
      </trkpt>
      <trkpt lat="43.93668" lon="7.49266">
        <ele>533</ele>
        <time>2013-08-24T06:21:31Z</time>
      </trkpt>
      <trkpt lat="43.93658" lon="7.49261">
        <ele>518</ele>
        <time>2013-08-24T06:21:40Z</time>
      </trkpt>
      <trkpt lat="43.9365" lon="7.49254">
        <ele>518</ele>
        <time>2013-08-24T06:21:47Z</time>
      </trkpt>
      <trkpt lat="43.93641" lon="7.49246">
        <ele>518</ele>
        <time>2013-08-24T06:21:51Z</time>
      </trkpt>
      <trkpt lat="43.93634" lon="7.49238">
        <ele>535</ele>
        <time>2013-08-24T06:22:20Z</time>
      </trkpt>
      <trkpt lat="43.93624" lon="7.49234">
        <ele>535</ele>
        <time>2013-08-24T06:22:26Z</time>
      </trkpt>
      <trkpt lat="43.93615" lon="7.49233">
        <ele>535</ele>
        <time>2013-08-24T06:22:32Z</time>
      </trkpt>
      <trkpt lat="43.93606" lon="7.49228">
        <ele>540</ele>
        <time>2013-08-24T06:22:41Z</time>
      </trkpt>
      <trkpt lat="43.93597" lon="7.49224">
        <ele>540</ele>
        <time>2013-08-24T06:22:53Z</time>
      </trkpt>
      <trkpt lat="43.93586" lon="7.49226">
        <ele>540</ele>
        <time>2013-08-24T06:23:00Z</time>
      </trkpt>
      <trkpt lat="43.93577" lon="7.49227">
        <ele>540</ele>
        <time>2013-08-24T06:23:08Z</time>
      </trkpt>
      <trkpt lat="43.93567" lon="7.49224">
        <ele>551</ele>
        <time>2013-08-24T06:23:14Z</time>
      </trkpt>
      <trkpt lat="43.93558" lon="7.49228">
        <ele>551</ele>
        <time>2013-08-24T06:23:30Z</time>
      </trkpt>
      <trkpt lat="43.93549" lon="7.49233">
        <ele>551</ele>
        <time>2013-08-24T06:23:42Z</time>
      </trkpt>
      <trkpt lat="43.9355" lon="7.49245">
        <ele>542</ele>
        <time>2013-08-24T06:23:55Z</time>
      </trkpt>
      <trkpt lat="43.93554" lon="7.49258">
        <ele>559</ele>
        <time>2013-08-24T06:24:34Z</time>
      </trkpt>
      <trkpt lat="43.93547" lon="7.49249">
        <ele>559</ele>
        <time>2013-08-24T06:25:05Z</time>
      </trkpt>
      <trkpt lat="43.93546" lon="7.49235">
        <ele>570</ele>
        <time>2013-08-24T06:25:24Z</time>
      </trkpt>
      <trkpt lat="43.93543" lon="7.49224">
        <ele>570</ele>
        <time>2013-08-24T06:25:43Z</time>
      </trkpt>
      <trkpt lat="43.9354" lon="7.49211">
        <ele>564</ele>
        <time>2013-08-24T06:26:17Z</time>
      </trkpt>
      <trkpt lat="43.93537" lon="7.49199">
        <ele>564</ele>
        <time>2013-08-24T06:26:47Z</time>
      </trkpt>
      <trkpt lat="43.9353" lon="7.49191">
        <ele>564</ele>
        <time>2013-08-24T06:27:00Z</time>
      </trkpt>
      <trkpt lat="43.93525" lon="7.49181">
        <ele>564</ele>
        <time>2013-08-24T06:27:59Z</time>
      </trkpt>
      <trkpt lat="43.93531" lon="7.49171">
        <ele>575</ele>
        <time>2013-08-24T06:28:32Z</time>
      </trkpt>
      <trkpt lat="43.93526" lon="7.4916">
        <ele>575</ele>
        <time>2013-08-24T06:28:45Z</time>
      </trkpt>
      <trkpt lat="43.93518" lon="7.49156">
        <ele>575</ele>
        <time>2013-08-24T06:28:53Z</time>
      </trkpt>
      <trkpt lat="43.93511" lon="7.49146">
        <ele>575</ele>
        <time>2013-08-24T06:29:13Z</time>
      </trkpt>
      <trkpt lat="43.93509" lon="7.49135">
        <ele>575</ele>
        <time>2013-08-24T06:29:33Z</time>
      </trkpt>
      <trkpt lat="43.93502" lon="7.49127">
        <ele>575</ele>
        <time>2013-08-24T06:29:47Z</time>
      </trkpt>
      <trkpt lat="43.93494" lon="7.4912">
        <ele>575</ele>
        <time>2013-08-24T06:30:00Z</time>
      </trkpt>
      <trkpt lat="43.93484" lon="7.49118">
        <ele>580</ele>
        <time>2013-08-24T06:30:22Z</time>
      </trkpt>
      <trkpt lat="43.93476" lon="7.49111">
        <ele>580</ele>
        <time>2013-08-24T06:30:35Z</time>
      </trkpt>
      <trkpt lat="43.93472" lon="7.49101">
        <ele>589</ele>
        <time>2013-08-24T06:30:56Z</time>
      </trkpt>
      <trkpt lat="43.93468" lon="7.49089">
        <ele>589</ele>
        <time>2013-08-24T06:31:10Z</time>
      </trkpt>
      <trkpt lat="43.93457" lon="7.49089">
        <ele>589</ele>
        <time>2013-08-24T06:31:23Z</time>
      </trkpt>
      <trkpt lat="43.93448" lon="7.49097">
        <ele>589</ele>
        <time>2013-08-24T06:31:27Z</time>
      </trkpt>
      <trkpt lat="43.93439" lon="7.49095">
        <ele>589</ele>
        <time>2013-08-24T06:31:32Z</time>
      </trkpt>
      <trkpt lat="43.93448" lon="7.49093">
        <ele>589</ele>
        <time>2013-08-24T06:31:41Z</time>
      </trkpt>
      <trkpt lat="43.93456" lon="7.49085">
        <ele>589</ele>
        <time>2013-08-24T06:31:56Z</time>
      </trkpt>
      <trkpt lat="43.93455" lon="7.49072">
        <ele>589</ele>
        <time>2013-08-24T06:32:12Z</time>
      </trkpt>
      <trkpt lat="43.93448" lon="7.49063">
        <ele>596</ele>
        <time>2013-08-24T06:32:53Z</time>
      </trkpt>
      <trkpt lat="43.93448" lon="7.4905">
        <ele>602</ele>
        <time>2013-08-24T06:33:19Z</time>
      </trkpt>
      <trkpt lat="43.9344" lon="7.49045">
        <ele>602</ele>
        <time>2013-08-24T06:33:28Z</time>
      </trkpt>
      <trkpt lat="43.93441" lon="7.49032">
        <ele>609</ele>
        <time>2013-08-24T06:33:54Z</time>
      </trkpt>
      <trkpt lat="43.93437" lon="7.4902">
        <ele>620</ele>
        <time>2013-08-24T06:34:16Z</time>
      </trkpt>
      <trkpt lat="43.93445" lon="7.49012">
        <ele>620</ele>
        <time>2013-08-24T06:34:24Z</time>
      </trkpt>
      <trkpt lat="43.93445" lon="7.48999">
        <ele>620</ele>
        <time>2013-08-24T06:34:45Z</time>
      </trkpt>
      <trkpt lat="43.9344" lon="7.48989">
        <ele>620</ele>
        <time>2013-08-24T06:34:59Z</time>
      </trkpt>
      <trkpt lat="43.93435" lon="7.48979">
        <ele>614</ele>
        <time>2013-08-24T06:35:07Z</time>
      </trkpt>
      <trkpt lat="43.93435" lon="7.48966">
        <ele>614</ele>
        <time>2013-08-24T06:35:19Z</time>
      </trkpt>
      <trkpt lat="43.93437" lon="7.48953">
        <ele>614</ele>
        <time>2013-08-24T06:35:36Z</time>
      </trkpt>
      <trkpt lat="43.93443" lon="7.48943">
        <ele>621</ele>
        <time>2013-08-24T06:35:47Z</time>
      </trkpt>
      <trkpt lat="43.93437" lon="7.48932">
        <ele>621</ele>
        <time>2013-08-24T06:36:00Z</time>
      </trkpt>
      <trkpt lat="43.93443" lon="7.48922">
        <ele>633</ele>
        <time>2013-08-24T06:36:21Z</time>
      </trkpt>
      <trkpt lat="43.93435" lon="7.48916">
        <ele>633</ele>
        <time>2013-08-24T06:36:27Z</time>
      </trkpt>
      <trkpt lat="43.93435" lon="7.48903">
        <ele>633</ele>
        <time>2013-08-24T06:36:41Z</time>
      </trkpt>
      <trkpt lat="43.93434" lon="7.48889">
        <ele>633</ele>
        <time>2013-08-24T06:36:57Z</time>
      </trkpt>
      <trkpt lat="43.93428" lon="7.48879">
        <ele>633</ele>
        <time>2013-08-24T06:37:11Z</time>
      </trkpt>
      <trkpt lat="43.93437" lon="7.48873">
        <ele>642</ele>
        <time>2013-08-24T06:37:18Z</time>
      </trkpt>
      <trkpt lat="43.9343" lon="7.48864">
        <ele>642</ele>
        <time>2013-08-24T06:37:27Z</time>
      </trkpt>
      <trkpt lat="43.93426" lon="7.4885">
        <ele>642</ele>
        <time>2013-08-24T06:37:41Z</time>
      </trkpt>
      <trkpt lat="43.93422" lon="7.48838">
        <ele>642</ele>
        <time>2013-08-24T06:37:52Z</time>
      </trkpt>
      <trkpt lat="43.93422" lon="7.48824">
        <ele>642</ele>
        <time>2013-08-24T06:38:03Z</time>
      </trkpt>
      <trkpt lat="43.93417" lon="7.48811">
        <ele>648</ele>
        <time>2013-08-24T06:38:23Z</time>
      </trkpt>
      <trkpt lat="43.9341" lon="7.48804">
        <ele>648</ele>
        <time>2013-08-24T06:38:28Z</time>
      </trkpt>
      <trkpt lat="43.93406" lon="7.48793">
        <ele>638</ele>
        <time>2013-08-24T06:38:35Z</time>
      </trkpt>
      <trkpt lat="43.93411" lon="7.48782">
        <ele>638</ele>
        <time>2013-08-24T06:38:44Z</time>
      </trkpt>
      <trkpt lat="43.93402" lon="7.48776">
        <ele>638</ele>
        <time>2013-08-24T06:38:55Z</time>
      </trkpt>
      <trkpt lat="43.93409" lon="7.48767">
        <ele>645</ele>
        <time>2013-08-24T06:39:07Z</time>
      </trkpt>
      <trkpt lat="43.934" lon="7.48759">
        <ele>645</ele>
        <time>2013-08-24T06:39:14Z</time>
      </trkpt>
      <trkpt lat="43.93393" lon="7.48752">
        <ele>636</ele>
        <time>2013-08-24T06:39:19Z</time>
      </trkpt>
      <trkpt lat="43.93385" lon="7.48745">
        <ele>636</ele>
        <time>2013-08-24T06:39:27Z</time>
      </trkpt>
      <trkpt lat="43.93376" lon="7.48739">
        <ele>636</ele>
        <time>2013-08-24T06:39:39Z</time>
      </trkpt>
      <trkpt lat="43.93374" lon="7.48726">
        <ele>650</ele>
        <time>2013-08-24T06:40:13Z</time>
      </trkpt>
      <trkpt lat="43.93368" lon="7.48714">
        <ele>650</ele>
        <time>2013-08-24T06:40:24Z</time>
      </trkpt>
      <trkpt lat="43.9336" lon="7.48709">
        <ele>644</ele>
        <time>2013-08-24T06:40:36Z</time>
      </trkpt>
      <trkpt lat="43.93353" lon="7.487">
        <ele>649</ele>
        <time>2013-08-24T06:41:06Z</time>
      </trkpt>
      <trkpt lat="43.9336" lon="7.48692">
        <ele>661</ele>
        <time>2013-08-24T06:41:18Z</time>
      </trkpt>
      <trkpt lat="43.93352" lon="7.48685">
        <ele>661</ele>
        <time>2013-08-24T06:41:24Z</time>
      </trkpt>
      <trkpt lat="43.93348" lon="7.48673">
        <ele>649</ele>
        <time>2013-08-24T06:41:50Z</time>
      </trkpt>
      <trkpt lat="43.93341" lon="7.48663">
        <ele>649</ele>
        <time>2013-08-24T06:42:02Z</time>
      </trkpt>
      <trkpt lat="43.93336" lon="7.48652">
        <ele>638</ele>
        <time>2013-08-24T06:42:10Z</time>
      </trkpt>
      <trkpt lat="43.93326" lon="7.48651">
        <ele>638</ele>
        <time>2013-08-24T06:42:16Z</time>
      </trkpt>
      <trkpt lat="43.93324" lon="7.48638">
        <ele>661</ele>
        <time>2013-08-24T06:42:52Z</time>
      </trkpt>
      <trkpt lat="43.93317" lon="7.48628">
        <ele>661</ele>
        <time>2013-08-24T06:43:07Z</time>
      </trkpt>
      <trkpt lat="43.93308" lon="7.48625">
        <ele>669</ele>
        <time>2013-08-24T06:43:26Z</time>
      </trkpt>
      <trkpt lat="43.933" lon="7.48617">
        <ele>662</ele>
        <time>2013-08-24T06:43:35Z</time>
      </trkpt>
      <trkpt lat="43.93301" lon="7.48604">
        <ele>681</ele>
        <time>2013-08-24T06:44:21Z</time>
      </trkpt>
      <trkpt lat="43.93297" lon="7.48591">
        <ele>681</ele>
        <time>2013-08-24T06:44:33Z</time>
      </trkpt>
      <trkpt lat="43.93288" lon="7.48584">
        <ele>681</ele>
        <time>2013-08-24T06:44:41Z</time>
      </trkpt>
      <trkpt lat="43.93283" lon="7.48573">
        <ele>673</ele>
        <time>2013-08-24T06:44:49Z</time>
      </trkpt>
      <trkpt lat="43.93289" lon="7.48564">
        <ele>673</ele>
        <time>2013-08-24T06:44:59Z</time>
      </trkpt>
      <trkpt lat="43.93291" lon="7.48552">
        <ele>679</ele>
        <time>2013-08-24T06:45:16Z</time>
      </trkpt>
      <trkpt lat="43.93282" lon="7.48547">
        <ele>679</ele>
        <time>2013-08-24T06:45:28Z</time>
      </trkpt>
      <trkpt lat="43.93275" lon="7.48538">
        <ele>679</ele>
        <time>2013-08-24T06:45:35Z</time>
      </trkpt>
      <trkpt lat="43.93271" lon="7.48528">
        <ele>668</ele>
        <time>2013-08-24T06:45:43Z</time>
      </trkpt>
      <trkpt lat="43.93263" lon="7.48517">
        <ele>668</ele>
        <time>2013-08-24T06:46:02Z</time>
      </trkpt>
      <trkpt lat="43.9326" lon="7.48505">
        <ele>668</ele>
        <time>2013-08-24T06:46:09Z</time>
      </trkpt>
      <trkpt lat="43.93252" lon="7.48499">
        <ele>668</ele>
        <time>2013-08-24T06:46:21Z</time>
      </trkpt>
      <trkpt lat="43.93244" lon="7.48492">
        <ele>681</ele>
        <time>2013-08-24T06:46:43Z</time>
      </trkpt>
      <trkpt lat="43.93235" lon="7.48487">
        <ele>690</ele>
        <time>2013-08-24T06:46:56Z</time>
      </trkpt>
      <trkpt lat="43.93228" lon="7.48478">
        <ele>690</ele>
        <time>2013-08-24T06:47:05Z</time>
      </trkpt>
      <trkpt lat="43.93223" lon="7.48467">
        <ele>690</ele>
        <time>2013-08-24T06:47:12Z</time>
      </trkpt>
      <trkpt lat="43.93215" lon="7.4846">
        <ele>696</ele>
        <time>2013-08-24T06:47:18Z</time>
      </trkpt>
      <trkpt lat="43.93206" lon="7.48467">
        <ele>696</ele>
        <time>2013-08-24T06:47:34Z</time>
      </trkpt>
      <trkpt lat="43.93199" lon="7.48457">
        <ele>696</ele>
        <time>2013-08-24T06:47:43Z</time>
      </trkpt>
      <trkpt lat="43.9319" lon="7.48453">
        <ele>684</ele>
        <time>2013-08-24T06:48:12Z</time>
      </trkpt>
      <trkpt lat="43.93182" lon="7.48443">
        <ele>684</ele>
        <time>2013-08-24T06:48:17Z</time>
      </trkpt>
      <trkpt lat="43.93173" lon="7.48437">
        <ele>675</ele>
        <time>2013-08-24T06:48:37Z</time>
      </trkpt>
      <trkpt lat="43.93166" lon="7.48428">
        <ele>668</ele>
        <time>2013-08-24T06:48:53Z</time>
      </trkpt>
      <trkpt lat="43.93163" lon="7.48416">
        <ele>668</ele>
        <time>2013-08-24T06:49:02Z</time>
      </trkpt>
      <trkpt lat="43.93161" lon="7.48404">
        <ele>662</ele>
        <time>2013-08-24T06:49:11Z</time>
      </trkpt>
      <trkpt lat="43.93153" lon="7.48396">
        <ele>662</ele>
        <time>2013-08-24T06:49:14Z</time>
      </trkpt>
      <trkpt lat="43.93146" lon="7.48389">
        <ele>653</ele>
        <time>2013-08-24T06:49:44Z</time>
      </trkpt>
      <trkpt lat="43.93138" lon="7.48378">
        <ele>653</ele>
        <time>2013-08-24T06:49:53Z</time>
      </trkpt>
      <trkpt lat="43.93133" lon="7.48367">
        <ele>646</ele>
        <time>2013-08-24T06:50:14Z</time>
      </trkpt>
      <trkpt lat="43.93123" lon="7.48364">
        <ele>646</ele>
        <time>2013-08-24T06:50:24Z</time>
      </trkpt>
      <trkpt lat="43.93114" lon="7.48349">
        <ele>646</ele>
        <time>2013-08-24T06:50:31Z</time>
      </trkpt>
      <trkpt lat="43.93106" lon="7.48343">
        <ele>638</ele>
        <time>2013-08-24T06:50:57Z</time>
      </trkpt>
      <trkpt lat="43.93097" lon="7.48342">
        <ele>638</ele>
        <time>2013-08-24T06:51:10Z</time>
      </trkpt>
      <trkpt lat="43.93088" lon="7.48345">
        <ele>659</ele>
        <time>2013-08-24T06:51:18Z</time>
      </trkpt>
      <trkpt lat="43.9308" lon="7.48355">
        <ele>689</ele>
        <time>2013-08-24T06:51:29Z</time>
      </trkpt>
      <trkpt lat="43.93078" lon="7.48368">
        <ele>712</ele>
        <time>2013-08-24T06:51:32Z</time>
      </trkpt>
      <trkpt lat="43.93072" lon="7.48357">
        <ele>722</ele>
        <time>2013-08-24T06:51:42Z</time>
      </trkpt>
      <trkpt lat="43.93063" lon="7.48355">
        <ele>728</ele>
        <time>2013-08-24T06:51:58Z</time>
      </trkpt>
      <trkpt lat="43.93054" lon="7.4836">
        <ele>728</ele>
        <time>2013-08-24T06:52:13Z</time>
      </trkpt>
      <trkpt lat="43.93045" lon="7.48359">
        <ele>722</ele>
        <time>2013-08-24T06:52:35Z</time>
      </trkpt>
      <trkpt lat="43.93036" lon="7.48356">
        <ele>734</ele>
        <time>2013-08-24T06:52:46Z</time>
      </trkpt>
      <trkpt lat="43.9304" lon="7.48368">
        <ele>734</ele>
        <time>2013-08-24T06:52:53Z</time>
      </trkpt>
      <trkpt lat="43.93031" lon="7.48371">
        <ele>734</ele>
        <time>2013-08-24T06:53:00Z</time>
      </trkpt>
      <trkpt lat="43.93039" lon="7.48378">
        <ele>706</ele>
        <time>2013-08-24T06:53:22Z</time>
      </trkpt>
      <trkpt lat="43.9304" lon="7.48393">
        <ele>706</ele>
        <time>2013-08-24T06:53:47Z</time>
      </trkpt>
      <trkpt lat="43.93038" lon="7.4838">
        <ele>718</ele>
        <time>2013-08-24T06:53:56Z</time>
      </trkpt>
      <trkpt lat="43.9303" lon="7.48373">
        <ele>718</ele>
        <time>2013-08-24T06:54:36Z</time>
      </trkpt>
      <trkpt lat="43.93028" lon="7.4836">
        <ele>718</ele>
        <time>2013-08-24T06:54:59Z</time>
      </trkpt>
      <trkpt lat="43.93025" lon="7.48372">
        <ele>742</ele>
        <time>2013-08-24T06:55:45Z</time>
      </trkpt>
      <trkpt lat="43.93018" lon="7.48381">
        <ele>742</ele>
        <time>2013-08-24T06:56:01Z</time>
      </trkpt>
      <trkpt lat="43.9301" lon="7.48389">
        <ele>742</ele>
        <time>2013-08-24T06:56:14Z</time>
      </trkpt>
      <trkpt lat="43.93001" lon="7.48395">
        <ele>742</ele>
        <time>2013-08-24T06:56:31Z</time>
      </trkpt>
      <trkpt lat="43.92993" lon="7.48388">
        <ele>751</ele>
        <time>2013-08-24T06:57:01Z</time>
      </trkpt>
      <trkpt lat="43.92984" lon="7.48392">
        <ele>760</ele>
        <time>2013-08-24T06:57:13Z</time>
      </trkpt>
      <trkpt lat="43.92978" lon="7.48401">
        <ele>760</ele>
        <time>2013-08-24T06:57:30Z</time>
      </trkpt>
      <trkpt lat="43.9297" lon="7.48395">
        <ele>760</ele>
        <time>2013-08-24T06:57:40Z</time>
      </trkpt>
      <trkpt lat="43.92962" lon="7.48398">
        <ele>760</ele>
        <time>2013-08-24T06:57:47Z</time>
      </trkpt>
      <trkpt lat="43.92964" lon="7.48386">
        <ele>760</ele>
        <time>2013-08-24T06:58:17Z</time>
      </trkpt>
      <trkpt lat="43.92954" lon="7.48387">
        <ele>760</ele>
        <time>2013-08-24T06:58:22Z</time>
      </trkpt>
      <trkpt lat="43.92961" lon="7.48379">
        <ele>760</ele>
        <time>2013-08-24T06:58:32Z</time>
      </trkpt>
      <trkpt lat="43.92963" lon="7.48366">
        <ele>768</ele>
        <time>2013-08-24T06:58:48Z</time>
      </trkpt>
      <trkpt lat="43.92962" lon="7.48352">
        <ele>768</ele>
        <time>2013-08-24T06:58:59Z</time>
      </trkpt>
      <trkpt lat="43.9296" lon="7.48341">
        <ele>758</ele>
        <time>2013-08-24T06:59:07Z</time>
      </trkpt>
      <trkpt lat="43.92958" lon="7.48328">
        <ele>750</ele>
        <time>2013-08-24T06:59:17Z</time>
      </trkpt>
      <trkpt lat="43.92961" lon="7.48316">
        <ele>750</ele>
        <time>2013-08-24T06:59:24Z</time>
      </trkpt>
      <trkpt lat="43.92954" lon="7.48308">
        <ele>758</ele>
        <time>2013-08-24T06:59:35Z</time>
      </trkpt>
      <trkpt lat="43.92949" lon="7.48298">
        <ele>779</ele>
        <time>2013-08-24T06:59:51Z</time>
      </trkpt>
      <trkpt lat="43.92941" lon="7.48291">
        <ele>779</ele>
        <time>2013-08-24T07:00:02Z</time>
      </trkpt>
      <trkpt lat="43.92945" lon="7.48279">
        <ele>779</ele>
        <time>2013-08-24T07:00:14Z</time>
      </trkpt>
      <trkpt lat="43.92936" lon="7.48275">
        <ele>779</ele>
        <time>2013-08-24T07:00:20Z</time>
      </trkpt>
      <trkpt lat="43.92938" lon="7.48263">
        <ele>772</ele>
        <time>2013-08-24T07:00:28Z</time>
      </trkpt>
      <trkpt lat="43.92929" lon="7.48263">
        <ele>772</ele>
        <time>2013-08-24T07:00:35Z</time>
      </trkpt>
      <trkpt lat="43.92932" lon="7.48249">
        <ele>779</ele>
        <time>2013-08-24T07:00:46Z</time>
      </trkpt>
      <trkpt lat="43.92929" lon="7.48236">
        <ele>779</ele>
        <time>2013-08-24T07:00:51Z</time>
      </trkpt>
      <trkpt lat="43.9292" lon="7.48237">
        <ele>770</ele>
        <time>2013-08-24T07:00:56Z</time>
      </trkpt>
      <trkpt lat="43.92914" lon="7.48227">
        <ele>761</ele>
        <time>2013-08-24T07:01:06Z</time>
      </trkpt>
      <trkpt lat="43.92912" lon="7.48213">
        <ele>751</ele>
        <time>2013-08-24T07:01:15Z</time>
      </trkpt>
      <trkpt lat="43.92904" lon="7.48219">
        <ele>759</ele>
        <time>2013-08-24T07:01:17Z</time>
      </trkpt>
      <trkpt lat="43.92895" lon="7.48221">
        <ele>768</ele>
        <time>2013-08-24T07:01:21Z</time>
      </trkpt>
      <trkpt lat="43.92887" lon="7.48215">
        <ele>774</ele>
        <time>2013-08-24T07:01:36Z</time>
      </trkpt>
      <trkpt lat="43.92883" lon="7.48203">
        <ele>774</ele>
        <time>2013-08-24T07:01:43Z</time>
      </trkpt>
      <trkpt lat="43.92888" lon="7.48193">
        <ele>766</ele>
        <time>2013-08-24T07:01:48Z</time>
      </trkpt>
      <trkpt lat="43.92895" lon="7.48183">
        <ele>749</ele>
        <time>2013-08-24T07:01:55Z</time>
      </trkpt>
      <trkpt lat="43.92904" lon="7.48177">
        <ele>749</ele>
        <time>2013-08-24T07:02:07Z</time>
      </trkpt>
      <trkpt lat="43.92902" lon="7.48164">
        <ele>735</ele>
        <time>2013-08-24T07:02:15Z</time>
      </trkpt>
      <trkpt lat="43.92893" lon="7.48157">
        <ele>735</ele>
        <time>2013-08-24T07:02:23Z</time>
      </trkpt>
      <trkpt lat="43.92882" lon="7.4816">
        <ele>735</ele>
        <time>2013-08-24T07:02:28Z</time>
      </trkpt>
      <trkpt lat="43.92871" lon="7.48162">
        <ele>745</ele>
        <time>2013-08-24T07:02:34Z</time>
      </trkpt>
      <trkpt lat="43.92863" lon="7.48169">
        <ele>756</ele>
        <time>2013-08-24T07:02:41Z</time>
      </trkpt>
      <trkpt lat="43.92854" lon="7.48174">
        <ele>774</ele>
        <time>2013-08-24T07:02:46Z</time>
      </trkpt>
      <trkpt lat="43.92845" lon="7.48173">
        <ele>781</ele>
        <time>2013-08-24T07:03:14Z</time>
      </trkpt>
      <trkpt lat="43.92837" lon="7.48166">
        <ele>781</ele>
        <time>2013-08-24T07:03:24Z</time>
      </trkpt>
      <trkpt lat="43.92828" lon="7.48167">
        <ele>781</ele>
        <time>2013-08-24T07:03:38Z</time>
      </trkpt>
      <trkpt lat="43.92828" lon="7.48155">
        <ele>772</ele>
        <time>2013-08-24T07:03:51Z</time>
      </trkpt>
      <trkpt lat="43.92819" lon="7.48158">
        <ele>772</ele>
        <time>2013-08-24T07:04:00Z</time>
      </trkpt>
      <trkpt lat="43.9281" lon="7.48156">
        <ele>787</ele>
        <time>2013-08-24T07:04:15Z</time>
      </trkpt>
      <trkpt lat="43.92803" lon="7.48146">
        <ele>787</ele>
        <time>2013-08-24T07:04:30Z</time>
      </trkpt>
      <trkpt lat="43.92804" lon="7.48132">
        <ele>780</ele>
        <time>2013-08-24T07:04:44Z</time>
      </trkpt>
      <trkpt lat="43.92799" lon="7.48122">
        <ele>790</ele>
        <time>2013-08-24T07:05:04Z</time>
      </trkpt>
      <trkpt lat="43.9279" lon="7.48116">
        <ele>790</ele>
        <time>2013-08-24T07:05:13Z</time>
      </trkpt>
      <trkpt lat="43.9278" lon="7.48121">
        <ele>790</ele>
        <time>2013-08-24T07:05:19Z</time>
      </trkpt>
      <trkpt lat="43.92775" lon="7.48109">
        <ele>790</ele>
        <time>2013-08-24T07:05:29Z</time>
      </trkpt>
      <trkpt lat="43.9278" lon="7.48096">
        <ele>783</ele>
        <time>2013-08-24T07:05:42Z</time>
      </trkpt>
      <trkpt lat="43.92776" lon="7.48085">
        <ele>783</ele>
        <time>2013-08-24T07:06:01Z</time>
      </trkpt>
      <trkpt lat="43.92767" lon="7.48079">
        <ele>783</ele>
        <time>2013-08-24T07:06:12Z</time>
      </trkpt>
      <trkpt lat="43.92758" lon="7.48078">
        <ele>798</ele>
        <time>2013-08-24T07:06:26Z</time>
      </trkpt>
      <trkpt lat="43.92754" lon="7.48067">
        <ele>798</ele>
        <time>2013-08-24T07:06:34Z</time>
      </trkpt>
      <trkpt lat="43.92745" lon="7.4807">
        <ele>798</ele>
        <time>2013-08-24T07:06:40Z</time>
      </trkpt>
      <trkpt lat="43.92736" lon="7.48071">
        <ele>804</ele>
        <time>2013-08-24T07:06:44Z</time>
      </trkpt>
      <trkpt lat="43.92726" lon="7.48072">
        <ele>817</ele>
        <time>2013-08-24T07:06:55Z</time>
      </trkpt>
      <trkpt lat="43.92716" lon="7.48074">
        <ele>824</ele>
        <time>2013-08-24T07:07:02Z</time>
      </trkpt>
      <trkpt lat="43.92706" lon="7.48077">
        <ele>816</ele>
        <time>2013-08-24T07:07:32Z</time>
      </trkpt>
      <trkpt lat="43.92713" lon="7.48068">
        <ele>796</ele>
        <time>2013-08-24T07:07:46Z</time>
      </trkpt>
      <trkpt lat="43.92704" lon="7.48068">
        <ele>808</ele>
        <time>2013-08-24T07:07:57Z</time>
      </trkpt>
      <trkpt lat="43.92703" lon="7.48055">
        <ele>808</ele>
        <time>2013-08-24T07:08:08Z</time>
      </trkpt>
      <trkpt lat="43.92693" lon="7.48058">
        <ele>814</ele>
        <time>2013-08-24T07:08:11Z</time>
      </trkpt>
      <trkpt lat="43.92686" lon="7.48066">
        <ele>814</ele>
        <time>2013-08-24T07:08:20Z</time>
      </trkpt>
      <trkpt lat="43.92678" lon="7.4806">
        <ele>814</ele>
        <time>2013-08-24T07:08:32Z</time>
      </trkpt>
      <trkpt lat="43.92682" lon="7.48046">
        <ele>803</ele>
        <time>2013-08-24T07:08:53Z</time>
      </trkpt>
      <trkpt lat="43.92673" lon="7.48048">
        <ele>811</ele>
        <time>2013-08-24T07:09:03Z</time>
      </trkpt>
      <trkpt lat="43.92664" lon="7.48056">
        <ele>820</ele>
        <time>2013-08-24T07:09:06Z</time>
      </trkpt>
      <trkpt lat="43.92654" lon="7.48053">
        <ele>820</ele>
        <time>2013-08-24T07:09:15Z</time>
      </trkpt>
      <trkpt lat="43.92645" lon="7.48054">
        <ele>829</ele>
        <time>2013-08-24T07:09:26Z</time>
      </trkpt>
      <trkpt lat="43.92646" lon="7.48039">
        <ele>821</ele>
        <time>2013-08-24T07:09:44Z</time>
      </trkpt>
      <trkpt lat="43.92653" lon="7.48025">
        <ele>805</ele>
        <time>2013-08-24T07:09:48Z</time>
      </trkpt>
      <trkpt lat="43.92656" lon="7.4801">
        <ele>805</ele>
        <time>2013-08-24T07:09:59Z</time>
      </trkpt>
      <trkpt lat="43.92647" lon="7.48011">
        <ele>796</ele>
        <time>2013-08-24T07:10:08Z</time>
      </trkpt>
      <trkpt lat="43.92647" lon="7.47998">
        <ele>788</ele>
        <time>2013-08-24T07:10:18Z</time>
      </trkpt>
      <trkpt lat="43.92641" lon="7.48007">
        <ele>831</ele>
        <time>2013-08-24T07:10:36Z</time>
      </trkpt>
      <trkpt lat="43.92632" lon="7.48009">
        <ele>831</ele>
        <time>2013-08-24T07:10:41Z</time>
      </trkpt>
      <trkpt lat="43.92623" lon="7.48005">
        <ele>845</ele>
        <time>2013-08-24T07:10:55Z</time>
      </trkpt>
      <trkpt lat="43.92613" lon="7.48006">
        <ele>854</ele>
        <time>2013-08-24T07:11:05Z</time>
      </trkpt>
      <trkpt lat="43.92616" lon="7.47991">
        <ele>854</ele>
        <time>2013-08-24T07:11:14Z</time>
      </trkpt>
      <trkpt lat="43.92608" lon="7.47985">
        <ele>854</ele>
        <time>2013-08-24T07:11:18Z</time>
      </trkpt>
      <trkpt lat="43.92609" lon="7.47971">
        <ele>854</ele>
        <time>2013-08-24T07:11:24Z</time>
      </trkpt>
      <trkpt lat="43.92603" lon="7.4796">
        <ele>854</ele>
        <time>2013-08-24T07:11:31Z</time>
      </trkpt>
      <trkpt lat="43.92594" lon="7.47954">
        <ele>854</ele>
        <time>2013-08-24T07:11:44Z</time>
      </trkpt>
      <trkpt lat="43.92588" lon="7.47945">
        <ele>847</ele>
        <time>2013-08-24T07:11:58Z</time>
      </trkpt>
      <trkpt lat="43.92588" lon="7.47932">
        <ele>847</ele>
        <time>2013-08-24T07:12:09Z</time>
      </trkpt>
      <trkpt lat="43.92579" lon="7.47934">
        <ele>847</ele>
        <time>2013-08-24T07:12:15Z</time>
      </trkpt>
      <trkpt lat="43.92575" lon="7.47923">
        <ele>847</ele>
        <time>2013-08-24T07:12:29Z</time>
      </trkpt>
      <trkpt lat="43.92571" lon="7.4791">
        <ele>847</ele>
        <time>2013-08-24T07:12:45Z</time>
      </trkpt>
      <trkpt lat="43.92562" lon="7.47907">
        <ele>847</ele>
        <time>2013-08-24T07:12:57Z</time>
      </trkpt>
      <trkpt lat="43.92552" lon="7.47908">
        <ele>858</ele>
        <time>2013-08-24T07:13:08Z</time>
      </trkpt>
      <trkpt lat="43.92547" lon="7.47897">
        <ele>858</ele>
        <time>2013-08-24T07:13:19Z</time>
      </trkpt>
      <trkpt lat="43.92547" lon="7.47884">
        <ele>851</ele>
        <time>2013-08-24T07:13:45Z</time>
      </trkpt>
      <trkpt lat="43.92538" lon="7.47876">
        <ele>851</ele>
        <time>2013-08-24T07:13:57Z</time>
      </trkpt>
      <trkpt lat="43.9254" lon="7.47864">
        <ele>862</ele>
        <time>2013-08-24T07:14:20Z</time>
      </trkpt>
      <trkpt lat="43.92529" lon="7.47866">
        <ele>862</ele>
        <time>2013-08-24T07:14:27Z</time>
      </trkpt>
      <trkpt lat="43.92521" lon="7.47863">
        <ele>871</ele>
        <time>2013-08-24T07:14:42Z</time>
      </trkpt>
      <trkpt lat="43.9251" lon="7.47861">
        <ele>871</ele>
        <time>2013-08-24T07:14:50Z</time>
      </trkpt>
      <trkpt lat="43.925" lon="7.47865">
        <ele>877</ele>
        <time>2013-08-24T07:14:55Z</time>
      </trkpt>
      <trkpt lat="43.92506" lon="7.47856">
        <ele>877</ele>
        <time>2013-08-24T07:15:05Z</time>
      </trkpt>
      <trkpt lat="43.92504" lon="7.47843">
        <ele>877</ele>
        <time>2013-08-24T07:15:44Z</time>
      </trkpt>
      <trkpt lat="43.9251" lon="7.47832">
        <ele>877</ele>
        <time>2013-08-24T07:15:50Z</time>
      </trkpt>
      <trkpt lat="43.92501" lon="7.47838">
        <ele>877</ele>
        <time>2013-08-24T07:16:05Z</time>
      </trkpt>
      <trkpt lat="43.92491" lon="7.47839">
        <ele>892</ele>
        <time>2013-08-24T07:16:16Z</time>
      </trkpt>
      <trkpt lat="43.9249" lon="7.47826">
        <ele>892</ele>
        <time>2013-08-24T07:16:22Z</time>
      </trkpt>
      <trkpt lat="43.9249" lon="7.47813">
        <ele>865</ele>
        <time>2013-08-24T07:16:45Z</time>
      </trkpt>
      <trkpt lat="43.92487" lon="7.47802">
        <ele>865</ele>
        <time>2013-08-24T07:16:57Z</time>
      </trkpt>
      <trkpt lat="43.92484" lon="7.4779">
        <ele>873</ele>
        <time>2013-08-24T07:17:26Z</time>
      </trkpt>
      <trkpt lat="43.92482" lon="7.47778">
        <ele>879</ele>
        <time>2013-08-24T07:17:41Z</time>
      </trkpt>
      <trkpt lat="43.92471" lon="7.47776">
        <ele>879</ele>
        <time>2013-08-24T07:17:58Z</time>
      </trkpt>
      <trkpt lat="43.9246" lon="7.47779">
        <ele>879</ele>
        <time>2013-08-24T07:18:03Z</time>
      </trkpt>
      <trkpt lat="43.92451" lon="7.47781">
        <ele>890</ele>
        <time>2013-08-24T07:18:08Z</time>
      </trkpt>
      <trkpt lat="43.9246" lon="7.47777">
        <ele>904</ele>
        <time>2013-08-24T07:18:21Z</time>
      </trkpt>
      <trkpt lat="43.92464" lon="7.47763">
        <ele>898</ele>
        <time>2013-08-24T07:18:30Z</time>
      </trkpt>
      <trkpt lat="43.92454" lon="7.47761">
        <ele>886</ele>
        <time>2013-08-24T07:18:37Z</time>
      </trkpt>
      <trkpt lat="43.92453" lon="7.47747">
        <ele>880</ele>
        <time>2013-08-24T07:21:19Z</time>
      </trkpt>
      <trkpt lat="43.92458" lon="7.47735">
        <ele>880</ele>
        <time>2013-08-24T07:21:30Z</time>
      </trkpt>
      <trkpt lat="43.92453" lon="7.47725">
        <ele>891</ele>
        <time>2013-08-24T07:21:45Z</time>
      </trkpt>
      <trkpt lat="43.92458" lon="7.47715">
        <ele>891</ele>
        <time>2013-08-24T07:21:49Z</time>
      </trkpt>
      <trkpt lat="43.92455" lon="7.47702">
        <ele>891</ele>
        <time>2013-08-24T07:22:01Z</time>
      </trkpt>
      <trkpt lat="43.92446" lon="7.47695">
        <ele>883</ele>
        <time>2013-08-24T07:22:09Z</time>
      </trkpt>
      <trkpt lat="43.92436" lon="7.47696">
        <ele>883</ele>
        <time>2013-08-24T07:22:14Z</time>
      </trkpt>
      <trkpt lat="43.92438" lon="7.47682">
        <ele>883</ele>
        <time>2013-08-24T07:22:22Z</time>
      </trkpt>
      <trkpt lat="43.92442" lon="7.47668">
        <ele>883</ele>
        <time>2013-08-24T07:22:29Z</time>
      </trkpt>
      <trkpt lat="43.92436" lon="7.47656">
        <ele>883</ele>
        <time>2013-08-24T07:22:38Z</time>
      </trkpt>
      <trkpt lat="43.92426" lon="7.47658">
        <ele>872</ele>
        <time>2013-08-24T07:22:46Z</time>
      </trkpt>
      <trkpt lat="43.92422" lon="7.47671">
        <ele>880</ele>
        <time>2013-08-24T07:22:57Z</time>
      </trkpt>
      <trkpt lat="43.92417" lon="7.47682">
        <ele>893</ele>
        <time>2013-08-24T07:23:00Z</time>
      </trkpt>
      <trkpt lat="43.92411" lon="7.47692">
        <ele>893</ele>
        <time>2013-08-24T07:23:05Z</time>
      </trkpt>
      <trkpt lat="43.92405" lon="7.47703">
        <ele>917</ele>
        <time>2013-08-24T07:23:26Z</time>
      </trkpt>
      <trkpt lat="43.92408" lon="7.47691">
        <ele>917</ele>
        <time>2013-08-24T07:23:33Z</time>
      </trkpt>
      <trkpt lat="43.92414" lon="7.47681">
        <ele>893</ele>
        <time>2013-08-24T07:23:42Z</time>
      </trkpt>
      <trkpt lat="43.92419" lon="7.47671">
        <ele>883</ele>
        <time>2013-08-24T07:23:47Z</time>
      </trkpt>
      <trkpt lat="43.92417" lon="7.47683">
        <ele>894</ele>
        <time>2013-08-24T07:24:33Z</time>
      </trkpt>
      <trkpt lat="43.92422" lon="7.47673">
        <ele>881</ele>
        <time>2013-08-24T07:25:00Z</time>
      </trkpt>
      <trkpt lat="43.92419" lon="7.47661">
        <ele>888</ele>
        <time>2013-08-24T07:27:26Z</time>
      </trkpt>
      <trkpt lat="43.92416" lon="7.47673">
        <ele>896</ele>
        <time>2013-08-24T07:28:12Z</time>
      </trkpt>
      <trkpt lat="43.92412" lon="7.47685">
        <ele>903</ele>
        <time>2013-08-24T07:28:17Z</time>
      </trkpt>
      <trkpt lat="43.92413" lon="7.47672">
        <ele>890</ele>
        <time>2013-08-24T07:29:35Z</time>
      </trkpt>
      <trkpt lat="43.92412" lon="7.4766">
        <ele>899</ele>
        <time>2013-08-24T07:30:54Z</time>
      </trkpt>
      <trkpt lat="43.92405" lon="7.47669">
        <ele>913</ele>
        <time>2013-08-24T07:31:18Z</time>
      </trkpt>
      <trkpt lat="43.92414" lon="7.47672">
        <ele>889</ele>
        <time>2013-08-24T07:31:43Z</time>
      </trkpt>
      <trkpt lat="43.9241" lon="7.47684">
        <ele>889</ele>
        <time>2013-08-24T07:32:42Z</time>
      </trkpt>
      <trkpt lat="43.92416" lon="7.47673">
        <ele>880</ele>
        <time>2013-08-24T07:39:42Z</time>
      </trkpt>
      <trkpt lat="43.9242" lon="7.47662">
        <ele>880</ele>
        <time>2013-08-24T07:39:48Z</time>
      </trkpt>
      <trkpt lat="43.92417" lon="7.47673">
        <ele>880</ele>
        <time>2013-08-24T07:40:21Z</time>
      </trkpt>
      <trkpt lat="43.92414" lon="7.47685">
        <ele>886</ele>
        <time>2013-08-24T07:41:32Z</time>
      </trkpt>
      <trkpt lat="43.9241" lon="7.47697">
        <ele>892</ele>
        <time>2013-08-24T07:41:41Z</time>
      </trkpt>
      <trkpt lat="43.92414" lon="7.47685">
        <ele>883</ele>
        <time>2013-08-24T07:42:04Z</time>
      </trkpt>
      <trkpt lat="43.92416" lon="7.47673">
        <ele>874</ele>
        <time>2013-08-24T07:43:44Z</time>
      </trkpt>
      <trkpt lat="43.9242" lon="7.47661">
        <ele>874</ele>
        <time>2013-08-24T07:43:54Z</time>
      </trkpt>
      <trkpt lat="43.92417" lon="7.47672">
        <ele>874</ele>
        <time>2013-08-24T07:44:04Z</time>
      </trkpt>
      <trkpt lat="43.92414" lon="7.47685">
        <ele>882</ele>
        <time>2013-08-24T07:45:13Z</time>
      </trkpt>
      <trkpt lat="43.9241" lon="7.47697">
        <ele>882</ele>
        <time>2013-08-24T07:45:26Z</time>
      </trkpt>
      <trkpt lat="43.92413" lon="7.47685">
        <ele>882</ele>
        <time>2013-08-24T07:46:14Z</time>
      </trkpt>
      <trkpt lat="43.92414" lon="7.47672">
        <ele>882</ele>
        <time>2013-08-24T07:51:22Z</time>
      </trkpt>
      <trkpt lat="43.92412" lon="7.47685">
        <ele>887</ele>
        <time>2013-08-24T07:52:14Z</time>
      </trkpt>
      <trkpt lat="43.92418" lon="7.47675">
        <ele>887</ele>
        <time>2013-08-24T07:52:39Z</time>
      </trkpt>
      <trkpt lat="43.92413" lon="7.47685">
        <ele>879</ele>
        <time>2013-08-24T07:52:54Z</time>
      </trkpt>
      <trkpt lat="43.92423" lon="7.47689">
        <ele>879</ele>
        <time>2013-08-24T07:53:15Z</time>
      </trkpt>
      <trkpt lat="43.92432" lon="7.47692">
        <ele>879</ele>
        <time>2013-08-24T07:53:24Z</time>
      </trkpt>
      <trkpt lat="43.92436" lon="7.47703">
        <ele>879</ele>
        <time>2013-08-24T07:53:36Z</time>
      </trkpt>
      <trkpt lat="43.92435" lon="7.47715">
        <ele>879</ele>
        <time>2013-08-24T07:54:12Z</time>
      </trkpt>
      <trkpt lat="43.92436" lon="7.47728">
        <ele>879</ele>
        <time>2013-08-24T07:54:21Z</time>
      </trkpt>
      <trkpt lat="43.92435" lon="7.47741">
        <ele>879</ele>
        <time>2013-08-24T07:54:30Z</time>
      </trkpt>
      <trkpt lat="43.92436" lon="7.47753">
        <ele>879</ele>
        <time>2013-08-24T07:54:40Z</time>
      </trkpt>
      <trkpt lat="43.92436" lon="7.47766">
        <ele>886</ele>
        <time>2013-08-24T07:54:51Z</time>
      </trkpt>
      <trkpt lat="43.92438" lon="7.47779">
        <ele>891</ele>
        <time>2013-08-24T07:55:02Z</time>
      </trkpt>
      <trkpt lat="43.92436" lon="7.47792">
        <ele>891</ele>
        <time>2013-08-24T07:55:10Z</time>
      </trkpt>
      <trkpt lat="43.92432" lon="7.47804">
        <ele>891</ele>
        <time>2013-08-24T07:55:19Z</time>
      </trkpt>
      <trkpt lat="43.9243" lon="7.47817">
        <ele>898</ele>
        <time>2013-08-24T07:55:28Z</time>
      </trkpt>
      <trkpt lat="43.92426" lon="7.47828">
        <ele>892</ele>
        <time>2013-08-24T07:55:35Z</time>
      </trkpt>
      <trkpt lat="43.92423" lon="7.4784">
        <ele>892</ele>
        <time>2013-08-24T07:55:44Z</time>
      </trkpt>
      <trkpt lat="43.92422" lon="7.47853">
        <ele>892</ele>
        <time>2013-08-24T07:55:54Z</time>
      </trkpt>
      <trkpt lat="43.9242" lon="7.47866">
        <ele>892</ele>
        <time>2013-08-24T07:56:04Z</time>
      </trkpt>
      <trkpt lat="43.92419" lon="7.47879">
        <ele>892</ele>
        <time>2013-08-24T07:56:13Z</time>
      </trkpt>
      <trkpt lat="43.92415" lon="7.47891">
        <ele>892</ele>
        <time>2013-08-24T07:56:21Z</time>
      </trkpt>
      <trkpt lat="43.92414" lon="7.47904">
        <ele>892</ele>
        <time>2013-08-24T07:56:30Z</time>
      </trkpt>
      <trkpt lat="43.92414" lon="7.47918">
        <ele>892</ele>
        <time>2013-08-24T07:56:39Z</time>
      </trkpt>
      <trkpt lat="43.92411" lon="7.47929">
        <ele>892</ele>
        <time>2013-08-24T07:56:48Z</time>
      </trkpt>
      <trkpt lat="43.92406" lon="7.47941">
        <ele>892</ele>
        <time>2013-08-24T07:56:58Z</time>
      </trkpt>
      <trkpt lat="43.92396" lon="7.47944">
        <ele>910</ele>
        <time>2013-08-24T07:57:05Z</time>
      </trkpt>
      <trkpt lat="43.92395" lon="7.47957">
        <ele>910</ele>
        <time>2013-08-24T07:57:16Z</time>
      </trkpt>
      <trkpt lat="43.92391" lon="7.47969">
        <ele>920</ele>
        <time>2013-08-24T07:57:26Z</time>
      </trkpt>
      <trkpt lat="43.92393" lon="7.47981">
        <ele>910</ele>
        <time>2013-08-24T07:57:33Z</time>
      </trkpt>
      <trkpt lat="43.92394" lon="7.47995">
        <ele>904</ele>
        <time>2013-08-24T07:57:42Z</time>
      </trkpt>
      <trkpt lat="43.92394" lon="7.48007">
        <ele>904</ele>
        <time>2013-08-24T07:57:50Z</time>
      </trkpt>
      <trkpt lat="43.92393" lon="7.4802">
        <ele>904</ele>
        <time>2013-08-24T07:58:00Z</time>
      </trkpt>
      <trkpt lat="43.92383" lon="7.48027">
        <ele>904</ele>
        <time>2013-08-24T07:58:10Z</time>
      </trkpt>
      <trkpt lat="43.92375" lon="7.48031">
        <ele>915</ele>
        <time>2013-08-24T07:58:16Z</time>
      </trkpt>
      <trkpt lat="43.92366" lon="7.48033">
        <ele>925</ele>
        <time>2013-08-24T07:58:25Z</time>
      </trkpt>
      <trkpt lat="43.92356" lon="7.48033">
        <ele>925</ele>
        <time>2013-08-24T07:58:33Z</time>
      </trkpt>
      <trkpt lat="43.92347" lon="7.4804">
        <ele>935</ele>
        <time>2013-08-24T07:58:41Z</time>
      </trkpt>
      <trkpt lat="43.92344" lon="7.48051">
        <ele>928</ele>
        <time>2013-08-24T07:58:56Z</time>
      </trkpt>
      <trkpt lat="43.92342" lon="7.48064">
        <ele>921</ele>
        <time>2013-08-24T07:59:03Z</time>
      </trkpt>
      <trkpt lat="43.92337" lon="7.48074">
        <ele>914</ele>
        <time>2013-08-24T07:59:11Z</time>
      </trkpt>
      <trkpt lat="43.9233" lon="7.48085">
        <ele>906</ele>
        <time>2013-08-24T07:59:20Z</time>
      </trkpt>
      <trkpt lat="43.92321" lon="7.48083">
        <ele>906</ele>
        <time>2013-08-24T07:59:33Z</time>
      </trkpt>
      <trkpt lat="43.92311" lon="7.48083">
        <ele>898</ele>
        <time>2013-08-24T08:00:13Z</time>
      </trkpt>
      <trkpt lat="43.92303" lon="7.48088">
        <ele>898</ele>
        <time>2013-08-24T08:00:25Z</time>
      </trkpt>
      <trkpt lat="43.92293" lon="7.48089">
        <ele>908</ele>
        <time>2013-08-24T08:00:36Z</time>
      </trkpt>
      <trkpt lat="43.92284" lon="7.48086">
        <ele>908</ele>
        <time>2013-08-24T08:00:53Z</time>
      </trkpt>
      <trkpt lat="43.92275" lon="7.48089">
        <ele>908</ele>
        <time>2013-08-24T08:01:04Z</time>
      </trkpt>
      <trkpt lat="43.92266" lon="7.4809">
        <ele>908</ele>
        <time>2013-08-24T08:01:14Z</time>
      </trkpt>
      <trkpt lat="43.92256" lon="7.4809">
        <ele>914</ele>
        <time>2013-08-24T08:01:24Z</time>
      </trkpt>
      <trkpt lat="43.92247" lon="7.48094">
        <ele>914</ele>
        <time>2013-08-24T08:01:33Z</time>
      </trkpt>
      <trkpt lat="43.92238" lon="7.48096">
        <ele>914</ele>
        <time>2013-08-24T08:01:43Z</time>
      </trkpt>
      <trkpt lat="43.9223" lon="7.48101">
        <ele>914</ele>
        <time>2013-08-24T08:01:53Z</time>
      </trkpt>
      <trkpt lat="43.9222" lon="7.48104">
        <ele>914</ele>
        <time>2013-08-24T08:02:03Z</time>
      </trkpt>
      <trkpt lat="43.92211" lon="7.48104">
        <ele>914</ele>
        <time>2013-08-24T08:02:15Z</time>
      </trkpt>
      <trkpt lat="43.92202" lon="7.48096">
        <ele>923</ele>
        <time>2013-08-24T08:02:24Z</time>
      </trkpt>
      <trkpt lat="43.92193" lon="7.48101">
        <ele>923</ele>
        <time>2013-08-24T08:02:33Z</time>
      </trkpt>
      <trkpt lat="43.92184" lon="7.48098">
        <ele>923</ele>
        <time>2013-08-24T08:02:43Z</time>
      </trkpt>
      <trkpt lat="43.92175" lon="7.48099">
        <ele>923</ele>
        <time>2013-08-24T08:02:52Z</time>
      </trkpt>
      <trkpt lat="43.92166" lon="7.48094">
        <ele>923</ele>
        <time>2013-08-24T08:03:00Z</time>
      </trkpt>
      <trkpt lat="43.92156" lon="7.48097">
        <ele>923</ele>
        <time>2013-08-24T08:03:10Z</time>
      </trkpt>
      <trkpt lat="43.92148" lon="7.48103">
        <ele>923</ele>
        <time>2013-08-24T08:03:19Z</time>
      </trkpt>
      <trkpt lat="43.9214" lon="7.48106">
        <ele>923</ele>
        <time>2013-08-24T08:03:28Z</time>
      </trkpt>
      <trkpt lat="43.92136" lon="7.48118">
        <ele>923</ele>
        <time>2013-08-24T08:03:59Z</time>
      </trkpt>
      <trkpt lat="43.92139" lon="7.48106">
        <ele>923</ele>
        <time>2013-08-24T08:04:36Z</time>
      </trkpt>
      <trkpt lat="43.92138" lon="7.48119">
        <ele>931</ele>
        <time>2013-08-24T08:05:41Z</time>
      </trkpt>
      <trkpt lat="43.92142" lon="7.4813">
        <ele>923</ele>
        <time>2013-08-24T08:06:08Z</time>
      </trkpt>
      <trkpt lat="43.92144" lon="7.48145">
        <ele>923</ele>
        <time>2013-08-24T08:06:18Z</time>
      </trkpt>
      <trkpt lat="43.92144" lon="7.48157">
        <ele>923</ele>
        <time>2013-08-24T08:06:36Z</time>
      </trkpt>
      <trkpt lat="43.92148" lon="7.48169">
        <ele>923</ele>
        <time>2013-08-24T08:06:45Z</time>
      </trkpt>
      <trkpt lat="43.92151" lon="7.48181">
        <ele>928</ele>
        <time>2013-08-24T08:06:53Z</time>
      </trkpt>
      <trkpt lat="43.92155" lon="7.48192">
        <ele>928</ele>
        <time>2013-08-24T08:07:01Z</time>
      </trkpt>
      <trkpt lat="43.9216" lon="7.48202">
        <ele>928</ele>
        <time>2013-08-24T08:07:10Z</time>
      </trkpt>
      <trkpt lat="43.92167" lon="7.48212">
        <ele>928</ele>
        <time>2013-08-24T08:07:18Z</time>
      </trkpt>
      <trkpt lat="43.92172" lon="7.48223">
        <ele>928</ele>
        <time>2013-08-24T08:07:26Z</time>
      </trkpt>
      <trkpt lat="43.92179" lon="7.48232">
        <ele>928</ele>
        <time>2013-08-24T08:07:34Z</time>
      </trkpt>
      <trkpt lat="43.92184" lon="7.48242">
        <ele>928</ele>
        <time>2013-08-24T08:07:43Z</time>
      </trkpt>
      <trkpt lat="43.9219" lon="7.48252">
        <ele>928</ele>
        <time>2013-08-24T08:07:51Z</time>
      </trkpt>
      <trkpt lat="43.92198" lon="7.48259">
        <ele>928</ele>
        <time>2013-08-24T08:07:59Z</time>
      </trkpt>
      <trkpt lat="43.92203" lon="7.48269">
        <ele>928</ele>
        <time>2013-08-24T08:08:07Z</time>
      </trkpt>
      <trkpt lat="43.9221" lon="7.48276">
        <ele>928</ele>
        <time>2013-08-24T08:08:15Z</time>
      </trkpt>
      <trkpt lat="43.92216" lon="7.48287">
        <ele>928</ele>
        <time>2013-08-24T08:08:22Z</time>
      </trkpt>
      <trkpt lat="43.92223" lon="7.48297">
        <ele>928</ele>
        <time>2013-08-24T08:08:31Z</time>
      </trkpt>
      <trkpt lat="43.92228" lon="7.48307">
        <ele>928</ele>
        <time>2013-08-24T08:08:40Z</time>
      </trkpt>
      <trkpt lat="43.92235" lon="7.48317">
        <ele>928</ele>
        <time>2013-08-24T08:08:50Z</time>
      </trkpt>
      <trkpt lat="43.9224" lon="7.48329">
        <ele>928</ele>
        <time>2013-08-24T08:08:58Z</time>
      </trkpt>
      <trkpt lat="43.92245" lon="7.4834">
        <ele>928</ele>
        <time>2013-08-24T08:09:06Z</time>
      </trkpt>
      <trkpt lat="43.92249" lon="7.48352">
        <ele>928</ele>
        <time>2013-08-24T08:09:15Z</time>
      </trkpt>
      <trkpt lat="43.92251" lon="7.48365">
        <ele>928</ele>
        <time>2013-08-24T08:09:23Z</time>
      </trkpt>
      <trkpt lat="43.92253" lon="7.48378">
        <ele>928</ele>
        <time>2013-08-24T08:09:32Z</time>
      </trkpt>
      <trkpt lat="43.92253" lon="7.48392">
        <ele>928</ele>
        <time>2013-08-24T08:09:40Z</time>
      </trkpt>
      <trkpt lat="43.92256" lon="7.48404">
        <ele>928</ele>
        <time>2013-08-24T08:09:47Z</time>
      </trkpt>
      <trkpt lat="43.92258" lon="7.48416">
        <ele>928</ele>
        <time>2013-08-24T08:09:55Z</time>
      </trkpt>
      <trkpt lat="43.92259" lon="7.48429">
        <ele>928</ele>
        <time>2013-08-24T08:10:03Z</time>
      </trkpt>
      <trkpt lat="43.9226" lon="7.48442">
        <ele>928</ele>
        <time>2013-08-24T08:10:12Z</time>
      </trkpt>
      <trkpt lat="43.92259" lon="7.48455">
        <ele>928</ele>
        <time>2013-08-24T08:10:20Z</time>
      </trkpt>
      <trkpt lat="43.9226" lon="7.48468">
        <ele>928</ele>
        <time>2013-08-24T08:10:28Z</time>
      </trkpt>
      <trkpt lat="43.92265" lon="7.48478">
        <ele>928</ele>
        <time>2013-08-24T08:10:36Z</time>
      </trkpt>
      <trkpt lat="43.92271" lon="7.48489">
        <ele>928</ele>
        <time>2013-08-24T08:10:44Z</time>
      </trkpt>
      <trkpt lat="43.92278" lon="7.48499">
        <ele>928</ele>
        <time>2013-08-24T08:10:52Z</time>
      </trkpt>
      <trkpt lat="43.92283" lon="7.4851">
        <ele>928</ele>
        <time>2013-08-24T08:11:00Z</time>
      </trkpt>
      <trkpt lat="43.9229" lon="7.48519">
        <ele>936</ele>
        <time>2013-08-24T08:11:10Z</time>
      </trkpt>
      <trkpt lat="43.92295" lon="7.48528">
        <ele>936</ele>
        <time>2013-08-24T08:11:18Z</time>
      </trkpt>
      <trkpt lat="43.923" lon="7.4854">
        <ele>936</ele>
        <time>2013-08-24T08:11:26Z</time>
      </trkpt>
      <trkpt lat="43.92302" lon="7.48553">
        <ele>930</ele>
        <time>2013-08-24T08:11:35Z</time>
      </trkpt>
      <trkpt lat="43.92301" lon="7.48565">
        <ele>925</ele>
        <time>2013-08-24T08:11:43Z</time>
      </trkpt>
      <trkpt lat="43.92302" lon="7.48579">
        <ele>925</ele>
        <time>2013-08-24T08:11:51Z</time>
      </trkpt>
      <trkpt lat="43.92303" lon="7.48592">
        <ele>925</ele>
        <time>2013-08-24T08:12:00Z</time>
      </trkpt>
      <trkpt lat="43.92306" lon="7.48604">
        <ele>925</ele>
        <time>2013-08-24T08:12:11Z</time>
      </trkpt>
      <trkpt lat="43.92304" lon="7.48616">
        <ele>934</ele>
        <time>2013-08-24T08:13:03Z</time>
      </trkpt>
      <trkpt lat="43.92307" lon="7.48628">
        <ele>934</ele>
        <time>2013-08-24T08:13:09Z</time>
      </trkpt>
      <trkpt lat="43.92312" lon="7.48641">
        <ele>929</ele>
        <time>2013-08-24T08:13:17Z</time>
      </trkpt>
      <trkpt lat="43.92314" lon="7.48652">
        <ele>929</ele>
        <time>2013-08-24T08:13:24Z</time>
      </trkpt>
      <trkpt lat="43.92319" lon="7.48664">
        <ele>929</ele>
        <time>2013-08-24T08:13:33Z</time>
      </trkpt>
      <trkpt lat="43.92327" lon="7.48674">
        <ele>929</ele>
        <time>2013-08-24T08:13:41Z</time>
      </trkpt>
      <trkpt lat="43.92333" lon="7.48683">
        <ele>929</ele>
        <time>2013-08-24T08:13:48Z</time>
      </trkpt>
      <trkpt lat="43.9234" lon="7.48692">
        <ele>929</ele>
        <time>2013-08-24T08:13:56Z</time>
      </trkpt>
      <trkpt lat="43.92345" lon="7.48702">
        <ele>929</ele>
        <time>2013-08-24T08:14:04Z</time>
      </trkpt>
      <trkpt lat="43.92346" lon="7.48714">
        <ele>923</ele>
        <time>2013-08-24T08:14:12Z</time>
      </trkpt>
      <trkpt lat="43.92344" lon="7.48727">
        <ele>914</ele>
        <time>2013-08-24T08:14:22Z</time>
      </trkpt>
      <trkpt lat="43.92345" lon="7.4874">
        <ele>914</ele>
        <time>2013-08-24T08:14:29Z</time>
      </trkpt>
      <trkpt lat="43.92349" lon="7.48752">
        <ele>914</ele>
        <time>2013-08-24T08:14:37Z</time>
      </trkpt>
      <trkpt lat="43.92356" lon="7.48761">
        <ele>914</ele>
        <time>2013-08-24T08:14:46Z</time>
      </trkpt>
      <trkpt lat="43.92361" lon="7.48773">
        <ele>914</ele>
        <time>2013-08-24T08:14:54Z</time>
      </trkpt>
      <trkpt lat="43.92361" lon="7.48785">
        <ele>914</ele>
        <time>2013-08-24T08:15:02Z</time>
      </trkpt>
      <trkpt lat="43.92362" lon="7.48798">
        <ele>914</ele>
        <time>2013-08-24T08:15:11Z</time>
      </trkpt>
      <trkpt lat="43.92365" lon="7.4881">
        <ele>914</ele>
        <time>2013-08-24T08:15:19Z</time>
      </trkpt>
      <trkpt lat="43.92372" lon="7.4882">
        <ele>914</ele>
        <time>2013-08-24T08:15:27Z</time>
      </trkpt>
      <trkpt lat="43.92374" lon="7.48834">
        <ele>914</ele>
        <time>2013-08-24T08:15:36Z</time>
      </trkpt>
      <trkpt lat="43.92373" lon="7.48846">
        <ele>914</ele>
        <time>2013-08-24T08:15:46Z</time>
      </trkpt>
      <trkpt lat="43.92365" lon="7.48854">
        <ele>919</ele>
        <time>2013-08-24T08:15:55Z</time>
      </trkpt>
      <trkpt lat="43.92356" lon="7.48859">
        <ele>919</ele>
        <time>2013-08-24T08:16:03Z</time>
      </trkpt>
      <trkpt lat="43.92349" lon="7.48865">
        <ele>919</ele>
        <time>2013-08-24T08:16:11Z</time>
      </trkpt>
      <trkpt lat="43.9234" lon="7.48869">
        <ele>919</ele>
        <time>2013-08-24T08:16:20Z</time>
      </trkpt>
      <trkpt lat="43.92331" lon="7.48873">
        <ele>919</ele>
        <time>2013-08-24T08:16:27Z</time>
      </trkpt>
      <trkpt lat="43.92323" lon="7.48867">
        <ele>914</ele>
        <time>2013-08-24T08:16:33Z</time>
      </trkpt>
      <trkpt lat="43.92315" lon="7.48872">
        <ele>914</ele>
        <time>2013-08-24T08:16:40Z</time>
      </trkpt>
      <trkpt lat="43.92306" lon="7.48876">
        <ele>914</ele>
        <time>2013-08-24T08:16:48Z</time>
      </trkpt>
      <trkpt lat="43.92297" lon="7.48874">
        <ele>914</ele>
        <time>2013-08-24T08:16:56Z</time>
      </trkpt>
      <trkpt lat="43.92287" lon="7.48877">
        <ele>914</ele>
        <time>2013-08-24T08:17:05Z</time>
      </trkpt>
      <trkpt lat="43.92278" lon="7.48881">
        <ele>914</ele>
        <time>2013-08-24T08:17:13Z</time>
      </trkpt>
      <trkpt lat="43.92268" lon="7.48879">
        <ele>914</ele>
        <time>2013-08-24T08:17:21Z</time>
      </trkpt>
      <trkpt lat="43.92258" lon="7.48878">
        <ele>914</ele>
        <time>2013-08-24T08:17:29Z</time>
      </trkpt>
      <trkpt lat="43.92249" lon="7.48878">
        <ele>914</ele>
        <time>2013-08-24T08:17:37Z</time>
      </trkpt>
      <trkpt lat="43.9224" lon="7.4888">
        <ele>906</ele>
        <time>2013-08-24T08:17:46Z</time>
      </trkpt>
      <trkpt lat="43.92231" lon="7.48876">
        <ele>906</ele>
        <time>2013-08-24T08:17:53Z</time>
      </trkpt>
      <trkpt lat="43.92223" lon="7.4887">
        <ele>906</ele>
        <time>2013-08-24T08:17:59Z</time>
      </trkpt>
      <trkpt lat="43.92215" lon="7.48866">
        <ele>906</ele>
        <time>2013-08-24T08:18:08Z</time>
      </trkpt>
      <trkpt lat="43.92206" lon="7.48861">
        <ele>906</ele>
        <time>2013-08-24T08:18:16Z</time>
      </trkpt>
      <trkpt lat="43.92198" lon="7.48857">
        <ele>906</ele>
        <time>2013-08-24T08:18:25Z</time>
      </trkpt>
      <trkpt lat="43.92188" lon="7.48856">
        <ele>898</ele>
        <time>2013-08-24T08:18:34Z</time>
      </trkpt>
      <trkpt lat="43.92181" lon="7.4885">
        <ele>898</ele>
        <time>2013-08-24T08:18:41Z</time>
      </trkpt>
      <trkpt lat="43.92172" lon="7.48842">
        <ele>898</ele>
        <time>2013-08-24T08:18:50Z</time>
      </trkpt>
      <trkpt lat="43.92164" lon="7.48835">
        <ele>898</ele>
        <time>2013-08-24T08:18:57Z</time>
      </trkpt>
      <trkpt lat="43.92156" lon="7.48828">
        <ele>898</ele>
        <time>2013-08-24T08:19:03Z</time>
      </trkpt>
      <trkpt lat="43.92147" lon="7.48821">
        <ele>906</ele>
        <time>2013-08-24T08:19:11Z</time>
      </trkpt>
      <trkpt lat="43.92138" lon="7.4882">
        <ele>906</ele>
        <time>2013-08-24T08:19:19Z</time>
      </trkpt>
      <trkpt lat="43.92129" lon="7.48816">
        <ele>906</ele>
        <time>2013-08-24T08:19:26Z</time>
      </trkpt>
      <trkpt lat="43.9212" lon="7.48809">
        <ele>906</ele>
        <time>2013-08-24T08:19:34Z</time>
      </trkpt>
      <trkpt lat="43.92112" lon="7.48802">
        <ele>906</ele>
        <time>2013-08-24T08:19:40Z</time>
      </trkpt>
      <trkpt lat="43.92103" lon="7.48799">
        <ele>906</ele>
        <time>2013-08-24T08:19:49Z</time>
      </trkpt>
      <trkpt lat="43.92095" lon="7.48795">
        <ele>900</ele>
        <time>2013-08-24T08:19:57Z</time>
      </trkpt>
      <trkpt lat="43.92086" lon="7.48792">
        <ele>900</ele>
        <time>2013-08-24T08:20:04Z</time>
      </trkpt>
      <trkpt lat="43.92081" lon="7.48782">
        <ele>900</ele>
        <time>2013-08-24T08:20:10Z</time>
      </trkpt>
      <trkpt lat="43.92071" lon="7.48778">
        <ele>900</ele>
        <time>2013-08-24T08:20:19Z</time>
      </trkpt>
      <trkpt lat="43.92063" lon="7.48775">
        <ele>900</ele>
        <time>2013-08-24T08:20:26Z</time>
      </trkpt>
      <trkpt lat="43.92055" lon="7.48771">
        <ele>893</ele>
        <time>2013-08-24T08:20:35Z</time>
      </trkpt>
      <trkpt lat="43.92047" lon="7.48765">
        <ele>893</ele>
        <time>2013-08-24T08:20:46Z</time>
      </trkpt>
      <trkpt lat="43.92038" lon="7.48758">
        <ele>893</ele>
        <time>2013-08-24T08:20:53Z</time>
      </trkpt>
      <trkpt lat="43.9203" lon="7.48753">
        <ele>893</ele>
        <time>2013-08-24T08:20:59Z</time>
      </trkpt>
      <trkpt lat="43.92021" lon="7.48748">
        <ele>893</ele>
        <time>2013-08-24T08:21:05Z</time>
      </trkpt>
      <trkpt lat="43.92012" lon="7.48746">
        <ele>886</ele>
        <time>2013-08-24T08:21:14Z</time>
      </trkpt>
      <trkpt lat="43.92003" lon="7.4874">
        <ele>886</ele>
        <time>2013-08-24T08:21:20Z</time>
      </trkpt>
      <trkpt lat="43.91993" lon="7.48738">
        <ele>886</ele>
        <time>2013-08-24T08:21:27Z</time>
      </trkpt>
      <trkpt lat="43.91984" lon="7.4874">
        <ele>886</ele>
        <time>2013-08-24T08:21:34Z</time>
      </trkpt>
      <trkpt lat="43.91977" lon="7.48747">
        <ele>886</ele>
        <time>2013-08-24T08:21:41Z</time>
      </trkpt>
      <trkpt lat="43.9197" lon="7.48757">
        <ele>886</ele>
        <time>2013-08-24T08:21:48Z</time>
      </trkpt>
      <trkpt lat="43.91966" lon="7.48768">
        <ele>886</ele>
        <time>2013-08-24T08:21:55Z</time>
      </trkpt>
      <trkpt lat="43.91965" lon="7.48782">
        <ele>886</ele>
        <time>2013-08-24T08:22:03Z</time>
      </trkpt>
      <trkpt lat="43.91967" lon="7.48795">
        <ele>886</ele>
        <time>2013-08-24T08:22:09Z</time>
      </trkpt>
      <trkpt lat="43.91969" lon="7.48809">
        <ele>886</ele>
        <time>2013-08-24T08:22:17Z</time>
      </trkpt>
      <trkpt lat="43.91973" lon="7.4882">
        <ele>886</ele>
        <time>2013-08-24T08:22:25Z</time>
      </trkpt>
      <trkpt lat="43.91975" lon="7.48833">
        <ele>886</ele>
        <time>2013-08-24T08:22:33Z</time>
      </trkpt>
      <trkpt lat="43.91975" lon="7.48846">
        <ele>886</ele>
        <time>2013-08-24T08:22:43Z</time>
      </trkpt>
      <trkpt lat="43.91978" lon="7.48858">
        <ele>886</ele>
        <time>2013-08-24T08:22:49Z</time>
      </trkpt>
      <trkpt lat="43.9198" lon="7.48871">
        <ele>886</ele>
        <time>2013-08-24T08:22:57Z</time>
      </trkpt>
      <trkpt lat="43.91982" lon="7.48883">
        <ele>881</ele>
        <time>2013-08-24T08:23:05Z</time>
      </trkpt>
      <trkpt lat="43.91976" lon="7.48893">
        <ele>881</ele>
        <time>2013-08-24T08:23:13Z</time>
      </trkpt>
      <trkpt lat="43.91969" lon="7.48901">
        <ele>881</ele>
        <time>2013-08-24T08:23:23Z</time>
      </trkpt>
      <trkpt lat="43.91961" lon="7.48909">
        <ele>875</ele>
        <time>2013-08-24T08:23:31Z</time>
      </trkpt>
      <trkpt lat="43.91953" lon="7.48916">
        <ele>875</ele>
        <time>2013-08-24T08:23:40Z</time>
      </trkpt>
      <trkpt lat="43.91943" lon="7.4892">
        <ele>875</ele>
        <time>2013-08-24T08:23:48Z</time>
      </trkpt>
      <trkpt lat="43.91934" lon="7.48925">
        <ele>875</ele>
        <time>2013-08-24T08:23:57Z</time>
      </trkpt>
      <trkpt lat="43.91925" lon="7.48927">
        <ele>875</ele>
        <time>2013-08-24T08:24:04Z</time>
      </trkpt>
      <trkpt lat="43.91917" lon="7.48933">
        <ele>875</ele>
        <time>2013-08-24T08:24:11Z</time>
      </trkpt>
      <trkpt lat="43.91908" lon="7.48939">
        <ele>875</ele>
        <time>2013-08-24T08:24:19Z</time>
      </trkpt>
      <trkpt lat="43.91901" lon="7.48949">
        <ele>869</ele>
        <time>2013-08-24T08:24:27Z</time>
      </trkpt>
      <trkpt lat="43.91896" lon="7.48961">
        <ele>869</ele>
        <time>2013-08-24T08:24:35Z</time>
      </trkpt>
      <trkpt lat="43.9189" lon="7.4897">
        <ele>869</ele>
        <time>2013-08-24T08:24:43Z</time>
      </trkpt>
      <trkpt lat="43.91882" lon="7.48976">
        <ele>864</ele>
        <time>2013-08-24T08:24:50Z</time>
      </trkpt>
      <trkpt lat="43.91874" lon="7.48982">
        <ele>864</ele>
        <time>2013-08-24T08:24:58Z</time>
      </trkpt>
      <trkpt lat="43.91864" lon="7.48985">
        <ele>864</ele>
        <time>2013-08-24T08:25:06Z</time>
      </trkpt>
      <trkpt lat="43.91855" lon="7.48987">
        <ele>864</ele>
        <time>2013-08-24T08:25:14Z</time>
      </trkpt>
      <trkpt lat="43.91847" lon="7.48991">
        <ele>864</ele>
        <time>2013-08-24T08:25:21Z</time>
      </trkpt>
      <trkpt lat="43.91838" lon="7.48996">
        <ele>864</ele>
        <time>2013-08-24T08:25:29Z</time>
      </trkpt>
      <trkpt lat="43.91829" lon="7.48999">
        <ele>864</ele>
        <time>2013-08-24T08:25:37Z</time>
      </trkpt>
      <trkpt lat="43.91819" lon="7.49">
        <ele>864</ele>
        <time>2013-08-24T08:25:45Z</time>
      </trkpt>
      <trkpt lat="43.9181" lon="7.49001">
        <ele>864</ele>
        <time>2013-08-24T08:25:53Z</time>
      </trkpt>
      <trkpt lat="43.91801" lon="7.48996">
        <ele>864</ele>
        <time>2013-08-24T08:26:00Z</time>
      </trkpt>
      <trkpt lat="43.91792" lon="7.48996">
        <ele>864</ele>
        <time>2013-08-24T08:26:08Z</time>
      </trkpt>
      <trkpt lat="43.91783" lon="7.48994">
        <ele>864</ele>
        <time>2013-08-24T08:26:15Z</time>
      </trkpt>
      <trkpt lat="43.91774" lon="7.48995">
        <ele>864</ele>
        <time>2013-08-24T08:26:23Z</time>
      </trkpt>
      <trkpt lat="43.91764" lon="7.48993">
        <ele>864</ele>
        <time>2013-08-24T08:26:31Z</time>
      </trkpt>
      <trkpt lat="43.91755" lon="7.48994">
        <ele>864</ele>
        <time>2013-08-24T08:26:38Z</time>
      </trkpt>
      <trkpt lat="43.91747" lon="7.48998">
        <ele>864</ele>
        <time>2013-08-24T08:26:45Z</time>
      </trkpt>
      <trkpt lat="43.91739" lon="7.49005">
        <ele>864</ele>
        <time>2013-08-24T08:26:52Z</time>
      </trkpt>
      <trkpt lat="43.91732" lon="7.49016">
        <ele>858</ele>
        <time>2013-08-24T08:27:00Z</time>
      </trkpt>
      <trkpt lat="43.91729" lon="7.49028">
        <ele>858</ele>
        <time>2013-08-24T08:27:08Z</time>
      </trkpt>
      <trkpt lat="43.91727" lon="7.4904">
        <ele>852</ele>
        <time>2013-08-24T08:27:16Z</time>
      </trkpt>
      <trkpt lat="43.91729" lon="7.49054">
        <ele>852</ele>
        <time>2013-08-24T08:27:24Z</time>
      </trkpt>
      <trkpt lat="43.91731" lon="7.49067">
        <ele>852</ele>
        <time>2013-08-24T08:27:32Z</time>
      </trkpt>
      <trkpt lat="43.91733" lon="7.4908">
        <ele>852</ele>
        <time>2013-08-24T08:27:40Z</time>
      </trkpt>
      <trkpt lat="43.91737" lon="7.49092">
        <ele>852</ele>
        <time>2013-08-24T08:27:48Z</time>
      </trkpt>
      <trkpt lat="43.9174" lon="7.49105">
        <ele>852</ele>
        <time>2013-08-24T08:27:56Z</time>
      </trkpt>
      <trkpt lat="43.91745" lon="7.49117">
        <ele>852</ele>
        <time>2013-08-24T08:28:04Z</time>
      </trkpt>
      <trkpt lat="43.91753" lon="7.49125">
        <ele>852</ele>
        <time>2013-08-24T08:28:12Z</time>
      </trkpt>
      <trkpt lat="43.91762" lon="7.49128">
        <ele>852</ele>
        <time>2013-08-24T08:28:20Z</time>
      </trkpt>
      <trkpt lat="43.91771" lon="7.49129">
        <ele>852</ele>
        <time>2013-08-24T08:28:28Z</time>
      </trkpt>
      <trkpt lat="43.91779" lon="7.49133">
        <ele>852</ele>
        <time>2013-08-24T08:28:36Z</time>
      </trkpt>
      <trkpt lat="43.91788" lon="7.49137">
        <ele>852</ele>
        <time>2013-08-24T08:28:45Z</time>
      </trkpt>
      <trkpt lat="43.91798" lon="7.49139">
        <ele>852</ele>
        <time>2013-08-24T08:28:54Z</time>
      </trkpt>
      <trkpt lat="43.91807" lon="7.49141">
        <ele>852</ele>
        <time>2013-08-24T08:29:02Z</time>
      </trkpt>
      <trkpt lat="43.91816" lon="7.49148">
        <ele>845</ele>
        <time>2013-08-24T08:29:10Z</time>
      </trkpt>
      <trkpt lat="43.91821" lon="7.49158">
        <ele>845</ele>
        <time>2013-08-24T08:29:18Z</time>
      </trkpt>
      <trkpt lat="43.91828" lon="7.49165">
        <ele>845</ele>
        <time>2013-08-24T08:29:25Z</time>
      </trkpt>
      <trkpt lat="43.91837" lon="7.49171">
        <ele>845</ele>
        <time>2013-08-24T08:29:33Z</time>
      </trkpt>
      <trkpt lat="43.91845" lon="7.49176">
        <ele>837</ele>
        <time>2013-08-24T08:29:41Z</time>
      </trkpt>
      <trkpt lat="43.91854" lon="7.49181">
        <ele>837</ele>
        <time>2013-08-24T08:29:49Z</time>
      </trkpt>
      <trkpt lat="43.91845" lon="7.49185">
        <ele>837</ele>
        <time>2013-08-24T08:30:07Z</time>
      </trkpt>
      <trkpt lat="43.91837" lon="7.49182">
        <ele>837</ele>
        <time>2013-08-24T08:30:48Z</time>
      </trkpt>
      <trkpt lat="43.91827" lon="7.49181">
        <ele>831</ele>
        <time>2013-08-24T08:30:56Z</time>
      </trkpt>
      <trkpt lat="43.91818" lon="7.49181">
        <ele>831</ele>
        <time>2013-08-24T08:31:05Z</time>
      </trkpt>
      <trkpt lat="43.91809" lon="7.49182">
        <ele>831</ele>
        <time>2013-08-24T08:31:13Z</time>
      </trkpt>
      <trkpt lat="43.918" lon="7.49184">
        <ele>831</ele>
        <time>2013-08-24T08:31:21Z</time>
      </trkpt>
      <trkpt lat="43.91791" lon="7.49188">
        <ele>826</ele>
        <time>2013-08-24T08:31:29Z</time>
      </trkpt>
      <trkpt lat="43.91782" lon="7.49192">
        <ele>826</ele>
        <time>2013-08-24T08:31:37Z</time>
      </trkpt>
      <trkpt lat="43.91772" lon="7.49194">
        <ele>826</ele>
        <time>2013-08-24T08:31:46Z</time>
      </trkpt>
      <trkpt lat="43.91763" lon="7.49196">
        <ele>820</ele>
        <time>2013-08-24T08:31:54Z</time>
      </trkpt>
      <trkpt lat="43.91753" lon="7.49197">
        <ele>820</ele>
        <time>2013-08-24T08:32:03Z</time>
      </trkpt>
      <trkpt lat="43.91743" lon="7.49197">
        <ele>825</ele>
        <time>2013-08-24T08:32:11Z</time>
      </trkpt>
      <trkpt lat="43.91734" lon="7.49204">
        <ele>825</ele>
        <time>2013-08-24T08:32:21Z</time>
      </trkpt>
      <trkpt lat="43.91727" lon="7.49214">
        <ele>819</ele>
        <time>2013-08-24T08:32:30Z</time>
      </trkpt>
      <trkpt lat="43.91719" lon="7.4922">
        <ele>819</ele>
        <time>2013-08-24T08:32:38Z</time>
      </trkpt>
      <trkpt lat="43.91712" lon="7.49228">
        <ele>819</ele>
        <time>2013-08-24T08:32:45Z</time>
      </trkpt>
      <trkpt lat="43.91703" lon="7.49232">
        <ele>814</ele>
        <time>2013-08-24T08:32:52Z</time>
      </trkpt>
      <trkpt lat="43.91695" lon="7.49239">
        <ele>814</ele>
        <time>2013-08-24T08:33:00Z</time>
      </trkpt>
      <trkpt lat="43.91688" lon="7.49246">
        <ele>814</ele>
        <time>2013-08-24T08:33:08Z</time>
      </trkpt>
      <trkpt lat="43.91679" lon="7.4925">
        <ele>814</ele>
        <time>2013-08-24T08:33:16Z</time>
      </trkpt>
      <trkpt lat="43.91669" lon="7.49252">
        <ele>814</ele>
        <time>2013-08-24T08:33:24Z</time>
      </trkpt>
      <trkpt lat="43.91659" lon="7.49255">
        <ele>814</ele>
        <time>2013-08-24T08:33:32Z</time>
      </trkpt>
      <trkpt lat="43.9165" lon="7.49258">
        <ele>814</ele>
        <time>2013-08-24T08:33:40Z</time>
      </trkpt>
      <trkpt lat="43.9164" lon="7.49259">
        <ele>814</ele>
        <time>2013-08-24T08:33:48Z</time>
      </trkpt>
      <trkpt lat="43.91631" lon="7.49261">
        <ele>814</ele>
        <time>2013-08-24T08:33:56Z</time>
      </trkpt>
      <trkpt lat="43.91621" lon="7.49265">
        <ele>814</ele>
        <time>2013-08-24T08:34:04Z</time>
      </trkpt>
      <trkpt lat="43.91612" lon="7.49269">
        <ele>805</ele>
        <time>2013-08-24T08:34:13Z</time>
      </trkpt>
      <trkpt lat="43.91603" lon="7.49274">
        <ele>805</ele>
        <time>2013-08-24T08:34:22Z</time>
      </trkpt>
      <trkpt lat="43.91593" lon="7.49273">
        <ele>805</ele>
        <time>2013-08-24T08:34:30Z</time>
      </trkpt>
      <trkpt lat="43.91584" lon="7.4927">
        <ele>805</ele>
        <time>2013-08-24T08:34:37Z</time>
      </trkpt>
      <trkpt lat="43.91576" lon="7.49264">
        <ele>805</ele>
        <time>2013-08-24T08:34:44Z</time>
      </trkpt>
      <trkpt lat="43.91567" lon="7.49262">
        <ele>805</ele>
        <time>2013-08-24T08:34:52Z</time>
      </trkpt>
      <trkpt lat="43.91558" lon="7.49258">
        <ele>805</ele>
        <time>2013-08-24T08:35:00Z</time>
      </trkpt>
      <trkpt lat="43.91549" lon="7.49255">
        <ele>805</ele>
        <time>2013-08-24T08:35:09Z</time>
      </trkpt>
      <trkpt lat="43.9154" lon="7.49255">
        <ele>805</ele>
        <time>2013-08-24T08:35:17Z</time>
      </trkpt>
      <trkpt lat="43.91531" lon="7.49255">
        <ele>805</ele>
        <time>2013-08-24T08:35:25Z</time>
      </trkpt>
      <trkpt lat="43.91521" lon="7.49255">
        <ele>805</ele>
        <time>2013-08-24T08:35:33Z</time>
      </trkpt>
      <trkpt lat="43.91511" lon="7.49252">
        <ele>799</ele>
        <time>2013-08-24T08:35:42Z</time>
      </trkpt>
      <trkpt lat="43.91502" lon="7.4925">
        <ele>799</ele>
        <time>2013-08-24T08:35:49Z</time>
      </trkpt>
      <trkpt lat="43.91492" lon="7.49248">
        <ele>799</ele>
        <time>2013-08-24T08:35:57Z</time>
      </trkpt>
      <trkpt lat="43.91483" lon="7.49248">
        <ele>799</ele>
        <time>2013-08-24T08:36:05Z</time>
      </trkpt>
      <trkpt lat="43.91473" lon="7.49245">
        <ele>799</ele>
        <time>2013-08-24T08:36:13Z</time>
      </trkpt>
      <trkpt lat="43.91464" lon="7.49242">
        <ele>799</ele>
        <time>2013-08-24T08:36:20Z</time>
      </trkpt>
      <trkpt lat="43.91455" lon="7.49238">
        <ele>799</ele>
        <time>2013-08-24T08:36:29Z</time>
      </trkpt>
      <trkpt lat="43.91447" lon="7.49232">
        <ele>799</ele>
        <time>2013-08-24T08:36:37Z</time>
      </trkpt>
      <trkpt lat="43.91441" lon="7.49222">
        <ele>799</ele>
        <time>2013-08-24T08:36:46Z</time>
      </trkpt>
      <trkpt lat="43.91436" lon="7.4921">
        <ele>799</ele>
        <time>2013-08-24T08:36:58Z</time>
      </trkpt>
      <trkpt lat="43.91429" lon="7.49204">
        <ele>806</ele>
        <time>2013-08-24T08:37:04Z</time>
      </trkpt>
      <trkpt lat="43.91421" lon="7.49198">
        <ele>806</ele>
        <time>2013-08-24T08:37:09Z</time>
      </trkpt>
      <trkpt lat="43.91412" lon="7.49192">
        <ele>806</ele>
        <time>2013-08-24T08:37:17Z</time>
      </trkpt>
      <trkpt lat="43.91404" lon="7.49189">
        <ele>806</ele>
        <time>2013-08-24T08:37:25Z</time>
      </trkpt>
      <trkpt lat="43.91395" lon="7.49182">
        <ele>806</ele>
        <time>2013-08-24T08:37:32Z</time>
      </trkpt>
      <trkpt lat="43.91386" lon="7.49178">
        <ele>806</ele>
        <time>2013-08-24T08:37:40Z</time>
      </trkpt>
      <trkpt lat="43.91378" lon="7.49171">
        <ele>806</ele>
        <time>2013-08-24T08:37:47Z</time>
      </trkpt>
      <trkpt lat="43.91369" lon="7.49164">
        <ele>806</ele>
        <time>2013-08-24T08:37:56Z</time>
      </trkpt>
      <trkpt lat="43.91362" lon="7.49158">
        <ele>806</ele>
        <time>2013-08-24T08:38:03Z</time>
      </trkpt>
      <trkpt lat="43.91354" lon="7.4915">
        <ele>806</ele>
        <time>2013-08-24T08:38:10Z</time>
      </trkpt>
      <trkpt lat="43.91345" lon="7.49144">
        <ele>806</ele>
        <time>2013-08-24T08:38:19Z</time>
      </trkpt>
      <trkpt lat="43.91336" lon="7.4914">
        <ele>806</ele>
        <time>2013-08-24T08:38:27Z</time>
      </trkpt>
      <trkpt lat="43.91328" lon="7.49136">
        <ele>806</ele>
        <time>2013-08-24T08:38:35Z</time>
      </trkpt>
      <trkpt lat="43.91319" lon="7.49129">
        <ele>806</ele>
        <time>2013-08-24T08:38:43Z</time>
      </trkpt>
      <trkpt lat="43.91313" lon="7.4912">
        <ele>806</ele>
        <time>2013-08-24T08:38:49Z</time>
      </trkpt>
      <trkpt lat="43.91305" lon="7.49113">
        <ele>806</ele>
        <time>2013-08-24T08:38:58Z</time>
      </trkpt>
      <trkpt lat="43.91297" lon="7.49107">
        <ele>806</ele>
        <time>2013-08-24T08:39:05Z</time>
      </trkpt>
      <trkpt lat="43.9129" lon="7.49101">
        <ele>806</ele>
        <time>2013-08-24T08:39:12Z</time>
      </trkpt>
      <trkpt lat="43.91282" lon="7.49092">
        <ele>806</ele>
        <time>2013-08-24T08:39:21Z</time>
      </trkpt>
      <trkpt lat="43.91272" lon="7.49085">
        <ele>806</ele>
        <time>2013-08-24T08:39:29Z</time>
      </trkpt>
      <trkpt lat="43.91265" lon="7.49077">
        <ele>806</ele>
        <time>2013-08-24T08:39:36Z</time>
      </trkpt>
      <trkpt lat="43.91256" lon="7.49071">
        <ele>806</ele>
        <time>2013-08-24T08:39:45Z</time>
      </trkpt>
      <trkpt lat="43.91248" lon="7.49065">
        <ele>806</ele>
        <time>2013-08-24T08:39:52Z</time>
      </trkpt>
      <trkpt lat="43.91239" lon="7.49062">
        <ele>792</ele>
        <time>2013-08-24T08:40:03Z</time>
      </trkpt>
      <trkpt lat="43.9123" lon="7.49058">
        <ele>792</ele>
        <time>2013-08-24T08:40:09Z</time>
      </trkpt>
      <trkpt lat="43.91221" lon="7.49049">
        <ele>792</ele>
        <time>2013-08-24T08:40:15Z</time>
      </trkpt>
      <trkpt lat="43.91212" lon="7.4905">
        <ele>792</ele>
        <time>2013-08-24T08:40:28Z</time>
      </trkpt>
      <trkpt lat="43.91204" lon="7.49047">
        <ele>792</ele>
        <time>2013-08-24T08:40:33Z</time>
      </trkpt>
      <trkpt lat="43.91194" lon="7.49045">
        <ele>787</ele>
        <time>2013-08-24T08:40:41Z</time>
      </trkpt>
      <trkpt lat="43.91185" lon="7.49043">
        <ele>787</ele>
        <time>2013-08-24T08:40:49Z</time>
      </trkpt>
      <trkpt lat="43.91176" lon="7.49041">
        <ele>787</ele>
        <time>2013-08-24T08:40:57Z</time>
      </trkpt>
      <trkpt lat="43.91167" lon="7.49036">
        <ele>787</ele>
        <time>2013-08-24T08:41:05Z</time>
      </trkpt>
      <trkpt lat="43.91157" lon="7.49036">
        <ele>787</ele>
        <time>2013-08-24T08:41:13Z</time>
      </trkpt>
      <trkpt lat="43.91148" lon="7.49038">
        <ele>787</ele>
        <time>2013-08-24T08:41:20Z</time>
      </trkpt>
      <trkpt lat="43.91142" lon="7.49047">
        <ele>778</ele>
        <time>2013-08-24T08:41:27Z</time>
      </trkpt>
      <trkpt lat="43.91136" lon="7.49058">
        <ele>778</ele>
        <time>2013-08-24T08:41:34Z</time>
      </trkpt>
      <trkpt lat="43.91132" lon="7.49069">
        <ele>778</ele>
        <time>2013-08-24T08:41:40Z</time>
      </trkpt>
      <trkpt lat="43.91127" lon="7.49079">
        <ele>778</ele>
        <time>2013-08-24T08:41:47Z</time>
      </trkpt>
      <trkpt lat="43.91122" lon="7.49092">
        <ele>778</ele>
        <time>2013-08-24T08:41:57Z</time>
      </trkpt>
      <trkpt lat="43.91116" lon="7.49102">
        <ele>778</ele>
        <time>2013-08-24T08:42:05Z</time>
      </trkpt>
      <trkpt lat="43.91109" lon="7.4911">
        <ele>778</ele>
        <time>2013-08-24T08:42:14Z</time>
      </trkpt>
      <trkpt lat="43.911" lon="7.49114">
        <ele>778</ele>
        <time>2013-08-24T08:42:23Z</time>
      </trkpt>
      <trkpt lat="43.91092" lon="7.49119">
        <ele>784</ele>
        <time>2013-08-24T08:42:32Z</time>
      </trkpt>
      <trkpt lat="43.91083" lon="7.49126">
        <ele>778</ele>
        <time>2013-08-24T08:42:40Z</time>
      </trkpt>
      <trkpt lat="43.91074" lon="7.49129">
        <ele>778</ele>
        <time>2013-08-24T08:42:46Z</time>
      </trkpt>
      <trkpt lat="43.91066" lon="7.49132">
        <ele>778</ele>
        <time>2013-08-24T08:42:52Z</time>
      </trkpt>
      <trkpt lat="43.9106" lon="7.49143">
        <ele>770</ele>
        <time>2013-08-24T08:42:59Z</time>
      </trkpt>
      <trkpt lat="43.91057" lon="7.49155">
        <ele>763</ele>
        <time>2013-08-24T08:43:05Z</time>
      </trkpt>
      <trkpt lat="43.91053" lon="7.49168">
        <ele>763</ele>
        <time>2013-08-24T08:43:14Z</time>
      </trkpt>
      <trkpt lat="43.91053" lon="7.49182">
        <ele>763</ele>
        <time>2013-08-24T08:43:22Z</time>
      </trkpt>
      <trkpt lat="43.91053" lon="7.49196">
        <ele>763</ele>
        <time>2013-08-24T08:43:30Z</time>
      </trkpt>
      <trkpt lat="43.91054" lon="7.49209">
        <ele>763</ele>
        <time>2013-08-24T08:43:39Z</time>
      </trkpt>
      <trkpt lat="43.91055" lon="7.49222">
        <ele>763</ele>
        <time>2013-08-24T08:43:46Z</time>
      </trkpt>
      <trkpt lat="43.91054" lon="7.49235">
        <ele>772</ele>
        <time>2013-08-24T08:43:54Z</time>
      </trkpt>
      <trkpt lat="43.91058" lon="7.49248">
        <ele>772</ele>
        <time>2013-08-24T08:44:01Z</time>
      </trkpt>
      <trkpt lat="43.91066" lon="7.49257">
        <ele>766</ele>
        <time>2013-08-24T08:44:09Z</time>
      </trkpt>
      <trkpt lat="43.91068" lon="7.4927">
        <ele>766</ele>
        <time>2013-08-24T08:44:17Z</time>
      </trkpt>
      <trkpt lat="43.91074" lon="7.49279">
        <ele>766</ele>
        <time>2013-08-24T08:44:24Z</time>
      </trkpt>
      <trkpt lat="43.9108" lon="7.49289">
        <ele>766</ele>
        <time>2013-08-24T08:44:32Z</time>
      </trkpt>
      <trkpt lat="43.91086" lon="7.49299">
        <ele>766</ele>
        <time>2013-08-24T08:44:41Z</time>
      </trkpt>
      <trkpt lat="43.91088" lon="7.49312">
        <ele>759</ele>
        <time>2013-08-24T08:44:51Z</time>
      </trkpt>
      <trkpt lat="43.91087" lon="7.49325">
        <ele>759</ele>
        <time>2013-08-24T08:44:58Z</time>
      </trkpt>
      <trkpt lat="43.91082" lon="7.49337">
        <ele>759</ele>
        <time>2013-08-24T08:45:07Z</time>
      </trkpt>
      <trkpt lat="43.91073" lon="7.49341">
        <ele>759</ele>
        <time>2013-08-24T08:45:17Z</time>
      </trkpt>
      <trkpt lat="43.91064" lon="7.49342">
        <ele>759</ele>
        <time>2013-08-24T08:45:24Z</time>
      </trkpt>
      <trkpt lat="43.91055" lon="7.49341">
        <ele>759</ele>
        <time>2013-08-24T08:45:30Z</time>
      </trkpt>
      <trkpt lat="43.91045" lon="7.49341">
        <ele>759</ele>
        <time>2013-08-24T08:45:38Z</time>
      </trkpt>
      <trkpt lat="43.91035" lon="7.49341">
        <ele>759</ele>
        <time>2013-08-24T08:45:45Z</time>
      </trkpt>
      <trkpt lat="43.91026" lon="7.49342">
        <ele>759</ele>
        <time>2013-08-24T08:45:52Z</time>
      </trkpt>
      <trkpt lat="43.91017" lon="7.49341">
        <ele>765</ele>
        <time>2013-08-24T08:45:59Z</time>
      </trkpt>
      <trkpt lat="43.91008" lon="7.49343">
        <ele>765</ele>
        <time>2013-08-24T08:46:06Z</time>
      </trkpt>
      <trkpt lat="43.90999" lon="7.49348">
        <ele>765</ele>
        <time>2013-08-24T08:46:13Z</time>
      </trkpt>
      <trkpt lat="43.90991" lon="7.49354">
        <ele>758</ele>
        <time>2013-08-24T08:46:21Z</time>
      </trkpt>
      <trkpt lat="43.90982" lon="7.49358">
        <ele>746</ele>
        <time>2013-08-24T08:46:32Z</time>
      </trkpt>
      <trkpt lat="43.90973" lon="7.4936">
        <ele>746</ele>
        <time>2013-08-24T08:46:41Z</time>
      </trkpt>
      <trkpt lat="43.90964" lon="7.49361">
        <ele>746</ele>
        <time>2013-08-24T08:46:50Z</time>
      </trkpt>
      <trkpt lat="43.90954" lon="7.4936">
        <ele>746</ele>
        <time>2013-08-24T08:46:56Z</time>
      </trkpt>
      <trkpt lat="43.90945" lon="7.49358">
        <ele>746</ele>
        <time>2013-08-24T08:47:06Z</time>
      </trkpt>
      <trkpt lat="43.90938" lon="7.49352">
        <ele>746</ele>
        <time>2013-08-24T08:47:14Z</time>
      </trkpt>
      <trkpt lat="43.90934" lon="7.49341">
        <ele>746</ele>
        <time>2013-08-24T08:47:25Z</time>
      </trkpt>
      <trkpt lat="43.90935" lon="7.49327">
        <ele>746</ele>
        <time>2013-08-24T08:47:36Z</time>
      </trkpt>
      <trkpt lat="43.90931" lon="7.49315">
        <ele>746</ele>
        <time>2013-08-24T08:48:07Z</time>
      </trkpt>
      <trkpt lat="43.90927" lon="7.49304">
        <ele>746</ele>
        <time>2013-08-24T08:50:45Z</time>
      </trkpt>
      <trkpt lat="43.90923" lon="7.49291">
        <ele>746</ele>
        <time>2013-08-24T08:50:58Z</time>
      </trkpt>
      <trkpt lat="43.90923" lon="7.49279">
        <ele>746</ele>
        <time>2013-08-24T08:51:08Z</time>
      </trkpt>
      <trkpt lat="43.90919" lon="7.49267">
        <ele>753</ele>
        <time>2013-08-24T08:51:20Z</time>
      </trkpt>
      <trkpt lat="43.90912" lon="7.49256">
        <ele>753</ele>
        <time>2013-08-24T08:51:29Z</time>
      </trkpt>
      <trkpt lat="43.90906" lon="7.49245">
        <ele>753</ele>
        <time>2013-08-24T08:51:37Z</time>
      </trkpt>
      <trkpt lat="43.90899" lon="7.49236">
        <ele>753</ele>
        <time>2013-08-24T08:51:43Z</time>
      </trkpt>
      <trkpt lat="43.90897" lon="7.49225">
        <ele>753</ele>
        <time>2013-08-24T08:51:52Z</time>
      </trkpt>
      <trkpt lat="43.90891" lon="7.49213">
        <ele>753</ele>
        <time>2013-08-24T08:52:01Z</time>
      </trkpt>
      <trkpt lat="43.90889" lon="7.492">
        <ele>753</ele>
        <time>2013-08-24T08:52:12Z</time>
      </trkpt>
      <trkpt lat="43.90888" lon="7.49188">
        <ele>753</ele>
        <time>2013-08-24T08:52:21Z</time>
      </trkpt>
      <trkpt lat="43.90882" lon="7.49177">
        <ele>753</ele>
        <time>2013-08-24T08:52:30Z</time>
      </trkpt>
      <trkpt lat="43.90879" lon="7.49165">
        <ele>753</ele>
        <time>2013-08-24T08:52:39Z</time>
      </trkpt>
      <trkpt lat="43.90874" lon="7.49155">
        <ele>753</ele>
        <time>2013-08-24T08:52:46Z</time>
      </trkpt>
      <trkpt lat="43.90867" lon="7.49146">
        <ele>753</ele>
        <time>2013-08-24T08:52:53Z</time>
      </trkpt>
      <trkpt lat="43.90864" lon="7.49135">
        <ele>753</ele>
        <time>2013-08-24T08:53:02Z</time>
      </trkpt>
      <trkpt lat="43.90856" lon="7.49126">
        <ele>753</ele>
        <time>2013-08-24T08:53:09Z</time>
      </trkpt>
      <trkpt lat="43.90849" lon="7.49118">
        <ele>753</ele>
        <time>2013-08-24T08:53:15Z</time>
      </trkpt>
      <trkpt lat="43.90841" lon="7.4911">
        <ele>753</ele>
        <time>2013-08-24T08:53:22Z</time>
      </trkpt>
      <trkpt lat="43.90834" lon="7.491">
        <ele>753</ele>
        <time>2013-08-24T08:53:31Z</time>
      </trkpt>
      <trkpt lat="43.90828" lon="7.49091">
        <ele>753</ele>
        <time>2013-08-24T08:53:39Z</time>
      </trkpt>
      <trkpt lat="43.9082" lon="7.491">
        <ele>747</ele>
        <time>2013-08-24T08:53:55Z</time>
      </trkpt>
      <trkpt lat="43.90811" lon="7.49095">
        <ele>747</ele>
        <time>2013-08-24T08:54:09Z</time>
      </trkpt>
      <trkpt lat="43.90809" lon="7.49082">
        <ele>747</ele>
        <time>2013-08-24T08:54:21Z</time>
      </trkpt>
      <trkpt lat="43.90806" lon="7.4907">
        <ele>753</ele>
        <time>2013-08-24T08:54:30Z</time>
      </trkpt>
      <trkpt lat="43.90805" lon="7.49058">
        <ele>753</ele>
        <time>2013-08-24T08:54:37Z</time>
      </trkpt>
      <trkpt lat="43.90801" lon="7.49046">
        <ele>753</ele>
        <time>2013-08-24T08:54:47Z</time>
      </trkpt>
      <trkpt lat="43.90795" lon="7.49037">
        <ele>744</ele>
        <time>2013-08-24T08:54:53Z</time>
      </trkpt>
      <trkpt lat="43.90789" lon="7.49027">
        <ele>744</ele>
        <time>2013-08-24T08:55:04Z</time>
      </trkpt>
      <trkpt lat="43.90785" lon="7.49015">
        <ele>739</ele>
        <time>2013-08-24T08:55:14Z</time>
      </trkpt>
      <trkpt lat="43.90782" lon="7.49004">
        <ele>739</ele>
        <time>2013-08-24T08:55:22Z</time>
      </trkpt>
      <trkpt lat="43.90777" lon="7.48993">
        <ele>739</ele>
        <time>2013-08-24T08:55:33Z</time>
      </trkpt>
      <trkpt lat="43.90773" lon="7.48982">
        <ele>739</ele>
        <time>2013-08-24T08:55:41Z</time>
      </trkpt>
      <trkpt lat="43.90773" lon="7.4897">
        <ele>739</ele>
        <time>2013-08-24T08:55:51Z</time>
      </trkpt>
      <trkpt lat="43.9077" lon="7.48958">
        <ele>734</ele>
        <time>2013-08-24T08:55:59Z</time>
      </trkpt>
      <trkpt lat="43.90765" lon="7.48947">
        <ele>734</ele>
        <time>2013-08-24T08:56:06Z</time>
      </trkpt>
      <trkpt lat="43.90767" lon="7.48934">
        <ele>734</ele>
        <time>2013-08-24T08:56:17Z</time>
      </trkpt>
      <trkpt lat="43.90764" lon="7.4892">
        <ele>734</ele>
        <time>2013-08-24T08:56:25Z</time>
      </trkpt>
      <trkpt lat="43.90767" lon="7.48908">
        <ele>726</ele>
        <time>2013-08-24T08:56:32Z</time>
      </trkpt>
      <trkpt lat="43.90767" lon="7.48894">
        <ele>726</ele>
        <time>2013-08-24T08:56:45Z</time>
      </trkpt>
      <trkpt lat="43.90764" lon="7.48882">
        <ele>726</ele>
        <time>2013-08-24T08:56:53Z</time>
      </trkpt>
      <trkpt lat="43.90767" lon="7.4887">
        <ele>726</ele>
        <time>2013-08-24T08:57:02Z</time>
      </trkpt>
      <trkpt lat="43.90769" lon="7.48857">
        <ele>726</ele>
        <time>2013-08-24T08:57:11Z</time>
      </trkpt>
      <trkpt lat="43.90772" lon="7.48845">
        <ele>726</ele>
        <time>2013-08-24T08:57:19Z</time>
      </trkpt>
      <trkpt lat="43.90772" lon="7.48831">
        <ele>726</ele>
        <time>2013-08-24T08:57:27Z</time>
      </trkpt>
      <trkpt lat="43.9077" lon="7.48819">
        <ele>726</ele>
        <time>2013-08-24T08:57:34Z</time>
      </trkpt>
      <trkpt lat="43.90771" lon="7.48805">
        <ele>726</ele>
        <time>2013-08-24T08:57:43Z</time>
      </trkpt>
      <trkpt lat="43.90771" lon="7.48793">
        <ele>726</ele>
        <time>2013-08-24T08:57:51Z</time>
      </trkpt>
      <trkpt lat="43.90767" lon="7.4878">
        <ele>726</ele>
        <time>2013-08-24T08:57:59Z</time>
      </trkpt>
      <trkpt lat="43.90767" lon="7.48767">
        <ele>726</ele>
        <time>2013-08-24T08:58:07Z</time>
      </trkpt>
      <trkpt lat="43.90769" lon="7.48753">
        <ele>726</ele>
        <time>2013-08-24T08:58:15Z</time>
      </trkpt>
      <trkpt lat="43.90766" lon="7.4874">
        <ele>726</ele>
        <time>2013-08-24T08:58:24Z</time>
      </trkpt>
      <trkpt lat="43.90771" lon="7.4873">
        <ele>726</ele>
        <time>2013-08-24T08:58:32Z</time>
      </trkpt>
      <trkpt lat="43.90779" lon="7.48722">
        <ele>726</ele>
        <time>2013-08-24T08:58:49Z</time>
      </trkpt>
      <trkpt lat="43.90789" lon="7.48723">
        <ele>726</ele>
        <time>2013-08-24T08:59:05Z</time>
      </trkpt>
      <trkpt lat="43.90797" lon="7.48715">
        <ele>720</ele>
        <time>2013-08-24T08:59:17Z</time>
      </trkpt>
      <trkpt lat="43.90806" lon="7.48722">
        <ele>720</ele>
        <time>2013-08-24T08:59:42Z</time>
      </trkpt>
      <trkpt lat="43.90814" lon="7.48716">
        <ele>720</ele>
        <time>2013-08-24T08:59:56Z</time>
      </trkpt>
      <trkpt lat="43.90822" lon="7.48722">
        <ele>733</ele>
        <time>2013-08-24T09:00:18Z</time>
      </trkpt>
      <trkpt lat="43.90831" lon="7.48728">
        <ele>723</ele>
        <time>2013-08-24T09:00:26Z</time>
      </trkpt>
      <trkpt lat="43.9084" lon="7.48736">
        <ele>708</ele>
        <time>2013-08-24T09:00:34Z</time>
      </trkpt>
      <trkpt lat="43.90851" lon="7.4874">
        <ele>693</ele>
        <time>2013-08-24T09:00:40Z</time>
      </trkpt>
      <trkpt lat="43.90859" lon="7.48748">
        <ele>678</ele>
        <time>2013-08-24T09:00:51Z</time>
      </trkpt>
      <trkpt lat="43.90868" lon="7.48743">
        <ele>678</ele>
        <time>2013-08-24T09:00:58Z</time>
      </trkpt>
      <trkpt lat="43.90873" lon="7.48753">
        <ele>678</ele>
        <time>2013-08-24T09:01:06Z</time>
      </trkpt>
      <trkpt lat="43.90882" lon="7.48759">
        <ele>678</ele>
        <time>2013-08-24T09:01:15Z</time>
      </trkpt>
      <trkpt lat="43.90889" lon="7.48752">
        <ele>692</ele>
        <time>2013-08-24T09:01:29Z</time>
      </trkpt>
      <trkpt lat="43.90897" lon="7.48759">
        <ele>717</ele>
        <time>2013-08-24T09:01:48Z</time>
      </trkpt>
      <trkpt lat="43.90906" lon="7.48759">
        <ele>717</ele>
        <time>2013-08-24T09:01:59Z</time>
      </trkpt>
      <trkpt lat="43.90915" lon="7.48765">
        <ele>702</ele>
        <time>2013-08-24T09:02:07Z</time>
      </trkpt>
      <trkpt lat="43.90924" lon="7.48768">
        <ele>688</ele>
        <time>2013-08-24T09:02:16Z</time>
      </trkpt>
      <trkpt lat="43.90932" lon="7.48775">
        <ele>688</ele>
        <time>2013-08-24T09:02:26Z</time>
      </trkpt>
      <trkpt lat="43.90941" lon="7.48775">
        <ele>679</ele>
        <time>2013-08-24T09:02:39Z</time>
      </trkpt>
      <trkpt lat="43.90949" lon="7.48782">
        <ele>679</ele>
        <time>2013-08-24T09:02:49Z</time>
      </trkpt>
      <trkpt lat="43.90957" lon="7.4879">
        <ele>670</ele>
        <time>2013-08-24T09:03:01Z</time>
      </trkpt>
      <trkpt lat="43.90967" lon="7.48791">
        <ele>670</ele>
        <time>2013-08-24T09:03:13Z</time>
      </trkpt>
      <trkpt lat="43.90977" lon="7.48792">
        <ele>677</ele>
        <time>2013-08-24T09:03:26Z</time>
      </trkpt>
      <trkpt lat="43.90985" lon="7.48801">
        <ele>677</ele>
        <time>2013-08-24T09:03:37Z</time>
      </trkpt>
      <trkpt lat="43.90995" lon="7.48798">
        <ele>677</ele>
        <time>2013-08-24T09:03:54Z</time>
      </trkpt>
      <trkpt lat="43.90995" lon="7.48784">
        <ele>664</ele>
        <time>2013-08-24T09:04:07Z</time>
      </trkpt>
      <trkpt lat="43.9099" lon="7.48773">
        <ele>664</ele>
        <time>2013-08-24T09:04:15Z</time>
      </trkpt>
      <trkpt lat="43.90986" lon="7.48761">
        <ele>664</ele>
        <time>2013-08-24T09:04:41Z</time>
      </trkpt>
      <trkpt lat="43.90992" lon="7.48749">
        <ele>656</ele>
        <time>2013-08-24T09:04:47Z</time>
      </trkpt>
      <trkpt lat="43.90988" lon="7.48739">
        <ele>661</ele>
        <time>2013-08-24T09:04:52Z</time>
      </trkpt>
      <trkpt lat="43.90979" lon="7.48727">
        <ele>661</ele>
        <time>2013-08-24T09:05:00Z</time>
      </trkpt>
      <trkpt lat="43.90977" lon="7.48713">
        <ele>674</ele>
        <time>2013-08-24T09:05:15Z</time>
      </trkpt>
      <trkpt lat="43.90974" lon="7.48701">
        <ele>674</ele>
        <time>2013-08-24T09:05:21Z</time>
      </trkpt>
      <trkpt lat="43.90965" lon="7.48701">
        <ele>664</ele>
        <time>2013-08-24T09:05:30Z</time>
      </trkpt>
      <trkpt lat="43.9097" lon="7.48713">
        <ele>664</ele>
        <time>2013-08-24T09:05:43Z</time>
      </trkpt>
      <trkpt lat="43.9098" lon="7.48715">
        <ele>648</ele>
        <time>2013-08-24T09:05:57Z</time>
      </trkpt>
      <trkpt lat="43.90989" lon="7.48722">
        <ele>632</ele>
        <time>2013-08-24T09:06:04Z</time>
      </trkpt>
      <trkpt lat="43.90999" lon="7.48717">
        <ele>627</ele>
        <time>2013-08-24T09:06:12Z</time>
      </trkpt>
      <trkpt lat="43.90996" lon="7.48704">
        <ele>641</ele>
        <time>2013-08-24T09:06:23Z</time>
      </trkpt>
      <trkpt lat="43.90997" lon="7.48691">
        <ele>633</ele>
        <time>2013-08-24T09:06:45Z</time>
      </trkpt>
      <trkpt lat="43.90997" lon="7.48678">
        <ele>633</ele>
        <time>2013-08-24T09:06:54Z</time>
      </trkpt>
      <trkpt lat="43.9099" lon="7.48668">
        <ele>640</ele>
        <time>2013-08-24T09:07:03Z</time>
      </trkpt>
      <trkpt lat="43.90983" lon="7.48659">
        <ele>646</ele>
        <time>2013-08-24T09:07:09Z</time>
      </trkpt>
      <trkpt lat="43.90975" lon="7.48649">
        <ele>646</ele>
        <time>2013-08-24T09:07:20Z</time>
      </trkpt>
      <trkpt lat="43.90967" lon="7.4864">
        <ele>646</ele>
        <time>2013-08-24T09:07:25Z</time>
      </trkpt>
      <trkpt lat="43.90958" lon="7.4864">
        <ele>646</ele>
        <time>2013-08-24T09:07:34Z</time>
      </trkpt>
      <trkpt lat="43.90951" lon="7.48629">
        <ele>637</ele>
        <time>2013-08-24T09:07:47Z</time>
      </trkpt>
      <trkpt lat="43.90943" lon="7.48623">
        <ele>637</ele>
        <time>2013-08-24T09:07:52Z</time>
      </trkpt>
      <trkpt lat="43.90935" lon="7.48615">
        <ele>631</ele>
        <time>2013-08-24T09:08:07Z</time>
      </trkpt>
      <trkpt lat="43.90932" lon="7.48603">
        <ele>624</ele>
        <time>2013-08-24T09:08:20Z</time>
      </trkpt>
      <trkpt lat="43.9093" lon="7.4859">
        <ele>624</ele>
        <time>2013-08-24T09:08:35Z</time>
      </trkpt>
      <trkpt lat="43.90935" lon="7.4858">
        <ele>624</ele>
        <time>2013-08-24T09:08:40Z</time>
      </trkpt>
      <trkpt lat="43.90931" lon="7.48566">
        <ele>632</ele>
        <time>2013-08-24T09:08:58Z</time>
      </trkpt>
      <trkpt lat="43.90925" lon="7.48556">
        <ele>632</ele>
        <time>2013-08-24T09:09:05Z</time>
      </trkpt>
      <trkpt lat="43.90925" lon="7.48544">
        <ele>621</ele>
        <time>2013-08-24T09:09:12Z</time>
      </trkpt>
      <trkpt lat="43.90923" lon="7.48531">
        <ele>621</ele>
        <time>2013-08-24T09:09:21Z</time>
      </trkpt>
      <trkpt lat="43.9092" lon="7.48519">
        <ele>610</ele>
        <time>2013-08-24T09:09:29Z</time>
      </trkpt>
      <trkpt lat="43.90914" lon="7.48508">
        <ele>610</ele>
        <time>2013-08-24T09:09:36Z</time>
      </trkpt>
      <trkpt lat="43.90921" lon="7.48499">
        <ele>583</ele>
        <time>2013-08-24T09:09:50Z</time>
      </trkpt>
      <trkpt lat="43.90914" lon="7.48491">
        <ele>583</ele>
        <time>2013-08-24T09:09:58Z</time>
      </trkpt>
      <trkpt lat="43.90911" lon="7.48502">
        <ele>583</ele>
        <time>2013-08-24T09:10:27Z</time>
      </trkpt>
      <trkpt lat="43.90919" lon="7.48509">
        <ele>577</ele>
        <time>2013-08-24T09:10:35Z</time>
      </trkpt>
      <trkpt lat="43.90929" lon="7.4851">
        <ele>584</ele>
        <time>2013-08-24T09:10:43Z</time>
      </trkpt>
      <trkpt lat="43.90931" lon="7.48522">
        <ele>596</ele>
        <time>2013-08-24T09:10:56Z</time>
      </trkpt>
      <trkpt lat="43.90938" lon="7.4853">
        <ele>608</ele>
        <time>2013-08-24T09:11:13Z</time>
      </trkpt>
      <trkpt lat="43.90947" lon="7.48518">
        <ele>602</ele>
        <time>2013-08-24T09:11:25Z</time>
      </trkpt>
      <trkpt lat="43.90954" lon="7.48508">
        <ele>583</ele>
        <time>2013-08-24T09:11:36Z</time>
      </trkpt>
      <trkpt lat="43.9096" lon="7.48519">
        <ele>567</ele>
        <time>2013-08-24T09:11:51Z</time>
      </trkpt>
      <trkpt lat="43.90966" lon="7.48509">
        <ele>543</ele>
        <time>2013-08-24T09:12:00Z</time>
      </trkpt>
      <trkpt lat="43.90973" lon="7.48499">
        <ele>528</ele>
        <time>2013-08-24T09:12:06Z</time>
      </trkpt>
      <trkpt lat="43.90969" lon="7.48487">
        <ele>528</ele>
        <time>2013-08-24T09:12:14Z</time>
      </trkpt>
      <trkpt lat="43.90964" lon="7.48476">
        <ele>528</ele>
        <time>2013-08-24T09:12:22Z</time>
      </trkpt>
      <trkpt lat="43.90962" lon="7.48462">
        <ele>543</ele>
        <time>2013-08-24T09:12:30Z</time>
      </trkpt>
      <trkpt lat="43.9096" lon="7.48449">
        <ele>549</ele>
        <time>2013-08-24T09:12:37Z</time>
      </trkpt>
      <trkpt lat="43.90955" lon="7.48439">
        <ele>558</ele>
        <time>2013-08-24T09:12:46Z</time>
      </trkpt>
      <trkpt lat="43.90949" lon="7.48428">
        <ele>568</ele>
        <time>2013-08-24T09:12:52Z</time>
      </trkpt>
      <trkpt lat="43.90951" lon="7.48414">
        <ele>568</ele>
        <time>2013-08-24T09:13:04Z</time>
      </trkpt>
      <trkpt lat="43.90948" lon="7.484">
        <ele>559</ele>
        <time>2013-08-24T09:13:13Z</time>
      </trkpt>
      <trkpt lat="43.90941" lon="7.4839">
        <ele>559</ele>
        <time>2013-08-24T09:13:19Z</time>
      </trkpt>
      <trkpt lat="43.90934" lon="7.48383">
        <ele>566</ele>
        <time>2013-08-24T09:13:24Z</time>
      </trkpt>
      <trkpt lat="43.90928" lon="7.48372">
        <ele>566</ele>
        <time>2013-08-24T09:13:30Z</time>
      </trkpt>
      <trkpt lat="43.90921" lon="7.48365">
        <ele>566</ele>
        <time>2013-08-24T09:13:34Z</time>
      </trkpt>
      <trkpt lat="43.90912" lon="7.4836">
        <ele>576</ele>
        <time>2013-08-24T09:13:38Z</time>
      </trkpt>
      <trkpt lat="43.90906" lon="7.48351">
        <ele>585</ele>
        <time>2013-08-24T09:13:48Z</time>
      </trkpt>
      <trkpt lat="43.90899" lon="7.48343">
        <ele>591</ele>
        <time>2013-08-24T09:13:55Z</time>
      </trkpt>
      <trkpt lat="43.90889" lon="7.48342">
        <ele>597</ele>
        <time>2013-08-24T09:14:03Z</time>
      </trkpt>
      <trkpt lat="43.9088" lon="7.48337">
        <ele>597</ele>
        <time>2013-08-24T09:14:11Z</time>
      </trkpt>
      <trkpt lat="43.9087" lon="7.48334">
        <ele>587</ele>
        <time>2013-08-24T09:14:24Z</time>
      </trkpt>
      <trkpt lat="43.90862" lon="7.48331">
        <ele>577</ele>
        <time>2013-08-24T09:14:31Z</time>
      </trkpt>
      <trkpt lat="43.90854" lon="7.48324">
        <ele>577</ele>
        <time>2013-08-24T09:14:39Z</time>
      </trkpt>
      <trkpt lat="43.90845" lon="7.4832">
        <ele>589</ele>
        <time>2013-08-24T09:14:52Z</time>
      </trkpt>
      <trkpt lat="43.90836" lon="7.48318">
        <ele>594</ele>
        <time>2013-08-24T09:14:59Z</time>
      </trkpt>
      <trkpt lat="43.90831" lon="7.48329">
        <ele>575</ele>
        <time>2013-08-24T09:15:23Z</time>
      </trkpt>
      <trkpt lat="43.90838" lon="7.48338">
        <ele>563</ele>
        <time>2013-08-24T09:15:39Z</time>
      </trkpt>
      <trkpt lat="43.90847" lon="7.48335">
        <ele>563</ele>
        <time>2013-08-24T09:15:48Z</time>
      </trkpt>
      <trkpt lat="43.90838" lon="7.48329">
        <ele>563</ele>
        <time>2013-08-24T09:16:20Z</time>
      </trkpt>
      <trkpt lat="43.90831" lon="7.48337">
        <ele>573</ele>
        <time>2013-08-24T09:16:39Z</time>
      </trkpt>
      <trkpt lat="43.90834" lon="7.48325">
        <ele>594</ele>
        <time>2013-08-24T09:16:57Z</time>
      </trkpt>
      <trkpt lat="43.9084" lon="7.48316">
        <ele>568</ele>
        <time>2013-08-24T09:17:09Z</time>
      </trkpt>
      <trkpt lat="43.90845" lon="7.48326">
        <ele>551</ele>
        <time>2013-08-24T09:17:30Z</time>
      </trkpt>
      <trkpt lat="43.90837" lon="7.4832">
        <ele>551</ele>
        <time>2013-08-24T09:18:48Z</time>
      </trkpt>
      <trkpt lat="43.90842" lon="7.48332">
        <ele>551</ele>
        <time>2013-08-24T09:18:57Z</time>
      </trkpt>
      <trkpt lat="43.90851" lon="7.4833">
        <ele>563</ele>
        <time>2013-08-24T09:19:12Z</time>
      </trkpt>
      <trkpt lat="43.90842" lon="7.48329">
        <ele>572</ele>
        <time>2013-08-24T09:20:04Z</time>
      </trkpt>
      <trkpt lat="43.90832" lon="7.48332">
        <ele>594</ele>
        <time>2013-08-24T09:20:23Z</time>
      </trkpt>
      <trkpt lat="43.90823" lon="7.48331">
        <ele>627</ele>
        <time>2013-08-24T09:20:29Z</time>
      </trkpt>
      <trkpt lat="43.90832" lon="7.48336">
        <ele>604</ele>
        <time>2013-08-24T09:22:41Z</time>
      </trkpt>
      <trkpt lat="43.90841" lon="7.48342">
        <ele>585</ele>
        <time>2013-08-24T09:22:49Z</time>
      </trkpt>
      <trkpt lat="43.90849" lon="7.48335">
        <ele>575</ele>
        <time>2013-08-24T09:23:02Z</time>
      </trkpt>
      <trkpt lat="43.9084" lon="7.48335">
        <ele>565</ele>
        <time>2013-08-24T09:23:34Z</time>
      </trkpt>
      <trkpt lat="43.90848" lon="7.48339">
        <ele>593</ele>
        <time>2013-08-24T09:24:33Z</time>
      </trkpt>
      <trkpt lat="43.90857" lon="7.48335">
        <ele>509</ele>
        <time>2013-08-24T09:25:25Z</time>
      </trkpt>
      <trkpt lat="43.90848" lon="7.48338">
        <ele>549</ele>
        <time>2013-08-24T09:25:51Z</time>
      </trkpt>
      <trkpt lat="43.90838" lon="7.48337">
        <ele>565</ele>
        <time>2013-08-24T09:25:59Z</time>
      </trkpt>
      <trkpt lat="43.90829" lon="7.48342">
        <ele>599</ele>
        <time>2013-08-24T09:26:16Z</time>
      </trkpt>
      <trkpt lat="43.90838" lon="7.48346">
        <ele>626</ele>
        <time>2013-08-24T09:26:59Z</time>
      </trkpt>
      <trkpt lat="43.90843" lon="7.48336">
        <ele>600</ele>
        <time>2013-08-24T09:27:25Z</time>
      </trkpt>
      <trkpt lat="43.90851" lon="7.48333">
        <ele>566</ele>
        <time>2013-08-24T09:27:44Z</time>
      </trkpt>
      <trkpt lat="43.9086" lon="7.48338">
        <ele>493</ele>
        <time>2013-08-24T09:28:08Z</time>
      </trkpt>
      <trkpt lat="43.90851" lon="7.48342">
        <ele>514</ele>
        <time>2013-08-24T09:28:41Z</time>
      </trkpt>
      <trkpt lat="43.90842" lon="7.48343">
        <ele>584</ele>
        <time>2013-08-24T09:29:07Z</time>
      </trkpt>
      <trkpt lat="43.90834" lon="7.4834">
        <ele>615</ele>
        <time>2013-08-24T09:29:19Z</time>
      </trkpt>
      <trkpt lat="43.90824" lon="7.48341">
        <ele>684</ele>
        <time>2013-08-24T09:29:34Z</time>
      </trkpt>
      <trkpt lat="43.90814" lon="7.48342">
        <ele>703</ele>
        <time>2013-08-24T09:29:39Z</time>
      </trkpt>
      <trkpt lat="43.90823" lon="7.48339">
        <ele>659</ele>
        <time>2013-08-24T09:29:56Z</time>
      </trkpt>
      <trkpt lat="43.90832" lon="7.48342">
        <ele>617</ele>
        <time>2013-08-24T09:30:10Z</time>
      </trkpt>
      <trkpt lat="43.90841" lon="7.48342">
        <ele>575</ele>
        <time>2013-08-24T09:30:31Z</time>
      </trkpt>
      <trkpt lat="43.90833" lon="7.48348">
        <ele>598</ele>
        <time>2013-08-24T09:30:51Z</time>
      </trkpt>
      <trkpt lat="43.9084" lon="7.4834">
        <ele>583</ele>
        <time>2013-08-24T09:31:50Z</time>
      </trkpt>
      <trkpt lat="43.90831" lon="7.48341">
        <ele>560</ele>
        <time>2013-08-24T09:32:19Z</time>
      </trkpt>
      <trkpt lat="43.90822" lon="7.48335">
        <ele>560</ele>
        <time>2013-08-24T09:32:30Z</time>
      </trkpt>
      <trkpt lat="43.90832" lon="7.4834">
        <ele>560</ele>
        <time>2013-08-24T09:32:45Z</time>
      </trkpt>
      <trkpt lat="43.90842" lon="7.48339">
        <ele>560</ele>
        <time>2013-08-24T09:32:49Z</time>
      </trkpt>
      <trkpt lat="43.90853" lon="7.48334">
        <ele>547</ele>
        <time>2013-08-24T09:32:54Z</time>
      </trkpt>
      <trkpt lat="43.90847" lon="7.48325">
        <ele>547</ele>
        <time>2013-08-24T09:33:33Z</time>
      </trkpt>
      <trkpt lat="43.90856" lon="7.48324">
        <ele>547</ele>
        <time>2013-08-24T09:34:25Z</time>
      </trkpt>
      <trkpt lat="43.90847" lon="7.48326">
        <ele>553</ele>
        <time>2013-08-24T09:34:52Z</time>
      </trkpt>
      <trkpt lat="43.90856" lon="7.48328">
        <ele>560</ele>
        <time>2013-08-24T09:34:57Z</time>
      </trkpt>
      <trkpt lat="43.90847" lon="7.48328">
        <ele>551</ele>
        <time>2013-08-24T09:35:36Z</time>
      </trkpt>
      <trkpt lat="43.90856" lon="7.48328">
        <ele>540</ele>
        <time>2013-08-24T09:35:48Z</time>
      </trkpt>
      <trkpt lat="43.90847" lon="7.48323">
        <ele>554</ele>
        <time>2013-08-24T09:36:00Z</time>
      </trkpt>
      <trkpt lat="43.90844" lon="7.48311">
        <ele>562</ele>
        <time>2013-08-24T09:36:14Z</time>
      </trkpt>
      <trkpt lat="43.90837" lon="7.48303">
        <ele>562</ele>
        <time>2013-08-24T09:36:21Z</time>
      </trkpt>
      <trkpt lat="43.90836" lon="7.48289">
        <ele>555</ele>
        <time>2013-08-24T09:36:29Z</time>
      </trkpt>
      <trkpt lat="43.90826" lon="7.48287">
        <ele>555</ele>
        <time>2013-08-24T09:36:34Z</time>
      </trkpt>
      <trkpt lat="43.90823" lon="7.48273">
        <ele>541</ele>
        <time>2013-08-24T09:36:42Z</time>
      </trkpt>
      <trkpt lat="43.90817" lon="7.48264">
        <ele>541</ele>
        <time>2013-08-24T09:36:50Z</time>
      </trkpt>
      <trkpt lat="43.90817" lon="7.48252">
        <ele>541</ele>
        <time>2013-08-24T09:36:56Z</time>
      </trkpt>
      <trkpt lat="43.90814" lon="7.4824">
        <ele>541</ele>
        <time>2013-08-24T09:37:03Z</time>
      </trkpt>
      <trkpt lat="43.90812" lon="7.48228">
        <ele>541</ele>
        <time>2013-08-24T09:37:09Z</time>
      </trkpt>
      <trkpt lat="43.90808" lon="7.48217">
        <ele>541</ele>
        <time>2013-08-24T09:37:17Z</time>
      </trkpt>
      <trkpt lat="43.90803" lon="7.48207">
        <ele>553</ele>
        <time>2013-08-24T09:37:27Z</time>
      </trkpt>
      <trkpt lat="43.908" lon="7.48193">
        <ele>559</ele>
        <time>2013-08-24T09:37:37Z</time>
      </trkpt>
      <trkpt lat="43.90792" lon="7.48183">
        <ele>559</ele>
        <time>2013-08-24T09:37:50Z</time>
      </trkpt>
      <trkpt lat="43.90783" lon="7.48182">
        <ele>569</ele>
        <time>2013-08-24T09:37:58Z</time>
      </trkpt>
      <trkpt lat="43.90777" lon="7.48171">
        <ele>560</ele>
        <time>2013-08-24T09:38:09Z</time>
      </trkpt>
      <trkpt lat="43.90771" lon="7.48158">
        <ele>560</ele>
        <time>2013-08-24T09:38:18Z</time>
      </trkpt>
      <trkpt lat="43.90764" lon="7.48151">
        <ele>549</ele>
        <time>2013-08-24T09:38:27Z</time>
      </trkpt>
      <trkpt lat="43.90759" lon="7.48141">
        <ele>549</ele>
        <time>2013-08-24T09:38:36Z</time>
      </trkpt>
      <trkpt lat="43.90752" lon="7.48133">
        <ele>549</ele>
        <time>2013-08-24T09:38:50Z</time>
      </trkpt>
      <trkpt lat="43.90745" lon="7.48124">
        <ele>549</ele>
        <time>2013-08-24T09:38:58Z</time>
      </trkpt>
      <trkpt lat="43.90738" lon="7.48116">
        <ele>549</ele>
        <time>2013-08-24T09:39:07Z</time>
      </trkpt>
      <trkpt lat="43.9073" lon="7.48112">
        <ele>549</ele>
        <time>2013-08-24T09:39:17Z</time>
      </trkpt>
      <trkpt lat="43.90725" lon="7.48101">
        <ele>549</ele>
        <time>2013-08-24T09:39:31Z</time>
      </trkpt>
      <trkpt lat="43.90717" lon="7.48096">
        <ele>555</ele>
        <time>2013-08-24T09:39:40Z</time>
      </trkpt>
      <trkpt lat="43.9071" lon="7.48089">
        <ele>563</ele>
        <time>2013-08-24T09:39:52Z</time>
      </trkpt>
      <trkpt lat="43.90705" lon="7.48078">
        <ele>563</ele>
        <time>2013-08-24T09:40:00Z</time>
      </trkpt>
      <trkpt lat="43.90698" lon="7.48071">
        <ele>552</ele>
        <time>2013-08-24T09:40:07Z</time>
      </trkpt>
      <trkpt lat="43.90691" lon="7.48063">
        <ele>552</ele>
        <time>2013-08-24T09:40:16Z</time>
      </trkpt>
      <trkpt lat="43.9068" lon="7.4806">
        <ele>552</ele>
        <time>2013-08-24T09:40:27Z</time>
      </trkpt>
      <trkpt lat="43.90671" lon="7.48055">
        <ele>552</ele>
        <time>2013-08-24T09:40:37Z</time>
      </trkpt>
      <trkpt lat="43.90665" lon="7.48045">
        <ele>546</ele>
        <time>2013-08-24T09:40:42Z</time>
      </trkpt>
      <trkpt lat="43.90664" lon="7.48032">
        <ele>546</ele>
        <time>2013-08-24T09:40:50Z</time>
      </trkpt>
      <trkpt lat="43.90654" lon="7.48029">
        <ele>539</ele>
        <time>2013-08-24T09:41:03Z</time>
      </trkpt>
      <trkpt lat="43.90649" lon="7.48019">
        <ele>539</ele>
        <time>2013-08-24T09:41:17Z</time>
      </trkpt>
      <trkpt lat="43.90641" lon="7.48011">
        <ele>551</ele>
        <time>2013-08-24T09:41:37Z</time>
      </trkpt>
      <trkpt lat="43.90634" lon="7.48004">
        <ele>551</ele>
        <time>2013-08-24T09:41:46Z</time>
      </trkpt>
      <trkpt lat="43.90627" lon="7.47995">
        <ele>551</ele>
        <time>2013-08-24T09:41:59Z</time>
      </trkpt>
      <trkpt lat="43.90616" lon="7.47989">
        <ele>564</ele>
        <time>2013-08-24T09:42:15Z</time>
      </trkpt>
      <trkpt lat="43.90607" lon="7.47986">
        <ele>564</ele>
        <time>2013-08-24T09:42:26Z</time>
      </trkpt>
      <trkpt lat="43.90599" lon="7.4798">
        <ele>558</ele>
        <time>2013-08-24T09:42:32Z</time>
      </trkpt>
      <trkpt lat="43.9059" lon="7.47981">
        <ele>558</ele>
        <time>2013-08-24T09:42:40Z</time>
      </trkpt>
      <trkpt lat="43.90581" lon="7.47981">
        <ele>558</ele>
        <time>2013-08-24T09:42:49Z</time>
      </trkpt>
      <trkpt lat="43.90573" lon="7.47974">
        <ele>558</ele>
        <time>2013-08-24T09:42:56Z</time>
      </trkpt>
      <trkpt lat="43.90565" lon="7.47971">
        <ele>558</ele>
        <time>2013-08-24T09:43:07Z</time>
      </trkpt>
      <trkpt lat="43.90557" lon="7.47964">
        <ele>553</ele>
        <time>2013-08-24T09:43:14Z</time>
      </trkpt>
      <trkpt lat="43.90552" lon="7.47954">
        <ele>553</ele>
        <time>2013-08-24T09:43:23Z</time>
      </trkpt>
      <trkpt lat="43.90547" lon="7.47942">
        <ele>553</ele>
        <time>2013-08-24T09:43:37Z</time>
      </trkpt>
      <trkpt lat="43.90539" lon="7.47935">
        <ele>553</ele>
        <time>2013-08-24T09:43:46Z</time>
      </trkpt>
      <trkpt lat="43.90529" lon="7.47927">
        <ele>558</ele>
        <time>2013-08-24T09:43:57Z</time>
      </trkpt>
      <trkpt lat="43.90531" lon="7.47915">
        <ele>558</ele>
        <time>2013-08-24T09:44:10Z</time>
      </trkpt>
      <trkpt lat="43.90531" lon="7.47901">
        <ele>558</ele>
        <time>2013-08-24T09:44:21Z</time>
      </trkpt>
      <trkpt lat="43.90528" lon="7.47889">
        <ele>558</ele>
        <time>2013-08-24T09:44:30Z</time>
      </trkpt>
      <trkpt lat="43.90525" lon="7.47876">
        <ele>558</ele>
        <time>2013-08-24T09:44:42Z</time>
      </trkpt>
      <trkpt lat="43.90529" lon="7.47862">
        <ele>558</ele>
        <time>2013-08-24T09:44:51Z</time>
      </trkpt>
      <trkpt lat="43.90526" lon="7.4785">
        <ele>558</ele>
        <time>2013-08-24T09:44:58Z</time>
      </trkpt>
      <trkpt lat="43.90521" lon="7.47838">
        <ele>558</ele>
        <time>2013-08-24T09:45:22Z</time>
      </trkpt>
      <trkpt lat="43.90517" lon="7.47826">
        <ele>572</ele>
        <time>2013-08-24T09:45:37Z</time>
      </trkpt>
      <trkpt lat="43.90508" lon="7.47829">
        <ele>552</ele>
        <time>2013-08-24T09:46:00Z</time>
      </trkpt>
      <trkpt lat="43.90499" lon="7.47833">
        <ele>562</ele>
        <time>2013-08-24T09:46:10Z</time>
      </trkpt>
      <trkpt lat="43.90493" lon="7.47843">
        <ele>562</ele>
        <time>2013-08-24T09:46:16Z</time>
      </trkpt>
      <trkpt lat="43.90501" lon="7.47835">
        <ele>562</ele>
        <time>2013-08-24T09:46:46Z</time>
      </trkpt>
      <trkpt lat="43.90489" lon="7.47838">
        <ele>554</ele>
        <time>2013-08-24T09:47:01Z</time>
      </trkpt>
      <trkpt lat="43.90482" lon="7.47848">
        <ele>546</ele>
        <time>2013-08-24T09:47:06Z</time>
      </trkpt>
      <trkpt lat="43.90478" lon="7.4786">
        <ele>546</ele>
        <time>2013-08-24T09:47:18Z</time>
      </trkpt>
      <trkpt lat="43.90468" lon="7.47862">
        <ele>555</ele>
        <time>2013-08-24T09:47:40Z</time>
      </trkpt>
      <trkpt lat="43.90465" lon="7.47874">
        <ele>555</ele>
        <time>2013-08-24T09:47:52Z</time>
      </trkpt>
      <trkpt lat="43.90458" lon="7.47881">
        <ele>555</ele>
        <time>2013-08-24T09:48:06Z</time>
      </trkpt>
      <trkpt lat="43.90449" lon="7.47883">
        <ele>561</ele>
        <time>2013-08-24T09:48:18Z</time>
      </trkpt>
      <trkpt lat="43.90439" lon="7.47883">
        <ele>561</ele>
        <time>2013-08-24T09:48:34Z</time>
      </trkpt>
      <trkpt lat="43.90432" lon="7.47876">
        <ele>567</ele>
        <time>2013-08-24T09:48:49Z</time>
      </trkpt>
      <trkpt lat="43.90426" lon="7.47865">
        <ele>567</ele>
        <time>2013-08-24T09:49:00Z</time>
      </trkpt>
      <trkpt lat="43.90429" lon="7.47854">
        <ele>567</ele>
        <time>2013-08-24T09:49:10Z</time>
      </trkpt>
      <trkpt lat="43.90429" lon="7.4784">
        <ele>567</ele>
        <time>2013-08-24T09:49:30Z</time>
      </trkpt>
      <trkpt lat="43.90426" lon="7.47829">
        <ele>567</ele>
        <time>2013-08-24T09:49:45Z</time>
      </trkpt>
      <trkpt lat="43.90419" lon="7.47821">
        <ele>576</ele>
        <time>2013-08-24T09:49:58Z</time>
      </trkpt>
      <trkpt lat="43.90416" lon="7.47808">
        <ele>576</ele>
        <time>2013-08-24T09:50:09Z</time>
      </trkpt>
      <trkpt lat="43.90409" lon="7.47799">
        <ele>576</ele>
        <time>2013-08-24T09:50:22Z</time>
      </trkpt>
      <trkpt lat="43.90402" lon="7.47789">
        <ele>582</ele>
        <time>2013-08-24T09:50:41Z</time>
      </trkpt>
      <trkpt lat="43.90395" lon="7.47781">
        <ele>582</ele>
        <time>2013-08-24T09:51:01Z</time>
      </trkpt>
      <trkpt lat="43.9039" lon="7.4777">
        <ele>582</ele>
        <time>2013-08-24T09:51:16Z</time>
      </trkpt>
      <trkpt lat="43.90384" lon="7.4776">
        <ele>591</ele>
        <time>2013-08-24T09:51:40Z</time>
      </trkpt>
      <trkpt lat="43.90376" lon="7.47753">
        <ele>591</ele>
        <time>2013-08-24T09:51:55Z</time>
      </trkpt>
      <trkpt lat="43.90373" lon="7.47741">
        <ele>591</ele>
        <time>2013-08-24T09:52:09Z</time>
      </trkpt>
      <trkpt lat="43.90367" lon="7.47729">
        <ele>597</ele>
        <time>2013-08-24T09:52:33Z</time>
      </trkpt>
      <trkpt lat="43.90358" lon="7.47729">
        <ele>597</ele>
        <time>2013-08-24T09:52:43Z</time>
      </trkpt>
      <trkpt lat="43.90353" lon="7.47717">
        <ele>607</ele>
        <time>2013-08-24T09:53:01Z</time>
      </trkpt>
      <trkpt lat="43.90349" lon="7.47706">
        <ele>601</ele>
        <time>2013-08-24T09:53:10Z</time>
      </trkpt>
      <trkpt lat="43.90341" lon="7.47699">
        <ele>601</ele>
        <time>2013-08-24T09:53:23Z</time>
      </trkpt>
      <trkpt lat="43.90337" lon="7.47688">
        <ele>601</ele>
        <time>2013-08-24T09:53:37Z</time>
      </trkpt>
      <trkpt lat="43.90331" lon="7.47678">
        <ele>601</ele>
        <time>2013-08-24T09:53:49Z</time>
      </trkpt>
      <trkpt lat="43.90327" lon="7.47666">
        <ele>601</ele>
        <time>2013-08-24T09:54:06Z</time>
      </trkpt>
      <trkpt lat="43.9032" lon="7.47657">
        <ele>611</ele>
        <time>2013-08-24T09:54:24Z</time>
      </trkpt>
      <trkpt lat="43.90317" lon="7.47645">
        <ele>598</ele>
        <time>2013-08-24T09:54:36Z</time>
      </trkpt>
      <trkpt lat="43.90315" lon="7.47632">
        <ele>598</ele>
        <time>2013-08-24T09:54:48Z</time>
      </trkpt>
      <trkpt lat="43.9031" lon="7.47622">
        <ele>608</ele>
        <time>2013-08-24T09:55:05Z</time>
      </trkpt>
      <trkpt lat="43.90305" lon="7.47612">
        <ele>615</ele>
        <time>2013-08-24T09:55:17Z</time>
      </trkpt>
      <trkpt lat="43.903" lon="7.47602">
        <ele>615</ele>
        <time>2013-08-24T09:55:32Z</time>
      </trkpt>
      <trkpt lat="43.90297" lon="7.47591">
        <ele>615</ele>
        <time>2013-08-24T09:55:44Z</time>
      </trkpt>
      <trkpt lat="43.90291" lon="7.4758">
        <ele>615</ele>
        <time>2013-08-24T09:55:56Z</time>
      </trkpt>
      <trkpt lat="43.90284" lon="7.47572">
        <ele>623</ele>
        <time>2013-08-24T09:56:07Z</time>
      </trkpt>
      <trkpt lat="43.90278" lon="7.47561">
        <ele>623</ele>
        <time>2013-08-24T09:56:17Z</time>
      </trkpt>
      <trkpt lat="43.90274" lon="7.4755">
        <ele>616</ele>
        <time>2013-08-24T09:56:27Z</time>
      </trkpt>
      <trkpt lat="43.90273" lon="7.47538">
        <ele>611</ele>
        <time>2013-08-24T09:56:37Z</time>
      </trkpt>
      <trkpt lat="43.90267" lon="7.47526">
        <ele>611</ele>
        <time>2013-08-24T09:56:47Z</time>
      </trkpt>
      <trkpt lat="43.90261" lon="7.47516">
        <ele>619</ele>
        <time>2013-08-24T09:56:58Z</time>
      </trkpt>
      <trkpt lat="43.9026" lon="7.47503">
        <ele>619</ele>
        <time>2013-08-24T09:57:10Z</time>
      </trkpt>
      <trkpt lat="43.90261" lon="7.47491">
        <ele>631</ele>
        <time>2013-08-24T09:57:41Z</time>
      </trkpt>
      <trkpt lat="43.90264" lon="7.47479">
        <ele>623</ele>
        <time>2013-08-24T09:57:49Z</time>
      </trkpt>
      <trkpt lat="43.90262" lon="7.47467">
        <ele>623</ele>
        <time>2013-08-24T09:58:02Z</time>
      </trkpt>
      <trkpt lat="43.90263" lon="7.47454">
        <ele>623</ele>
        <time>2013-08-24T09:58:18Z</time>
      </trkpt>
      <trkpt lat="43.90257" lon="7.47444">
        <ele>633</ele>
        <time>2013-08-24T09:58:39Z</time>
      </trkpt>
      <trkpt lat="43.90265" lon="7.47438">
        <ele>633</ele>
        <time>2013-08-24T09:59:03Z</time>
      </trkpt>
      <trkpt lat="43.90263" lon="7.47425">
        <ele>633</ele>
        <time>2013-08-24T09:59:27Z</time>
      </trkpt>
      <trkpt lat="43.90265" lon="7.47412">
        <ele>646</ele>
        <time>2013-08-24T10:00:08Z</time>
      </trkpt>
      <trkpt lat="43.90269" lon="7.474">
        <ele>646</ele>
        <time>2013-08-24T10:00:29Z</time>
      </trkpt>
      <trkpt lat="43.90272" lon="7.47388">
        <ele>646</ele>
        <time>2013-08-24T10:00:40Z</time>
      </trkpt>
      <trkpt lat="43.90263" lon="7.47382">
        <ele>646</ele>
        <time>2013-08-24T10:01:04Z</time>
      </trkpt>
      <trkpt lat="43.90268" lon="7.47371">
        <ele>646</ele>
        <time>2013-08-24T10:01:33Z</time>
      </trkpt>
      <trkpt lat="43.90271" lon="7.47359">
        <ele>653</ele>
        <time>2013-08-24T10:01:56Z</time>
      </trkpt>
      <trkpt lat="43.90271" lon="7.47346">
        <ele>653</ele>
        <time>2013-08-24T10:02:15Z</time>
      </trkpt>
      <trkpt lat="43.90271" lon="7.47334">
        <ele>653</ele>
        <time>2013-08-24T10:02:35Z</time>
      </trkpt>
      <trkpt lat="43.90274" lon="7.47322">
        <ele>653</ele>
        <time>2013-08-24T10:02:49Z</time>
      </trkpt>
      <trkpt lat="43.90276" lon="7.47309">
        <ele>663</ele>
        <time>2013-08-24T10:03:32Z</time>
      </trkpt>
      <trkpt lat="43.90269" lon="7.47301">
        <ele>663</ele>
        <time>2013-08-24T10:03:39Z</time>
      </trkpt>
      <trkpt lat="43.90261" lon="7.4729">
        <ele>663</ele>
        <time>2013-08-24T10:03:52Z</time>
      </trkpt>
      <trkpt lat="43.90252" lon="7.47289">
        <ele>663</ele>
        <time>2013-08-24T10:04:02Z</time>
      </trkpt>
      <trkpt lat="43.90243" lon="7.47288">
        <ele>657</ele>
        <time>2013-08-24T10:04:09Z</time>
      </trkpt>
      <trkpt lat="43.9025" lon="7.4728">
        <ele>657</ele>
        <time>2013-08-24T10:05:06Z</time>
      </trkpt>
      <trkpt lat="43.9026" lon="7.47277">
        <ele>663</ele>
        <time>2013-08-24T10:05:27Z</time>
      </trkpt>
      <trkpt lat="43.90269" lon="7.47272">
        <ele>658</ele>
        <time>2013-08-24T10:05:36Z</time>
      </trkpt>
      <trkpt lat="43.90276" lon="7.47263">
        <ele>658</ele>
        <time>2013-08-24T10:05:49Z</time>
      </trkpt>
      <trkpt lat="43.90283" lon="7.47255">
        <ele>658</ele>
        <time>2013-08-24T10:06:01Z</time>
      </trkpt>
      <trkpt lat="43.90291" lon="7.47248">
        <ele>658</ele>
        <time>2013-08-24T10:06:17Z</time>
      </trkpt>
      <trkpt lat="43.90299" lon="7.47239">
        <ele>666</ele>
        <time>2013-08-24T10:06:31Z</time>
      </trkpt>
      <trkpt lat="43.90306" lon="7.47232">
        <ele>678</ele>
        <time>2013-08-24T10:06:52Z</time>
      </trkpt>
      <trkpt lat="43.90311" lon="7.47221">
        <ele>672</ele>
        <time>2013-08-24T10:07:01Z</time>
      </trkpt>
      <trkpt lat="43.90318" lon="7.47214">
        <ele>666</ele>
        <time>2013-08-24T10:07:10Z</time>
      </trkpt>
      <trkpt lat="43.90326" lon="7.47205">
        <ele>659</ele>
        <time>2013-08-24T10:08:03Z</time>
      </trkpt>
      <trkpt lat="43.90335" lon="7.47202">
        <ele>665</ele>
        <time>2013-08-24T10:25:28Z</time>
      </trkpt>
      <trkpt lat="43.90326" lon="7.47208">
        <ele>674</ele>
        <time>2013-08-24T10:25:48Z</time>
      </trkpt>
      <trkpt lat="43.90334" lon="7.472">
        <ele>674</ele>
        <time>2013-08-24T10:37:48Z</time>
      </trkpt>
      <trkpt lat="43.90341" lon="7.47194">
        <ele>669</ele>
        <time>2013-08-24T10:37:57Z</time>
      </trkpt>
      <trkpt lat="43.90351" lon="7.47187">
        <ele>662</ele>
        <time>2013-08-24T10:38:06Z</time>
      </trkpt>
      <trkpt lat="43.90361" lon="7.47184">
        <ele>662</ele>
        <time>2013-08-24T10:38:14Z</time>
      </trkpt>
      <trkpt lat="43.90368" lon="7.47176">
        <ele>662</ele>
        <time>2013-08-24T10:38:22Z</time>
      </trkpt>
      <trkpt lat="43.90376" lon="7.47171">
        <ele>662</ele>
        <time>2013-08-24T10:38:29Z</time>
      </trkpt>
      <trkpt lat="43.90385" lon="7.47176">
        <ele>662</ele>
        <time>2013-08-24T10:38:57Z</time>
      </trkpt>
      <trkpt lat="43.90389" lon="7.47163">
        <ele>668</ele>
        <time>2013-08-24T10:39:16Z</time>
      </trkpt>
      <trkpt lat="43.9039" lon="7.4715">
        <ele>676</ele>
        <time>2013-08-24T10:39:25Z</time>
      </trkpt>
      <trkpt lat="43.90397" lon="7.47142">
        <ele>676</ele>
        <time>2013-08-24T10:39:33Z</time>
      </trkpt>
      <trkpt lat="43.90406" lon="7.47137">
        <ele>676</ele>
        <time>2013-08-24T10:39:43Z</time>
      </trkpt>
      <trkpt lat="43.90415" lon="7.47135">
        <ele>663</ele>
        <time>2013-08-24T10:39:51Z</time>
      </trkpt>
      <trkpt lat="43.90425" lon="7.47132">
        <ele>650</ele>
        <time>2013-08-24T10:40:06Z</time>
      </trkpt>
      <trkpt lat="43.90434" lon="7.47127">
        <ele>650</ele>
        <time>2013-08-24T10:40:14Z</time>
      </trkpt>
      <trkpt lat="43.90435" lon="7.47114">
        <ele>650</ele>
        <time>2013-08-24T10:40:28Z</time>
      </trkpt>
      <trkpt lat="43.90432" lon="7.47094">
        <ele>650</ele>
        <time>2013-08-24T10:40:47Z</time>
      </trkpt>
      <trkpt lat="43.9044" lon="7.47088">
        <ele>650</ele>
        <time>2013-08-24T10:40:52Z</time>
      </trkpt>
      <trkpt lat="43.90432" lon="7.47083">
        <ele>650</ele>
        <time>2013-08-24T10:41:02Z</time>
      </trkpt>
      <trkpt lat="43.90428" lon="7.47071">
        <ele>650</ele>
        <time>2013-08-24T10:41:15Z</time>
      </trkpt>
      <trkpt lat="43.90429" lon="7.47059">
        <ele>650</ele>
        <time>2013-08-24T10:41:27Z</time>
      </trkpt>
      <trkpt lat="43.90426" lon="7.47047">
        <ele>650</ele>
        <time>2013-08-24T10:41:38Z</time>
      </trkpt>
      <trkpt lat="43.90417" lon="7.47041">
        <ele>662</ele>
        <time>2013-08-24T10:41:57Z</time>
      </trkpt>
      <trkpt lat="43.90417" lon="7.47028">
        <ele>662</ele>
        <time>2013-08-24T10:42:05Z</time>
      </trkpt>
      <trkpt lat="43.90408" lon="7.47024">
        <ele>662</ele>
        <time>2013-08-24T10:42:12Z</time>
      </trkpt>
      <trkpt lat="43.9041" lon="7.4701">
        <ele>662</ele>
        <time>2013-08-24T10:42:22Z</time>
      </trkpt>
      <trkpt lat="43.9041" lon="7.46998">
        <ele>662</ele>
        <time>2013-08-24T10:42:29Z</time>
      </trkpt>
      <trkpt lat="43.90407" lon="7.46986">
        <ele>662</ele>
        <time>2013-08-24T10:42:39Z</time>
      </trkpt>
      <trkpt lat="43.9041" lon="7.46973">
        <ele>656</ele>
        <time>2013-08-24T10:43:22Z</time>
      </trkpt>
      <trkpt lat="43.9041" lon="7.4696">
        <ele>656</ele>
        <time>2013-08-24T10:43:34Z</time>
      </trkpt>
      <trkpt lat="43.90408" lon="7.46947">
        <ele>656</ele>
        <time>2013-08-24T10:43:46Z</time>
      </trkpt>
      <trkpt lat="43.90406" lon="7.46934">
        <ele>656</ele>
        <time>2013-08-24T10:43:56Z</time>
      </trkpt>
      <trkpt lat="43.90404" lon="7.46922">
        <ele>656</ele>
        <time>2013-08-24T10:44:07Z</time>
      </trkpt>
      <trkpt lat="43.90402" lon="7.4691">
        <ele>656</ele>
        <time>2013-08-24T10:44:18Z</time>
      </trkpt>
      <trkpt lat="43.90399" lon="7.46898">
        <ele>656</ele>
        <time>2013-08-24T10:44:28Z</time>
      </trkpt>
      <trkpt lat="43.90397" lon="7.46886">
        <ele>656</ele>
        <time>2013-08-24T10:44:37Z</time>
      </trkpt>
      <trkpt lat="43.90397" lon="7.46874">
        <ele>656</ele>
        <time>2013-08-24T10:44:46Z</time>
      </trkpt>
      <trkpt lat="43.90397" lon="7.4686">
        <ele>656</ele>
        <time>2013-08-24T10:44:59Z</time>
      </trkpt>
      <trkpt lat="43.90404" lon="7.46851">
        <ele>656</ele>
        <time>2013-08-24T10:45:08Z</time>
      </trkpt>
      <trkpt lat="43.90403" lon="7.46838">
        <ele>668</ele>
        <time>2013-08-24T10:45:31Z</time>
      </trkpt>
      <trkpt lat="43.90408" lon="7.46827">
        <ele>668</ele>
        <time>2013-08-24T10:45:38Z</time>
      </trkpt>
      <trkpt lat="43.90417" lon="7.46822">
        <ele>668</ele>
        <time>2013-08-24T10:45:43Z</time>
      </trkpt>
      <trkpt lat="43.90426" lon="7.46813">
        <ele>668</ele>
        <time>2013-08-24T10:45:55Z</time>
      </trkpt>
      <trkpt lat="43.90429" lon="7.46801">
        <ele>668</ele>
        <time>2013-08-24T10:46:07Z</time>
      </trkpt>
      <trkpt lat="43.90434" lon="7.4679">
        <ele>668</ele>
        <time>2013-08-24T10:46:17Z</time>
      </trkpt>
      <trkpt lat="43.90443" lon="7.46785">
        <ele>662</ele>
        <time>2013-08-24T10:46:25Z</time>
      </trkpt>
      <trkpt lat="43.9045" lon="7.46776">
        <ele>673</ele>
        <time>2013-08-24T10:46:40Z</time>
      </trkpt>
      <trkpt lat="43.90455" lon="7.46766">
        <ele>673</ele>
        <time>2013-08-24T10:46:47Z</time>
      </trkpt>
      <trkpt lat="43.90447" lon="7.46759">
        <ele>673</ele>
        <time>2013-08-24T10:46:58Z</time>
      </trkpt>
      <trkpt lat="43.9044" lon="7.46752">
        <ele>673</ele>
        <time>2013-08-24T10:47:05Z</time>
      </trkpt>
      <trkpt lat="43.90438" lon="7.46739">
        <ele>668</ele>
        <time>2013-08-24T10:47:27Z</time>
      </trkpt>
      <trkpt lat="43.9043" lon="7.46729">
        <ele>668</ele>
        <time>2013-08-24T10:47:34Z</time>
      </trkpt>
      <trkpt lat="43.90422" lon="7.46719">
        <ele>661</ele>
        <time>2013-08-24T10:47:42Z</time>
      </trkpt>
      <trkpt lat="43.90429" lon="7.46709">
        <ele>661</ele>
        <time>2013-08-24T10:47:51Z</time>
      </trkpt>
      <trkpt lat="43.90438" lon="7.46707">
        <ele>661</ele>
        <time>2013-08-24T10:47:57Z</time>
      </trkpt>
      <trkpt lat="43.90434" lon="7.46695">
        <ele>661</ele>
        <time>2013-08-24T10:48:07Z</time>
      </trkpt>
      <trkpt lat="43.90433" lon="7.46682">
        <ele>661</ele>
        <time>2013-08-24T10:48:23Z</time>
      </trkpt>
      <trkpt lat="43.9043" lon="7.46671">
        <ele>661</ele>
        <time>2013-08-24T10:48:40Z</time>
      </trkpt>
      <trkpt lat="43.90421" lon="7.46666">
        <ele>661</ele>
        <time>2013-08-24T10:48:51Z</time>
      </trkpt>
      <trkpt lat="43.90426" lon="7.46677">
        <ele>672</ele>
        <time>2013-08-24T10:48:59Z</time>
      </trkpt>
      <trkpt lat="43.9043" lon="7.46689">
        <ele>683</ele>
        <time>2013-08-24T10:49:07Z</time>
      </trkpt>
      <trkpt lat="43.90434" lon="7.46677">
        <ele>671</ele>
        <time>2013-08-24T10:49:16Z</time>
      </trkpt>
      <trkpt lat="43.90421" lon="7.46675">
        <ele>671</ele>
        <time>2013-08-24T10:49:23Z</time>
      </trkpt>
      <trkpt lat="43.90412" lon="7.46665">
        <ele>659</ele>
        <time>2013-08-24T10:49:29Z</time>
      </trkpt>
      <trkpt lat="43.90408" lon="7.46654">
        <ele>659</ele>
        <time>2013-08-24T10:49:33Z</time>
      </trkpt>
      <trkpt lat="43.90399" lon="7.46658">
        <ele>659</ele>
        <time>2013-08-24T10:49:37Z</time>
      </trkpt>
      <trkpt lat="43.90408" lon="7.46664">
        <ele>669</ele>
        <time>2013-08-24T10:49:52Z</time>
      </trkpt>
      <trkpt lat="43.90398" lon="7.46662">
        <ele>664</ele>
        <time>2013-08-24T10:50:00Z</time>
      </trkpt>
      <trkpt lat="43.9041" lon="7.46663">
        <ele>672</ele>
        <time>2013-08-24T10:50:19Z</time>
      </trkpt>
      <trkpt lat="43.90417" lon="7.46672">
        <ele>682</ele>
        <time>2013-08-24T10:50:32Z</time>
      </trkpt>
      <trkpt lat="43.90406" lon="7.46665">
        <ele>676</ele>
        <time>2013-08-24T10:50:41Z</time>
      </trkpt>
      <trkpt lat="43.90399" lon="7.46657">
        <ele>670</ele>
        <time>2013-08-24T10:50:45Z</time>
      </trkpt>
      <trkpt lat="43.9041" lon="7.46656">
        <ele>670</ele>
        <time>2013-08-24T10:50:56Z</time>
      </trkpt>
      <trkpt lat="43.90399" lon="7.46654">
        <ele>657</ele>
        <time>2013-08-24T10:51:01Z</time>
      </trkpt>
      <trkpt lat="43.9041" lon="7.46656">
        <ele>665</ele>
        <time>2013-08-24T10:51:06Z</time>
      </trkpt>
      <trkpt lat="43.904" lon="7.46658">
        <ele>659</ele>
        <time>2013-08-24T10:51:19Z</time>
      </trkpt>
      <trkpt lat="43.90396" lon="7.46669">
        <ele>659</ele>
        <time>2013-08-24T10:51:26Z</time>
      </trkpt>
      <trkpt lat="43.90387" lon="7.46674">
        <ele>659</ele>
        <time>2013-08-24T10:51:35Z</time>
      </trkpt>
      <trkpt lat="43.90376" lon="7.46676">
        <ele>659</ele>
        <time>2013-08-24T10:51:41Z</time>
      </trkpt>
      <trkpt lat="43.90367" lon="7.46674">
        <ele>652</ele>
        <time>2013-08-24T10:51:45Z</time>
      </trkpt>
      <trkpt lat="43.90374" lon="7.46682">
        <ele>652</ele>
        <time>2013-08-24T10:51:54Z</time>
      </trkpt>
      <trkpt lat="43.90371" lon="7.46694">
        <ele>659</ele>
        <time>2013-08-24T10:52:05Z</time>
      </trkpt>
      <trkpt lat="43.9036" lon="7.46696">
        <ele>659</ele>
        <time>2013-08-24T10:52:09Z</time>
      </trkpt>
      <trkpt lat="43.90354" lon="7.46707">
        <ele>659</ele>
        <time>2013-08-24T10:52:26Z</time>
      </trkpt>
      <trkpt lat="43.90352" lon="7.46719">
        <ele>659</ele>
        <time>2013-08-24T10:52:35Z</time>
      </trkpt>
      <trkpt lat="43.90343" lon="7.46723">
        <ele>659</ele>
        <time>2013-08-24T10:52:42Z</time>
      </trkpt>
      <trkpt lat="43.90336" lon="7.46731">
        <ele>659</ele>
        <time>2013-08-24T10:52:51Z</time>
      </trkpt>
      <trkpt lat="43.90336" lon="7.46745">
        <ele>673</ele>
        <time>2013-08-24T10:53:06Z</time>
      </trkpt>
      <trkpt lat="43.90327" lon="7.46751">
        <ele>673</ele>
        <time>2013-08-24T10:53:13Z</time>
      </trkpt>
      <trkpt lat="43.90317" lon="7.46751">
        <ele>656</ele>
        <time>2013-08-24T10:53:21Z</time>
      </trkpt>
      <trkpt lat="43.90308" lon="7.46753">
        <ele>648</ele>
        <time>2013-08-24T10:53:25Z</time>
      </trkpt>
      <trkpt lat="43.90305" lon="7.46765">
        <ele>648</ele>
        <time>2013-08-24T10:53:39Z</time>
      </trkpt>
      <trkpt lat="43.903" lon="7.46775">
        <ele>657</ele>
        <time>2013-08-24T10:53:50Z</time>
      </trkpt>
      <trkpt lat="43.90295" lon="7.46785">
        <ele>657</ele>
        <time>2013-08-24T10:54:00Z</time>
      </trkpt>
      <trkpt lat="43.9029" lon="7.46796">
        <ele>657</ele>
        <time>2013-08-24T10:54:09Z</time>
      </trkpt>
      <trkpt lat="43.90282" lon="7.46803">
        <ele>657</ele>
        <time>2013-08-24T10:54:18Z</time>
      </trkpt>
      <trkpt lat="43.90281" lon="7.46815">
        <ele>657</ele>
        <time>2013-08-24T10:54:30Z</time>
      </trkpt>
      <trkpt lat="43.90271" lon="7.46818">
        <ele>657</ele>
        <time>2013-08-24T10:54:59Z</time>
      </trkpt>
      <trkpt lat="43.90261" lon="7.46817">
        <ele>649</ele>
        <time>2013-08-24T10:55:19Z</time>
      </trkpt>
      <trkpt lat="43.90252" lon="7.46815">
        <ele>649</ele>
        <time>2013-08-24T10:55:32Z</time>
      </trkpt>
      <trkpt lat="43.90244" lon="7.46812">
        <ele>649</ele>
        <time>2013-08-24T10:55:51Z</time>
      </trkpt>
      <trkpt lat="43.90235" lon="7.46813">
        <ele>642</ele>
        <time>2013-08-24T10:56:17Z</time>
      </trkpt>
      <trkpt lat="43.90226" lon="7.46814">
        <ele>633</ele>
        <time>2013-08-24T10:56:34Z</time>
      </trkpt>
      <trkpt lat="43.90219" lon="7.46822">
        <ele>633</ele>
        <time>2013-08-24T10:56:48Z</time>
      </trkpt>
      <trkpt lat="43.90214" lon="7.4681">
        <ele>624</ele>
        <time>2013-08-24T10:57:09Z</time>
      </trkpt>
      <trkpt lat="43.90213" lon="7.46797">
        <ele>624</ele>
        <time>2013-08-24T10:57:18Z</time>
      </trkpt>
      <trkpt lat="43.90214" lon="7.46784">
        <ele>624</ele>
        <time>2013-08-24T10:57:38Z</time>
      </trkpt>
      <trkpt lat="43.90215" lon="7.46771">
        <ele>616</ele>
        <time>2013-08-24T10:57:52Z</time>
      </trkpt>
      <trkpt lat="43.90205" lon="7.46767">
        <ele>609</ele>
        <time>2013-08-24T10:58:14Z</time>
      </trkpt>
      <trkpt lat="43.90195" lon="7.46761">
        <ele>609</ele>
        <time>2013-08-24T10:58:18Z</time>
      </trkpt>
      <trkpt lat="43.90185" lon="7.46767">
        <ele>609</ele>
        <time>2013-08-24T10:58:38Z</time>
      </trkpt>
      <trkpt lat="43.90176" lon="7.4677">
        <ele>609</ele>
        <time>2013-08-24T10:58:53Z</time>
      </trkpt>
      <trkpt lat="43.90167" lon="7.46771">
        <ele>609</ele>
        <time>2013-08-24T10:59:10Z</time>
      </trkpt>
      <trkpt lat="43.90158" lon="7.46775">
        <ele>609</ele>
        <time>2013-08-24T10:59:29Z</time>
      </trkpt>
      <trkpt lat="43.90148" lon="7.46775">
        <ele>609</ele>
        <time>2013-08-24T10:59:43Z</time>
      </trkpt>
      <trkpt lat="43.90139" lon="7.46779">
        <ele>609</ele>
        <time>2013-08-24T10:59:51Z</time>
      </trkpt>
      <trkpt lat="43.9013" lon="7.46787">
        <ele>609</ele>
        <time>2013-08-24T11:00:00Z</time>
      </trkpt>
      <trkpt lat="43.90121" lon="7.46789">
        <ele>603</ele>
        <time>2013-08-24T11:00:06Z</time>
      </trkpt>
      <trkpt lat="43.90111" lon="7.4679">
        <ele>597</ele>
        <time>2013-08-24T11:00:10Z</time>
      </trkpt>
      <trkpt lat="43.90102" lon="7.46789">
        <ele>591</ele>
        <time>2013-08-24T11:00:16Z</time>
      </trkpt>
      <trkpt lat="43.90103" lon="7.46802">
        <ele>591</ele>
        <time>2013-08-24T11:00:28Z</time>
      </trkpt>
      <trkpt lat="43.90094" lon="7.46811">
        <ele>585</ele>
        <time>2013-08-24T11:00:40Z</time>
      </trkpt>
      <trkpt lat="43.90089" lon="7.46822">
        <ele>585</ele>
        <time>2013-08-24T11:00:51Z</time>
      </trkpt>
      <trkpt lat="43.9008" lon="7.46824">
        <ele>585</ele>
        <time>2013-08-24T11:01:01Z</time>
      </trkpt>
      <trkpt lat="43.90071" lon="7.46825">
        <ele>578</ele>
        <time>2013-08-24T11:01:14Z</time>
      </trkpt>
      <trkpt lat="43.90062" lon="7.46826">
        <ele>578</ele>
        <time>2013-08-24T11:01:27Z</time>
      </trkpt>
      <trkpt lat="43.90053" lon="7.46826">
        <ele>578</ele>
        <time>2013-08-24T11:01:35Z</time>
      </trkpt>
      <trkpt lat="43.90044" lon="7.46826">
        <ele>578</ele>
        <time>2013-08-24T11:01:50Z</time>
      </trkpt>
      <trkpt lat="43.90036" lon="7.46818">
        <ele>578</ele>
        <time>2013-08-24T11:02:01Z</time>
      </trkpt>
      <trkpt lat="43.90026" lon="7.46816">
        <ele>568</ele>
        <time>2013-08-24T11:02:07Z</time>
      </trkpt>
      <trkpt lat="43.90017" lon="7.46814">
        <ele>568</ele>
        <time>2013-08-24T11:02:18Z</time>
      </trkpt>
      <trkpt lat="43.90009" lon="7.46807">
        <ele>568</ele>
        <time>2013-08-24T11:02:29Z</time>
      </trkpt>
      <trkpt lat="43.89999" lon="7.46803">
        <ele>568</ele>
        <time>2013-08-24T11:02:39Z</time>
      </trkpt>
      <trkpt lat="43.89992" lon="7.46795">
        <ele>568</ele>
        <time>2013-08-24T11:02:52Z</time>
      </trkpt>
      <trkpt lat="43.89984" lon="7.46804">
        <ele>582</ele>
        <time>2013-08-24T11:03:15Z</time>
      </trkpt>
      <trkpt lat="43.89975" lon="7.46802">
        <ele>582</ele>
        <time>2013-08-24T11:03:24Z</time>
      </trkpt>
      <trkpt lat="43.89966" lon="7.46802">
        <ele>582</ele>
        <time>2013-08-24T11:03:30Z</time>
      </trkpt>
      <trkpt lat="43.89957" lon="7.46802">
        <ele>575</ele>
        <time>2013-08-24T11:03:43Z</time>
      </trkpt>
      <trkpt lat="43.89947" lon="7.46802">
        <ele>575</ele>
        <time>2013-08-24T11:03:55Z</time>
      </trkpt>
      <trkpt lat="43.89938" lon="7.46799">
        <ele>575</ele>
        <time>2013-08-24T11:04:04Z</time>
      </trkpt>
      <trkpt lat="43.89928" lon="7.46802">
        <ele>575</ele>
        <time>2013-08-24T11:04:12Z</time>
      </trkpt>
      <trkpt lat="43.8992" lon="7.46796">
        <ele>575</ele>
        <time>2013-08-24T11:04:21Z</time>
      </trkpt>
      <trkpt lat="43.89911" lon="7.46794">
        <ele>569</ele>
        <time>2013-08-24T11:04:31Z</time>
      </trkpt>
      <trkpt lat="43.89902" lon="7.4679">
        <ele>569</ele>
        <time>2013-08-24T11:04:41Z</time>
      </trkpt>
      <trkpt lat="43.89893" lon="7.46783">
        <ele>575</ele>
        <time>2013-08-24T11:04:55Z</time>
      </trkpt>
      <trkpt lat="43.89885" lon="7.46775">
        <ele>575</ele>
        <time>2013-08-24T11:05:02Z</time>
      </trkpt>
      <trkpt lat="43.89877" lon="7.4677">
        <ele>575</ele>
        <time>2013-08-24T11:05:12Z</time>
      </trkpt>
      <trkpt lat="43.89869" lon="7.46765">
        <ele>575</ele>
        <time>2013-08-24T11:05:20Z</time>
      </trkpt>
      <trkpt lat="43.89861" lon="7.46757">
        <ele>575</ele>
        <time>2013-08-24T11:05:32Z</time>
      </trkpt>
      <trkpt lat="43.89852" lon="7.46762">
        <ele>585</ele>
        <time>2013-08-24T11:05:58Z</time>
      </trkpt>
      <trkpt lat="43.89842" lon="7.46761">
        <ele>585</ele>
        <time>2013-08-24T11:06:12Z</time>
      </trkpt>
      <trkpt lat="43.89833" lon="7.46757">
        <ele>585</ele>
        <time>2013-08-24T11:06:23Z</time>
      </trkpt>
      <trkpt lat="43.89824" lon="7.46751">
        <ele>585</ele>
        <time>2013-08-24T11:06:36Z</time>
      </trkpt>
      <trkpt lat="43.89815" lon="7.46751">
        <ele>585</ele>
        <time>2013-08-24T11:06:42Z</time>
      </trkpt>
      <trkpt lat="43.89807" lon="7.46743">
        <ele>576</ele>
        <time>2013-08-24T11:06:49Z</time>
      </trkpt>
      <trkpt lat="43.89798" lon="7.46739">
        <ele>576</ele>
        <time>2013-08-24T11:07:06Z</time>
      </trkpt>
      <trkpt lat="43.89789" lon="7.46734">
        <ele>584</ele>
        <time>2013-08-24T11:07:16Z</time>
      </trkpt>
      <trkpt lat="43.89781" lon="7.46726">
        <ele>584</ele>
        <time>2013-08-24T11:07:26Z</time>
      </trkpt>
      <trkpt lat="43.89774" lon="7.46718">
        <ele>584</ele>
        <time>2013-08-24T11:07:37Z</time>
      </trkpt>
      <trkpt lat="43.89767" lon="7.46711">
        <ele>584</ele>
        <time>2013-08-24T11:07:55Z</time>
      </trkpt>
      <trkpt lat="43.89759" lon="7.46704">
        <ele>593</ele>
        <time>2013-08-24T11:08:11Z</time>
      </trkpt>
      <trkpt lat="43.89753" lon="7.46694">
        <ele>593</ele>
        <time>2013-08-24T11:08:20Z</time>
      </trkpt>
      <trkpt lat="43.89745" lon="7.46687">
        <ele>593</ele>
        <time>2013-08-24T11:08:26Z</time>
      </trkpt>
      <trkpt lat="43.8974" lon="7.46676">
        <ele>586</ele>
        <time>2013-08-24T11:08:39Z</time>
      </trkpt>
      <trkpt lat="43.8973" lon="7.46673">
        <ele>595</ele>
        <time>2013-08-24T11:08:50Z</time>
      </trkpt>
      <trkpt lat="43.89722" lon="7.46667">
        <ele>601</ele>
        <time>2013-08-24T11:09:10Z</time>
      </trkpt>
      <trkpt lat="43.89715" lon="7.4666">
        <ele>601</ele>
        <time>2013-08-24T11:09:24Z</time>
      </trkpt>
      <trkpt lat="43.89709" lon="7.4665">
        <ele>601</ele>
        <time>2013-08-24T11:09:40Z</time>
      </trkpt>
      <trkpt lat="43.897" lon="7.46645">
        <ele>596</ele>
        <time>2013-08-24T11:09:47Z</time>
      </trkpt>
      <trkpt lat="43.89692" lon="7.46638">
        <ele>596</ele>
        <time>2013-08-24T11:09:58Z</time>
      </trkpt>
      <trkpt lat="43.89684" lon="7.46633">
        <ele>596</ele>
        <time>2013-08-24T11:10:07Z</time>
      </trkpt>
      <trkpt lat="43.89676" lon="7.46626">
        <ele>596</ele>
        <time>2013-08-24T11:10:23Z</time>
      </trkpt>
      <trkpt lat="43.89667" lon="7.46619">
        <ele>605</ele>
        <time>2013-08-24T11:10:45Z</time>
      </trkpt>
      <trkpt lat="43.8966" lon="7.46611">
        <ele>605</ele>
        <time>2013-08-24T11:10:53Z</time>
      </trkpt>
      <trkpt lat="43.89657" lon="7.466">
        <ele>605</ele>
        <time>2013-08-24T11:11:05Z</time>
      </trkpt>
      <trkpt lat="43.89655" lon="7.46586">
        <ele>614</ele>
        <time>2013-08-24T11:11:22Z</time>
      </trkpt>
      <trkpt lat="43.89646" lon="7.46581">
        <ele>614</ele>
        <time>2013-08-24T11:11:31Z</time>
      </trkpt>
      <trkpt lat="43.89638" lon="7.46576">
        <ele>609</ele>
        <time>2013-08-24T11:11:39Z</time>
      </trkpt>
      <trkpt lat="43.89637" lon="7.46563">
        <ele>609</ele>
        <time>2013-08-24T11:11:48Z</time>
      </trkpt>
      <trkpt lat="43.89632" lon="7.46552">
        <ele>609</ele>
        <time>2013-08-24T11:12:01Z</time>
      </trkpt>
      <trkpt lat="43.89628" lon="7.46539">
        <ele>609</ele>
        <time>2013-08-24T11:12:07Z</time>
      </trkpt>
      <trkpt lat="43.8962" lon="7.46531">
        <ele>603</ele>
        <time>2013-08-24T11:12:18Z</time>
      </trkpt>
      <trkpt lat="43.89613" lon="7.46522">
        <ele>603</ele>
        <time>2013-08-24T11:12:26Z</time>
      </trkpt>
      <trkpt lat="43.89618" lon="7.46512">
        <ele>603</ele>
        <time>2013-08-24T11:12:33Z</time>
      </trkpt>
      <trkpt lat="43.89613" lon="7.46502">
        <ele>615</ele>
        <time>2013-08-24T11:12:51Z</time>
      </trkpt>
      <trkpt lat="43.89611" lon="7.46489">
        <ele>615</ele>
        <time>2013-08-24T11:13:02Z</time>
      </trkpt>
      <trkpt lat="43.89609" lon="7.46475">
        <ele>615</ele>
        <time>2013-08-24T11:13:25Z</time>
      </trkpt>
      <trkpt lat="43.89601" lon="7.46469">
        <ele>615</ele>
        <time>2013-08-24T11:13:30Z</time>
      </trkpt>
      <trkpt lat="43.89594" lon="7.46458">
        <ele>622</ele>
        <time>2013-08-24T11:13:39Z</time>
      </trkpt>
      <trkpt lat="43.89589" lon="7.46445">
        <ele>622</ele>
        <time>2013-08-24T11:13:56Z</time>
      </trkpt>
      <trkpt lat="43.89583" lon="7.46435">
        <ele>622</ele>
        <time>2013-08-24T11:14:09Z</time>
      </trkpt>
      <trkpt lat="43.89576" lon="7.46426">
        <ele>622</ele>
        <time>2013-08-24T11:14:18Z</time>
      </trkpt>
      <trkpt lat="43.89571" lon="7.46416">
        <ele>622</ele>
        <time>2013-08-24T11:14:29Z</time>
      </trkpt>
      <trkpt lat="43.89566" lon="7.46406">
        <ele>622</ele>
        <time>2013-08-24T11:14:41Z</time>
      </trkpt>
      <trkpt lat="43.8956" lon="7.46395">
        <ele>622</ele>
        <time>2013-08-24T11:14:54Z</time>
      </trkpt>
      <trkpt lat="43.89553" lon="7.46388">
        <ele>622</ele>
        <time>2013-08-24T11:15:00Z</time>
      </trkpt>
      <trkpt lat="43.8955" lon="7.46376">
        <ele>617</ele>
        <time>2013-08-24T11:15:08Z</time>
      </trkpt>
      <trkpt lat="43.89545" lon="7.46365">
        <ele>617</ele>
        <time>2013-08-24T11:15:17Z</time>
      </trkpt>
      <trkpt lat="43.8954" lon="7.46355">
        <ele>622</ele>
        <time>2013-08-24T11:15:32Z</time>
      </trkpt>
      <trkpt lat="43.89533" lon="7.46346">
        <ele>622</ele>
        <time>2013-08-24T11:15:40Z</time>
      </trkpt>
      <trkpt lat="43.89527" lon="7.46337">
        <ele>622</ele>
        <time>2013-08-24T11:15:50Z</time>
      </trkpt>
      <trkpt lat="43.89518" lon="7.46337">
        <ele>622</ele>
        <time>2013-08-24T11:16:10Z</time>
      </trkpt>
      <trkpt lat="43.89511" lon="7.46328">
        <ele>612</ele>
        <time>2013-08-24T11:16:25Z</time>
      </trkpt>
      <trkpt lat="43.89504" lon="7.4632">
        <ele>612</ele>
        <time>2013-08-24T11:16:40Z</time>
      </trkpt>
      <trkpt lat="43.89496" lon="7.46327">
        <ele>602</ele>
        <time>2013-08-24T11:16:58Z</time>
      </trkpt>
      <trkpt lat="43.89495" lon="7.4634">
        <ele>602</ele>
        <time>2013-08-24T11:17:07Z</time>
      </trkpt>
      <trkpt lat="43.89486" lon="7.46338">
        <ele>594</ele>
        <time>2013-08-24T11:17:40Z</time>
      </trkpt>
      <trkpt lat="43.89481" lon="7.4635">
        <ele>594</ele>
        <time>2013-08-24T11:17:51Z</time>
      </trkpt>
      <trkpt lat="43.8948" lon="7.46363">
        <ele>594</ele>
        <time>2013-08-24T11:17:59Z</time>
      </trkpt>
      <trkpt lat="43.89479" lon="7.4635">
        <ele>585</ele>
        <time>2013-08-24T11:18:22Z</time>
      </trkpt>
      <trkpt lat="43.89472" lon="7.46341">
        <ele>579</ele>
        <time>2013-08-24T11:18:36Z</time>
      </trkpt>
      <trkpt lat="43.89469" lon="7.46353">
        <ele>579</ele>
        <time>2013-08-24T11:18:48Z</time>
      </trkpt>
      <trkpt lat="43.89466" lon="7.46364">
        <ele>579</ele>
        <time>2013-08-24T11:18:57Z</time>
      </trkpt>
      <trkpt lat="43.89461" lon="7.46374">
        <ele>579</ele>
        <time>2013-08-24T11:19:17Z</time>
      </trkpt>
      <trkpt lat="43.89455" lon="7.46383">
        <ele>572</ele>
        <time>2013-08-24T11:19:42Z</time>
      </trkpt>
      <trkpt lat="43.89453" lon="7.46397">
        <ele>572</ele>
        <time>2013-08-24T11:19:55Z</time>
      </trkpt>
      <trkpt lat="43.89444" lon="7.46387">
        <ele>561</ele>
        <time>2013-08-24T11:20:13Z</time>
      </trkpt>
      <trkpt lat="43.89435" lon="7.4639">
        <ele>561</ele>
        <time>2013-08-24T11:20:23Z</time>
      </trkpt>
      <trkpt lat="43.8943" lon="7.46379">
        <ele>561</ele>
        <time>2013-08-24T11:20:41Z</time>
      </trkpt>
      <trkpt lat="43.89422" lon="7.46373">
        <ele>561</ele>
        <time>2013-08-24T11:20:51Z</time>
      </trkpt>
      <trkpt lat="43.89414" lon="7.46365">
        <ele>554</ele>
        <time>2013-08-24T11:21:03Z</time>
      </trkpt>
      <trkpt lat="43.89405" lon="7.46365">
        <ele>539</ele>
        <time>2013-08-24T11:21:25Z</time>
      </trkpt>
      <trkpt lat="43.89396" lon="7.46362">
        <ele>544</ele>
        <time>2013-08-24T11:21:30Z</time>
      </trkpt>
      <trkpt lat="43.89387" lon="7.4636">
        <ele>554</ele>
        <time>2013-08-24T11:21:36Z</time>
      </trkpt>
      <trkpt lat="43.89392" lon="7.4635">
        <ele>546</ele>
        <time>2013-08-24T11:21:53Z</time>
      </trkpt>
      <trkpt lat="43.89382" lon="7.46351">
        <ele>534</ele>
        <time>2013-08-24T11:22:09Z</time>
      </trkpt>
      <trkpt lat="43.89373" lon="7.46355">
        <ele>524</ele>
        <time>2013-08-24T11:22:19Z</time>
      </trkpt>
      <trkpt lat="43.89371" lon="7.46367">
        <ele>518</ele>
        <time>2013-08-24T11:22:33Z</time>
      </trkpt>
      <trkpt lat="43.89362" lon="7.46368">
        <ele>524</ele>
        <time>2013-08-24T11:22:43Z</time>
      </trkpt>
      <trkpt lat="43.89356" lon="7.46358">
        <ele>524</ele>
        <time>2013-08-24T11:22:55Z</time>
      </trkpt>
      <trkpt lat="43.89347" lon="7.4636">
        <ele>511</ele>
        <time>2013-08-24T11:23:22Z</time>
      </trkpt>
      <trkpt lat="43.89338" lon="7.46367">
        <ele>511</ele>
        <time>2013-08-24T11:23:31Z</time>
      </trkpt>
      <trkpt lat="43.89329" lon="7.4637">
        <ele>511</ele>
        <time>2013-08-24T11:23:45Z</time>
      </trkpt>
      <trkpt lat="43.8932" lon="7.46372">
        <ele>493</ele>
        <time>2013-08-24T11:24:08Z</time>
      </trkpt>
      <trkpt lat="43.89319" lon="7.46385">
        <ele>493</ele>
        <time>2013-08-24T11:24:18Z</time>
      </trkpt>
      <trkpt lat="43.89314" lon="7.46395">
        <ele>493</ele>
        <time>2013-08-24T11:24:28Z</time>
      </trkpt>
      <trkpt lat="43.89309" lon="7.46405">
        <ele>493</ele>
        <time>2013-08-24T11:24:43Z</time>
      </trkpt>
      <trkpt lat="43.89307" lon="7.46422">
        <ele>493</ele>
        <time>2013-08-24T11:24:58Z</time>
      </trkpt>
      <trkpt lat="43.89298" lon="7.46423">
        <ele>493</ele>
        <time>2013-08-24T11:25:04Z</time>
      </trkpt>
      <trkpt lat="43.89296" lon="7.46411">
        <ele>493</ele>
        <time>2013-08-24T11:25:15Z</time>
      </trkpt>
      <trkpt lat="43.89305" lon="7.46416">
        <ele>493</ele>
        <time>2013-08-24T11:25:48Z</time>
      </trkpt>
      <trkpt lat="43.89296" lon="7.46425">
        <ele>499</ele>
        <time>2013-08-24T11:26:45Z</time>
      </trkpt>
      <trkpt lat="43.89305" lon="7.46423">
        <ele>499</ele>
        <time>2013-08-24T11:27:01Z</time>
      </trkpt>
      <trkpt lat="43.89314" lon="7.46423">
        <ele>489</ele>
        <time>2013-08-24T11:28:11Z</time>
      </trkpt>
      <trkpt lat="43.89305" lon="7.46423">
        <ele>489</ele>
        <time>2013-08-24T11:29:18Z</time>
      </trkpt>
      <trkpt lat="43.89312" lon="7.46416">
        <ele>464</ele>
        <time>2013-08-24T11:30:20Z</time>
      </trkpt>
      <trkpt lat="43.89303" lon="7.4642">
        <ele>483</ele>
        <time>2013-08-24T11:30:37Z</time>
      </trkpt>
      <trkpt lat="43.89296" lon="7.46413">
        <ele>503</ele>
        <time>2013-08-24T11:30:49Z</time>
      </trkpt>
      <trkpt lat="43.89286" lon="7.4641">
        <ele>503</ele>
        <time>2013-08-24T11:31:16Z</time>
      </trkpt>
      <trkpt lat="43.89277" lon="7.46407">
        <ele>496</ele>
        <time>2013-08-24T11:31:29Z</time>
      </trkpt>
      <trkpt lat="43.8927" lon="7.46397">
        <ele>478</ele>
        <time>2013-08-24T11:31:45Z</time>
      </trkpt>
      <trkpt lat="43.89265" lon="7.46386">
        <ele>478</ele>
        <time>2013-08-24T11:32:02Z</time>
      </trkpt>
      <trkpt lat="43.89258" lon="7.46376">
        <ele>478</ele>
        <time>2013-08-24T11:32:25Z</time>
      </trkpt>
      <trkpt lat="43.89253" lon="7.46365">
        <ele>472</ele>
        <time>2013-08-24T11:32:41Z</time>
      </trkpt>
      <trkpt lat="43.89253" lon="7.46353">
        <ele>460</ele>
        <time>2013-08-24T11:33:03Z</time>
      </trkpt>
      <trkpt lat="43.89244" lon="7.46352">
        <ele>460</ele>
        <time>2013-08-24T11:33:08Z</time>
      </trkpt>
      <trkpt lat="43.89253" lon="7.46349">
        <ele>454</ele>
        <time>2013-08-24T11:33:19Z</time>
      </trkpt>
      <trkpt lat="43.89244" lon="7.46345">
        <ele>454</ele>
        <time>2013-08-24T11:33:34Z</time>
      </trkpt>
      <trkpt lat="43.89244" lon="7.46332">
        <ele>454</ele>
        <time>2013-08-24T11:33:45Z</time>
      </trkpt>
      <trkpt lat="43.89236" lon="7.46324">
        <ele>454</ele>
        <time>2013-08-24T11:33:55Z</time>
      </trkpt>
      <trkpt lat="43.89238" lon="7.4631">
        <ele>454</ele>
        <time>2013-08-24T11:34:14Z</time>
      </trkpt>
      <trkpt lat="43.89242" lon="7.46297">
        <ele>454</ele>
        <time>2013-08-24T11:34:21Z</time>
      </trkpt>
      <trkpt lat="43.89241" lon="7.46284">
        <ele>454</ele>
        <time>2013-08-24T11:34:33Z</time>
      </trkpt>
      <trkpt lat="43.89233" lon="7.46276">
        <ele>454</ele>
        <time>2013-08-24T11:34:42Z</time>
      </trkpt>
      <trkpt lat="43.89225" lon="7.46266">
        <ele>454</ele>
        <time>2013-08-24T11:34:51Z</time>
      </trkpt>
      <trkpt lat="43.89217" lon="7.46259">
        <ele>454</ele>
        <time>2013-08-24T11:35:05Z</time>
      </trkpt>
      <trkpt lat="43.89207" lon="7.46258">
        <ele>460</ele>
        <time>2013-08-24T11:35:08Z</time>
      </trkpt>
      <trkpt lat="43.89217" lon="7.46261">
        <ele>460</ele>
        <time>2013-08-24T11:35:22Z</time>
      </trkpt>
      <trkpt lat="43.89227" lon="7.4626">
        <ele>448</ele>
        <time>2013-08-24T11:35:28Z</time>
      </trkpt>
      <trkpt lat="43.89216" lon="7.46257">
        <ele>448</ele>
        <time>2013-08-24T11:35:39Z</time>
      </trkpt>
      <trkpt lat="43.89202" lon="7.46259">
        <ele>448</ele>
        <time>2013-08-24T11:35:48Z</time>
      </trkpt>
      <trkpt lat="43.89187" lon="7.46254">
        <ele>448</ele>
        <time>2013-08-24T11:35:53Z</time>
      </trkpt>
      <trkpt lat="43.89173" lon="7.46253">
        <ele>448</ele>
        <time>2013-08-24T11:35:58Z</time>
      </trkpt>
      <trkpt lat="43.89185" lon="7.46265">
        <ele>448</ele>
        <time>2013-08-24T11:36:00Z</time>
      </trkpt>
      <trkpt lat="43.89192" lon="7.46275">
        <ele>448</ele>
        <time>2013-08-24T11:36:04Z</time>
      </trkpt>
      <trkpt lat="43.89206" lon="7.46277">
        <ele>439</ele>
        <time>2013-08-24T11:36:07Z</time>
      </trkpt>
      <trkpt lat="43.89197" lon="7.46282">
        <ele>439</ele>
        <time>2013-08-24T11:36:18Z</time>
      </trkpt>
      <trkpt lat="43.89188" lon="7.46284">
        <ele>439</ele>
        <time>2013-08-24T11:36:32Z</time>
      </trkpt>
      <trkpt lat="43.8918" lon="7.4628">
        <ele>439</ele>
        <time>2013-08-24T11:36:35Z</time>
      </trkpt>
      <trkpt lat="43.89191" lon="7.46285">
        <ele>439</ele>
        <time>2013-08-24T11:36:53Z</time>
      </trkpt>
      <trkpt lat="43.89203" lon="7.46281">
        <ele>430</ele>
        <time>2013-08-24T11:36:57Z</time>
      </trkpt>
      <trkpt lat="43.89212" lon="7.46279">
        <ele>422</ele>
        <time>2013-08-24T11:37:01Z</time>
      </trkpt>
      <trkpt lat="43.89222" lon="7.46276">
        <ele>412</ele>
        <time>2013-08-24T11:37:06Z</time>
      </trkpt>
      <trkpt lat="43.89233" lon="7.46274">
        <ele>403</ele>
        <time>2013-08-24T11:37:09Z</time>
      </trkpt>
      <trkpt lat="43.89224" lon="7.46279">
        <ele>414</ele>
        <time>2013-08-24T11:37:21Z</time>
      </trkpt>
      <trkpt lat="43.89233" lon="7.46275">
        <ele>404</ele>
        <time>2013-08-24T11:37:38Z</time>
      </trkpt>
      <trkpt lat="43.89226" lon="7.46283">
        <ele>419</ele>
        <time>2013-08-24T11:38:05Z</time>
      </trkpt>
      <trkpt lat="43.89218" lon="7.46291">
        <ele>435</ele>
        <time>2013-08-24T11:38:14Z</time>
      </trkpt>
      <trkpt lat="43.89209" lon="7.46291">
        <ele>444</ele>
        <time>2013-08-24T11:38:27Z</time>
      </trkpt>
      <trkpt lat="43.89213" lon="7.4628">
        <ele>415</ele>
        <time>2013-08-24T11:38:52Z</time>
      </trkpt>
      <trkpt lat="43.89222" lon="7.4628">
        <ele>415</ele>
        <time>2013-08-24T11:39:02Z</time>
      </trkpt>
      <trkpt lat="43.89231" lon="7.46281">
        <ele>404</ele>
        <time>2013-08-24T11:39:09Z</time>
      </trkpt>
      <trkpt lat="43.89222" lon="7.46282">
        <ele>416</ele>
        <time>2013-08-24T11:39:21Z</time>
      </trkpt>
      <trkpt lat="43.89212" lon="7.46283">
        <ele>431</ele>
        <time>2013-08-24T11:39:59Z</time>
      </trkpt>
      <trkpt lat="43.89223" lon="7.46284">
        <ele>416</ele>
        <time>2013-08-24T11:40:16Z</time>
      </trkpt>
      <trkpt lat="43.89214" lon="7.46283">
        <ele>416</ele>
        <time>2013-08-24T11:40:28Z</time>
      </trkpt>
      <trkpt lat="43.89204" lon="7.46284">
        <ele>427</ele>
        <time>2013-08-24T11:40:56Z</time>
      </trkpt>
      <trkpt lat="43.89213" lon="7.46286">
        <ele>427</ele>
        <time>2013-08-24T11:41:15Z</time>
      </trkpt>
      <trkpt lat="43.89204" lon="7.46285">
        <ele>447</ele>
        <time>2013-08-24T11:41:47Z</time>
      </trkpt>
      <trkpt lat="43.89214" lon="7.46285">
        <ele>429</ele>
        <time>2013-08-24T11:42:09Z</time>
      </trkpt>
      <trkpt lat="43.89205" lon="7.46284">
        <ele>429</ele>
        <time>2013-08-24T11:42:21Z</time>
      </trkpt>
      <trkpt lat="43.89214" lon="7.46285">
        <ele>441</ele>
        <time>2013-08-24T11:42:53Z</time>
      </trkpt>
      <trkpt lat="43.89204" lon="7.46288">
        <ele>464</ele>
        <time>2013-08-24T11:44:08Z</time>
      </trkpt>
      <trkpt lat="43.89199" lon="7.46299">
        <ele>464</ele>
        <time>2013-08-24T11:44:14Z</time>
      </trkpt>
      <trkpt lat="43.89208" lon="7.46295">
        <ele>464</ele>
        <time>2013-08-24T11:44:32Z</time>
      </trkpt>
      <trkpt lat="43.89199" lon="7.46294">
        <ele>464</ele>
        <time>2013-08-24T11:45:27Z</time>
      </trkpt>
      <trkpt lat="43.8919" lon="7.46298">
        <ele>470</ele>
        <time>2013-08-24T11:46:08Z</time>
      </trkpt>
      <trkpt lat="43.89197" lon="7.46289">
        <ele>451</ele>
        <time>2013-08-24T11:46:27Z</time>
      </trkpt>
      <trkpt lat="43.89205" lon="7.46279">
        <ele>438</ele>
        <time>2013-08-24T11:46:34Z</time>
      </trkpt>
      <trkpt lat="43.8921" lon="7.46266">
        <ele>420</ele>
        <time>2013-08-24T11:46:54Z</time>
      </trkpt>
      <trkpt lat="43.89203" lon="7.46275">
        <ele>420</ele>
        <time>2013-08-24T11:47:26Z</time>
      </trkpt>
      <trkpt lat="43.89197" lon="7.46286">
        <ele>436</ele>
        <time>2013-08-24T11:47:31Z</time>
      </trkpt>
      <trkpt lat="43.89188" lon="7.46296">
        <ele>463</ele>
        <time>2013-08-24T11:48:02Z</time>
      </trkpt>
      <trkpt lat="43.89186" lon="7.46312">
        <ele>463</ele>
        <time>2013-08-24T11:48:12Z</time>
      </trkpt>
      <trkpt lat="43.89186" lon="7.46325">
        <ele>455</ele>
        <time>2013-08-24T11:48:29Z</time>
      </trkpt>
      <trkpt lat="43.89179" lon="7.46331">
        <ele>455</ele>
        <time>2013-08-24T11:48:34Z</time>
      </trkpt>
      <trkpt lat="43.89169" lon="7.46334">
        <ele>455</ele>
        <time>2013-08-24T11:48:37Z</time>
      </trkpt>
      <trkpt lat="43.89178" lon="7.46339">
        <ele>440</ele>
        <time>2013-08-24T11:48:53Z</time>
      </trkpt>
      <trkpt lat="43.89188" lon="7.46342">
        <ele>432</ele>
        <time>2013-08-24T11:48:58Z</time>
      </trkpt>
      <trkpt lat="43.8918" lon="7.46351">
        <ele>432</ele>
        <time>2013-08-24T11:49:12Z</time>
      </trkpt>
      <trkpt lat="43.89171" lon="7.46363">
        <ele>444</ele>
        <time>2013-08-24T11:49:23Z</time>
      </trkpt>
      <trkpt lat="43.8916" lon="7.46362">
        <ele>451</ele>
        <time>2013-08-24T11:49:36Z</time>
      </trkpt>
      <trkpt lat="43.8916" lon="7.46374">
        <ele>465</ele>
        <time>2013-08-24T11:49:52Z</time>
      </trkpt>
      <trkpt lat="43.89169" lon="7.46377">
        <ele>471</ele>
        <time>2013-08-24T11:50:05Z</time>
      </trkpt>
      <trkpt lat="43.89173" lon="7.46364">
        <ele>471</ele>
        <time>2013-08-24T11:50:11Z</time>
      </trkpt>
      <trkpt lat="43.89182" lon="7.46358">
        <ele>459</ele>
        <time>2013-08-24T11:50:16Z</time>
      </trkpt>
      <trkpt lat="43.89187" lon="7.46347">
        <ele>453</ele>
        <time>2013-08-24T11:50:19Z</time>
      </trkpt>
      <trkpt lat="43.89194" lon="7.46337">
        <ele>448</ele>
        <time>2013-08-24T11:50:25Z</time>
      </trkpt>
      <trkpt lat="43.89196" lon="7.46323">
        <ele>448</ele>
        <time>2013-08-24T11:50:31Z</time>
      </trkpt>
      <trkpt lat="43.89197" lon="7.46311">
        <ele>448</ele>
        <time>2013-08-24T11:50:38Z</time>
      </trkpt>
      <trkpt lat="43.89188" lon="7.4631">
        <ele>448</ele>
        <time>2013-08-24T11:50:48Z</time>
      </trkpt>
      <trkpt lat="43.89181" lon="7.463">
        <ele>448</ele>
        <time>2013-08-24T11:50:55Z</time>
      </trkpt>
      <trkpt lat="43.89189" lon="7.46308">
        <ele>448</ele>
        <time>2013-08-24T11:50:58Z</time>
      </trkpt>
      <trkpt lat="43.89194" lon="7.46296">
        <ele>448</ele>
        <time>2013-08-24T11:51:02Z</time>
      </trkpt>
      <trkpt lat="43.89199" lon="7.46277">
        <ele>437</ele>
        <time>2013-08-24T11:51:12Z</time>
      </trkpt>
      <trkpt lat="43.89196" lon="7.46264">
        <ele>451</ele>
        <time>2013-08-24T11:51:23Z</time>
      </trkpt>
      <trkpt lat="43.89188" lon="7.46257">
        <ele>459</ele>
        <time>2013-08-24T11:51:28Z</time>
      </trkpt>
      <trkpt lat="43.89181" lon="7.46249">
        <ele>459</ele>
        <time>2013-08-24T11:51:35Z</time>
      </trkpt>
      <trkpt lat="43.89175" lon="7.46236">
        <ele>493</ele>
        <time>2013-08-24T11:51:50Z</time>
      </trkpt>
      <trkpt lat="43.89166" lon="7.46231">
        <ele>493</ele>
        <time>2013-08-24T11:51:58Z</time>
      </trkpt>
      <trkpt lat="43.89159" lon="7.46221">
        <ele>493</ele>
        <time>2013-08-24T11:52:06Z</time>
      </trkpt>
      <trkpt lat="43.89164" lon="7.46207">
        <ele>493</ele>
        <time>2013-08-24T11:52:14Z</time>
      </trkpt>
      <trkpt lat="43.89159" lon="7.46194">
        <ele>493</ele>
        <time>2013-08-24T11:52:21Z</time>
      </trkpt>
      <trkpt lat="43.89164" lon="7.4618">
        <ele>493</ele>
        <time>2013-08-24T11:52:30Z</time>
      </trkpt>
      <trkpt lat="43.8917" lon="7.46171">
        <ele>493</ele>
        <time>2013-08-24T11:52:42Z</time>
      </trkpt>
      <trkpt lat="43.8916" lon="7.46177">
        <ele>486</ele>
        <time>2013-08-24T11:52:49Z</time>
      </trkpt>
      <trkpt lat="43.89151" lon="7.4618">
        <ele>486</ele>
        <time>2013-08-24T11:52:54Z</time>
      </trkpt>
      <trkpt lat="43.89142" lon="7.46186">
        <ele>486</ele>
        <time>2013-08-24T11:53:01Z</time>
      </trkpt>
      <trkpt lat="43.89137" lon="7.46196">
        <ele>486</ele>
        <time>2013-08-24T11:53:09Z</time>
      </trkpt>
      <trkpt lat="43.8915" lon="7.46206">
        <ele>486</ele>
        <time>2013-08-24T11:53:25Z</time>
      </trkpt>
      <trkpt lat="43.89159" lon="7.46196">
        <ele>486</ele>
        <time>2013-08-24T11:53:42Z</time>
      </trkpt>
      <trkpt lat="43.8916" lon="7.46183">
        <ele>486</ele>
        <time>2013-08-24T11:53:54Z</time>
      </trkpt>
      <trkpt lat="43.89153" lon="7.46173">
        <ele>486</ele>
        <time>2013-08-24T11:54:03Z</time>
      </trkpt>
      <trkpt lat="43.89153" lon="7.4616">
        <ele>486</ele>
        <time>2013-08-24T11:54:18Z</time>
      </trkpt>
      <trkpt lat="43.89148" lon="7.4615">
        <ele>486</ele>
        <time>2013-08-24T11:54:23Z</time>
      </trkpt>
      <trkpt lat="43.89138" lon="7.4615">
        <ele>486</ele>
        <time>2013-08-24T11:54:44Z</time>
      </trkpt>
      <trkpt lat="43.89131" lon="7.46143">
        <ele>486</ele>
        <time>2013-08-24T11:55:00Z</time>
      </trkpt>
      <trkpt lat="43.8914" lon="7.46144">
        <ele>486</ele>
        <time>2013-08-24T11:55:05Z</time>
      </trkpt>
      <trkpt lat="43.89151" lon="7.46145">
        <ele>486</ele>
        <time>2013-08-24T11:55:09Z</time>
      </trkpt>
      <trkpt lat="43.89142" lon="7.46144">
        <ele>475</ele>
        <time>2013-08-24T11:55:25Z</time>
      </trkpt>
      <trkpt lat="43.89149" lon="7.46153">
        <ele>475</ele>
        <time>2013-08-24T11:55:43Z</time>
      </trkpt>
      <trkpt lat="43.8916" lon="7.4616">
        <ele>475</ele>
        <time>2013-08-24T11:55:57Z</time>
      </trkpt>
      <trkpt lat="43.8916" lon="7.46147">
        <ele>475</ele>
        <time>2013-08-24T11:55:58Z</time>
      </trkpt>
      <trkpt lat="43.89164" lon="7.46132">
        <ele>475</ele>
        <time>2013-08-24T11:56:02Z</time>
      </trkpt>
      <trkpt lat="43.89157" lon="7.46142">
        <ele>467</ele>
        <time>2013-08-24T11:56:09Z</time>
      </trkpt>
      <trkpt lat="43.89147" lon="7.46148">
        <ele>467</ele>
        <time>2013-08-24T11:56:11Z</time>
      </trkpt>
      <trkpt lat="43.89145" lon="7.4616">
        <ele>467</ele>
        <time>2013-08-24T11:56:21Z</time>
      </trkpt>
      <trkpt lat="43.89142" lon="7.46172">
        <ele>467</ele>
        <time>2013-08-24T11:56:28Z</time>
      </trkpt>
      <trkpt lat="43.89151" lon="7.46178">
        <ele>467</ele>
        <time>2013-08-24T11:56:33Z</time>
      </trkpt>
      <trkpt lat="43.89155" lon="7.46189">
        <ele>467</ele>
        <time>2013-08-24T11:56:41Z</time>
      </trkpt>
      <trkpt lat="43.89152" lon="7.46201">
        <ele>467</ele>
        <time>2013-08-24T11:56:55Z</time>
      </trkpt>
      <trkpt lat="43.89162" lon="7.46185">
        <ele>467</ele>
        <time>2013-08-24T11:57:01Z</time>
      </trkpt>
      <trkpt lat="43.89172" lon="7.46178">
        <ele>467</ele>
        <time>2013-08-24T11:57:03Z</time>
      </trkpt>
      <trkpt lat="43.89182" lon="7.46176">
        <ele>467</ele>
        <time>2013-08-24T11:57:10Z</time>
      </trkpt>
      <trkpt lat="43.89172" lon="7.46185">
        <ele>467</ele>
        <time>2013-08-24T11:57:19Z</time>
      </trkpt>
      <trkpt lat="43.89163" lon="7.46195">
        <ele>467</ele>
        <time>2013-08-24T11:57:22Z</time>
      </trkpt>
      <trkpt lat="43.89145" lon="7.46207">
        <ele>467</ele>
        <time>2013-08-24T11:57:28Z</time>
      </trkpt>
      <trkpt lat="43.8914" lon="7.46218">
        <ele>467</ele>
        <time>2013-08-24T11:57:52Z</time>
      </trkpt>
      <trkpt lat="43.89179" lon="7.46196">
        <ele>467</ele>
        <time>2013-08-24T11:58:05Z</time>
      </trkpt>
      <trkpt lat="43.89166" lon="7.46196">
        <ele>467</ele>
        <time>2013-08-24T11:58:08Z</time>
      </trkpt>
      <trkpt lat="43.89161" lon="7.46209">
        <ele>467</ele>
        <time>2013-08-24T11:58:13Z</time>
      </trkpt>
      <trkpt lat="43.89148" lon="7.46211">
        <ele>467</ele>
        <time>2013-08-24T11:58:15Z</time>
      </trkpt>
      <trkpt lat="43.89152" lon="7.46222">
        <ele>467</ele>
        <time>2013-08-24T11:58:29Z</time>
      </trkpt>
      <trkpt lat="43.8916" lon="7.46229">
        <ele>467</ele>
        <time>2013-08-24T11:58:41Z</time>
      </trkpt>
      <trkpt lat="43.89155" lon="7.4624">
        <ele>467</ele>
        <time>2013-08-24T11:58:51Z</time>
      </trkpt>
      <trkpt lat="43.89155" lon="7.46254">
        <ele>467</ele>
        <time>2013-08-24T11:59:13Z</time>
      </trkpt>
      <trkpt lat="43.89147" lon="7.4626">
        <ele>467</ele>
        <time>2013-08-24T11:59:16Z</time>
      </trkpt>
      <trkpt lat="43.89143" lon="7.46275">
        <ele>467</ele>
        <time>2013-08-24T11:59:24Z</time>
      </trkpt>
      <trkpt lat="43.89157" lon="7.46283">
        <ele>467</ele>
        <time>2013-08-24T11:59:30Z</time>
      </trkpt>
      <trkpt lat="43.89155" lon="7.46295">
        <ele>467</ele>
        <time>2013-08-24T11:59:41Z</time>
      </trkpt>
      <trkpt lat="43.89148" lon="7.46308">
        <ele>467</ele>
        <time>2013-08-24T11:59:48Z</time>
      </trkpt>
      <trkpt lat="43.89158" lon="7.46306">
        <ele>467</ele>
        <time>2013-08-24T11:59:51Z</time>
      </trkpt>
      <trkpt lat="43.89168" lon="7.46303">
        <ele>458</ele>
        <time>2013-08-24T11:59:58Z</time>
      </trkpt>
      <trkpt lat="43.89159" lon="7.46306">
        <ele>452</ele>
        <time>2013-08-24T12:00:07Z</time>
      </trkpt>
      <trkpt lat="43.89168" lon="7.46297">
        <ele>452</ele>
        <time>2013-08-24T12:00:14Z</time>
      </trkpt>
      <trkpt lat="43.89159" lon="7.46297">
        <ele>452</ele>
        <time>2013-08-24T12:00:21Z</time>
      </trkpt>
      <trkpt lat="43.8917" lon="7.46293">
        <ele>452</ele>
        <time>2013-08-24T12:00:34Z</time>
      </trkpt>
      <trkpt lat="43.89158" lon="7.46296">
        <ele>452</ele>
        <time>2013-08-24T12:00:43Z</time>
      </trkpt>
      <trkpt lat="43.89149" lon="7.463">
        <ele>452</ele>
        <time>2013-08-24T12:00:54Z</time>
      </trkpt>
      <trkpt lat="43.89158" lon="7.46304">
        <ele>452</ele>
        <time>2013-08-24T12:01:20Z</time>
      </trkpt>
      <trkpt lat="43.89166" lon="7.463">
        <ele>452</ele>
        <time>2013-08-24T12:01:37Z</time>
      </trkpt>
      <trkpt lat="43.89158" lon="7.46303">
        <ele>459</ele>
        <time>2013-08-24T12:02:41Z</time>
      </trkpt>
      <trkpt lat="43.8916" lon="7.46315">
        <ele>470</ele>
        <time>2013-08-24T12:03:30Z</time>
      </trkpt>
      <trkpt lat="43.89159" lon="7.46302">
        <ele>461</ele>
        <time>2013-08-24T12:03:48Z</time>
      </trkpt>
      <trkpt lat="43.89157" lon="7.46314">
        <ele>461</ele>
        <time>2013-08-24T12:04:09Z</time>
      </trkpt>
      <trkpt lat="43.89158" lon="7.46302">
        <ele>461</ele>
        <time>2013-08-24T12:04:28Z</time>
      </trkpt>
      <trkpt lat="43.89163" lon="7.46311">
        <ele>461</ele>
        <time>2013-08-24T12:05:04Z</time>
      </trkpt>
      <trkpt lat="43.89167" lon="7.46299">
        <ele>449</ele>
        <time>2013-08-24T12:05:26Z</time>
      </trkpt>
      <trkpt lat="43.89175" lon="7.46303">
        <ele>440</ele>
        <time>2013-08-24T12:05:54Z</time>
      </trkpt>
      <trkpt lat="43.8917" lon="7.46293">
        <ele>440</ele>
        <time>2013-08-24T12:06:07Z</time>
      </trkpt>
      <trkpt lat="43.8917" lon="7.4628">
        <ele>440</ele>
        <time>2013-08-24T12:06:29Z</time>
      </trkpt>
      <trkpt lat="43.89166" lon="7.46269">
        <ele>440</ele>
        <time>2013-08-24T12:06:37Z</time>
      </trkpt>
      <trkpt lat="43.89168" lon="7.46256">
        <ele>440</ele>
        <time>2013-08-24T12:06:50Z</time>
      </trkpt>
      <trkpt lat="43.89171" lon="7.46244">
        <ele>440</ele>
        <time>2013-08-24T12:06:55Z</time>
      </trkpt>
      <trkpt lat="43.89173" lon="7.46231">
        <ele>430</ele>
        <time>2013-08-24T12:07:06Z</time>
      </trkpt>
      <trkpt lat="43.89172" lon="7.46218">
        <ele>430</ele>
        <time>2013-08-24T12:07:12Z</time>
      </trkpt>
      <trkpt lat="43.89182" lon="7.46202">
        <ele>430</ele>
        <time>2013-08-24T12:07:23Z</time>
      </trkpt>
      <trkpt lat="43.89175" lon="7.46193">
        <ele>430</ele>
        <time>2013-08-24T12:07:25Z</time>
      </trkpt>
      <trkpt lat="43.89166" lon="7.46193">
        <ele>418</ele>
        <time>2013-08-24T12:07:40Z</time>
      </trkpt>
      <trkpt lat="43.89164" lon="7.46214">
        <ele>418</ele>
        <time>2013-08-24T12:07:49Z</time>
      </trkpt>
      <trkpt lat="43.89166" lon="7.46229">
        <ele>418</ele>
        <time>2013-08-24T12:07:51Z</time>
      </trkpt>
      <trkpt lat="43.89167" lon="7.46211">
        <ele>418</ele>
        <time>2013-08-24T12:07:55Z</time>
      </trkpt>
      <trkpt lat="43.89175" lon="7.462">
        <ele>410</ele>
        <time>2013-08-24T12:07:59Z</time>
      </trkpt>
      <trkpt lat="43.89179" lon="7.46188">
        <ele>394</ele>
        <time>2013-08-24T12:08:07Z</time>
      </trkpt>
      <trkpt lat="43.8917" lon="7.46186">
        <ele>384</ele>
        <time>2013-08-24T12:08:16Z</time>
      </trkpt>
      <trkpt lat="43.89156" lon="7.46182">
        <ele>384</ele>
        <time>2013-08-24T12:08:39Z</time>
      </trkpt>
      <trkpt lat="43.89165" lon="7.46187">
        <ele>390</ele>
        <time>2013-08-24T12:08:48Z</time>
      </trkpt>
      <trkpt lat="43.89177" lon="7.46183">
        <ele>390</ele>
        <time>2013-08-24T12:08:52Z</time>
      </trkpt>
      <trkpt lat="43.89186" lon="7.4618">
        <ele>390</ele>
        <time>2013-08-24T12:08:54Z</time>
      </trkpt>
      <trkpt lat="43.89194" lon="7.46189">
        <ele>390</ele>
        <time>2013-08-24T12:08:58Z</time>
      </trkpt>
      <trkpt lat="43.89194" lon="7.46177">
        <ele>390</ele>
        <time>2013-08-24T12:09:21Z</time>
      </trkpt>
      <trkpt lat="43.89188" lon="7.46189">
        <ele>390</ele>
        <time>2013-08-24T12:09:32Z</time>
      </trkpt>
      <trkpt lat="43.8919" lon="7.46178">
        <ele>390</ele>
        <time>2013-08-24T12:10:11Z</time>
      </trkpt>
      <trkpt lat="43.89184" lon="7.46168">
        <ele>390</ele>
        <time>2013-08-24T12:10:19Z</time>
      </trkpt>
      <trkpt lat="43.89181" lon="7.46155">
        <ele>390</ele>
        <time>2013-08-24T12:10:27Z</time>
      </trkpt>
      <trkpt lat="43.89178" lon="7.46143">
        <ele>390</ele>
        <time>2013-08-24T12:10:34Z</time>
      </trkpt>
      <trkpt lat="43.89182" lon="7.46131">
        <ele>383</ele>
        <time>2013-08-24T12:10:49Z</time>
      </trkpt>
      <trkpt lat="43.8918" lon="7.46116">
        <ele>390</ele>
        <time>2013-08-24T12:11:00Z</time>
      </trkpt>
      <trkpt lat="43.8918" lon="7.46104">
        <ele>407</ele>
        <time>2013-08-24T12:11:12Z</time>
      </trkpt>
      <trkpt lat="43.8918" lon="7.4609">
        <ele>414</ele>
        <time>2013-08-24T12:11:20Z</time>
      </trkpt>
      <trkpt lat="43.89181" lon="7.46077">
        <ele>420</ele>
        <time>2013-08-24T12:11:26Z</time>
      </trkpt>
      <trkpt lat="43.89183" lon="7.46064">
        <ele>426</ele>
        <time>2013-08-24T12:11:34Z</time>
      </trkpt>
      <trkpt lat="43.89187" lon="7.46053">
        <ele>433</ele>
        <time>2013-08-24T12:11:44Z</time>
      </trkpt>
      <trkpt lat="43.89192" lon="7.4604">
        <ele>433</ele>
        <time>2013-08-24T12:11:53Z</time>
      </trkpt>
      <trkpt lat="43.89196" lon="7.46028">
        <ele>433</ele>
        <time>2013-08-24T12:12:00Z</time>
      </trkpt>
      <trkpt lat="43.89203" lon="7.46019">
        <ele>433</ele>
        <time>2013-08-24T12:12:09Z</time>
      </trkpt>
      <trkpt lat="43.89208" lon="7.46008">
        <ele>439</ele>
        <time>2013-08-24T12:12:20Z</time>
      </trkpt>
      <trkpt lat="43.89211" lon="7.45993">
        <ele>439</ele>
        <time>2013-08-24T12:12:26Z</time>
      </trkpt>
      <trkpt lat="43.89218" lon="7.45984">
        <ele>439</ele>
        <time>2013-08-24T12:12:33Z</time>
      </trkpt>
      <trkpt lat="43.89221" lon="7.45971">
        <ele>439</ele>
        <time>2013-08-24T12:12:44Z</time>
      </trkpt>
      <trkpt lat="43.89223" lon="7.45959">
        <ele>451</ele>
        <time>2013-08-24T12:12:58Z</time>
      </trkpt>
      <trkpt lat="43.89226" lon="7.45948">
        <ele>451</ele>
        <time>2013-08-24T12:13:05Z</time>
      </trkpt>
      <trkpt lat="43.89231" lon="7.45935">
        <ele>451</ele>
        <time>2013-08-24T12:13:15Z</time>
      </trkpt>
      <trkpt lat="43.89222" lon="7.45931">
        <ele>457</ele>
        <time>2013-08-24T12:13:31Z</time>
      </trkpt>
      <trkpt lat="43.89216" lon="7.45943">
        <ele>457</ele>
        <time>2013-08-24T12:13:45Z</time>
      </trkpt>
      <trkpt lat="43.89212" lon="7.45955">
        <ele>457</ele>
        <time>2013-08-24T12:13:52Z</time>
      </trkpt>
      <trkpt lat="43.89221" lon="7.45951">
        <ele>471</ele>
        <time>2013-08-24T12:14:14Z</time>
      </trkpt>
      <trkpt lat="43.89212" lon="7.45957">
        <ele>471</ele>
        <time>2013-08-24T12:14:27Z</time>
      </trkpt>
      <trkpt lat="43.89212" lon="7.45969">
        <ele>492</ele>
        <time>2013-08-24T12:15:34Z</time>
      </trkpt>
      <trkpt lat="43.89216" lon="7.4598">
        <ele>492</ele>
        <time>2013-08-24T12:16:23Z</time>
      </trkpt>
      <trkpt lat="43.89218" lon="7.45966">
        <ele>486</ele>
        <time>2013-08-24T12:16:47Z</time>
      </trkpt>
      <trkpt lat="43.89207" lon="7.45965">
        <ele>471</ele>
        <time>2013-08-24T12:17:25Z</time>
      </trkpt>
      <trkpt lat="43.89206" lon="7.45977">
        <ele>465</ele>
        <time>2013-08-24T12:17:35Z</time>
      </trkpt>
      <trkpt lat="43.89197" lon="7.45985">
        <ele>465</ele>
        <time>2013-08-24T12:17:42Z</time>
      </trkpt>
      <trkpt lat="43.89194" lon="7.45997">
        <ele>457</ele>
        <time>2013-08-24T12:17:49Z</time>
      </trkpt>
      <trkpt lat="43.8919" lon="7.46009">
        <ele>457</ele>
        <time>2013-08-24T12:17:59Z</time>
      </trkpt>
      <trkpt lat="43.89186" lon="7.46019">
        <ele>457</ele>
        <time>2013-08-24T12:18:05Z</time>
      </trkpt>
      <trkpt lat="43.8918" lon="7.46029">
        <ele>457</ele>
        <time>2013-08-24T12:18:15Z</time>
      </trkpt>
      <trkpt lat="43.89176" lon="7.46043">
        <ele>452</ele>
        <time>2013-08-24T12:18:23Z</time>
      </trkpt>
      <trkpt lat="43.89172" lon="7.46054">
        <ele>452</ele>
        <time>2013-08-24T12:18:30Z</time>
      </trkpt>
      <trkpt lat="43.89167" lon="7.46064">
        <ele>452</ele>
        <time>2013-08-24T12:18:38Z</time>
      </trkpt>
      <trkpt lat="43.89162" lon="7.46074">
        <ele>452</ele>
        <time>2013-08-24T12:18:46Z</time>
      </trkpt>
      <trkpt lat="43.89159" lon="7.46087">
        <ele>452</ele>
        <time>2013-08-24T12:18:54Z</time>
      </trkpt>
      <trkpt lat="43.89151" lon="7.46096">
        <ele>452</ele>
        <time>2013-08-24T12:19:05Z</time>
      </trkpt>
      <trkpt lat="43.89149" lon="7.46109">
        <ele>452</ele>
        <time>2013-08-24T12:19:15Z</time>
      </trkpt>
      <trkpt lat="43.89151" lon="7.46123">
        <ele>452</ele>
        <time>2013-08-24T12:19:21Z</time>
      </trkpt>
      <trkpt lat="43.89149" lon="7.46137">
        <ele>445</ele>
        <time>2013-08-24T12:19:29Z</time>
      </trkpt>
      <trkpt lat="43.89148" lon="7.46151">
        <ele>439</ele>
        <time>2013-08-24T12:19:36Z</time>
      </trkpt>
      <trkpt lat="43.89151" lon="7.46162">
        <ele>457</ele>
        <time>2013-08-24T12:19:44Z</time>
      </trkpt>
      <trkpt lat="43.89156" lon="7.46173">
        <ele>479</ele>
        <time>2013-08-24T12:19:57Z</time>
      </trkpt>
      <trkpt lat="43.89162" lon="7.46185">
        <ele>491</ele>
        <time>2013-08-24T12:20:06Z</time>
      </trkpt>
      <trkpt lat="43.89165" lon="7.46197">
        <ele>491</ele>
        <time>2013-08-24T12:20:13Z</time>
      </trkpt>
      <trkpt lat="43.89159" lon="7.46206">
        <ele>491</ele>
        <time>2013-08-24T12:20:30Z</time>
      </trkpt>
      <trkpt lat="43.89155" lon="7.4622">
        <ele>467</ele>
        <time>2013-08-24T12:20:40Z</time>
      </trkpt>
      <trkpt lat="43.89151" lon="7.46232">
        <ele>451</ele>
        <time>2013-08-24T12:20:46Z</time>
      </trkpt>
      <trkpt lat="43.89151" lon="7.46246">
        <ele>451</ele>
        <time>2013-08-24T12:20:57Z</time>
      </trkpt>
      <trkpt lat="43.89157" lon="7.46256">
        <ele>466</ele>
        <time>2013-08-24T12:21:07Z</time>
      </trkpt>
      <trkpt lat="43.89158" lon="7.46268">
        <ele>466</ele>
        <time>2013-08-24T12:21:14Z</time>
      </trkpt>
      <trkpt lat="43.89159" lon="7.46282">
        <ele>472</ele>
        <time>2013-08-24T12:21:23Z</time>
      </trkpt>
      <trkpt lat="43.89156" lon="7.46293">
        <ele>463</ele>
        <time>2013-08-24T12:21:29Z</time>
      </trkpt>
      <trkpt lat="43.89156" lon="7.46309">
        <ele>463</ele>
        <time>2013-08-24T12:21:38Z</time>
      </trkpt>
      <trkpt lat="43.89149" lon="7.46316">
        <ele>453</ele>
        <time>2013-08-24T12:21:42Z</time>
      </trkpt>
      <trkpt lat="43.89151" lon="7.46329">
        <ele>453</ele>
        <time>2013-08-24T12:21:50Z</time>
      </trkpt>
      <trkpt lat="43.89147" lon="7.4634">
        <ele>453</ele>
        <time>2013-08-24T12:21:59Z</time>
      </trkpt>
      <trkpt lat="43.89141" lon="7.4635">
        <ele>459</ele>
        <time>2013-08-24T12:22:09Z</time>
      </trkpt>
      <trkpt lat="43.89134" lon="7.46359">
        <ele>459</ele>
        <time>2013-08-24T12:22:19Z</time>
      </trkpt>
      <trkpt lat="43.89127" lon="7.46368">
        <ele>452</ele>
        <time>2013-08-24T12:22:24Z</time>
      </trkpt>
      <trkpt lat="43.89121" lon="7.46378">
        <ele>452</ele>
        <time>2013-08-24T12:22:34Z</time>
      </trkpt>
      <trkpt lat="43.89112" lon="7.46381">
        <ele>467</ele>
        <time>2013-08-24T12:22:46Z</time>
      </trkpt>
      <trkpt lat="43.89107" lon="7.46393">
        <ele>467</ele>
        <time>2013-08-24T12:22:55Z</time>
      </trkpt>
      <trkpt lat="43.89099" lon="7.46403">
        <ele>457</ele>
        <time>2013-08-24T12:23:03Z</time>
      </trkpt>
      <trkpt lat="43.89092" lon="7.46413">
        <ele>457</ele>
        <time>2013-08-24T12:23:12Z</time>
      </trkpt>
      <trkpt lat="43.89087" lon="7.46425">
        <ele>450</ele>
        <time>2013-08-24T12:23:20Z</time>
      </trkpt>
      <trkpt lat="43.89078" lon="7.46429">
        <ele>459</ele>
        <time>2013-08-24T12:23:32Z</time>
      </trkpt>
      <trkpt lat="43.89069" lon="7.46434">
        <ele>459</ele>
        <time>2013-08-24T12:23:38Z</time>
      </trkpt>
      <trkpt lat="43.89065" lon="7.46446">
        <ele>447</ele>
        <time>2013-08-24T12:23:44Z</time>
      </trkpt>
      <trkpt lat="43.89055" lon="7.46451">
        <ele>460</ele>
        <time>2013-08-24T12:23:54Z</time>
      </trkpt>
      <trkpt lat="43.89047" lon="7.4646">
        <ele>460</ele>
        <time>2013-08-24T12:24:03Z</time>
      </trkpt>
      <trkpt lat="43.89039" lon="7.46467">
        <ele>453</ele>
        <time>2013-08-24T12:24:11Z</time>
      </trkpt>
      <trkpt lat="43.89032" lon="7.46476">
        <ele>453</ele>
        <time>2013-08-24T12:24:20Z</time>
      </trkpt>
      <trkpt lat="43.89024" lon="7.46484">
        <ele>443</ele>
        <time>2013-08-24T12:24:26Z</time>
      </trkpt>
      <trkpt lat="43.89017" lon="7.46491">
        <ele>452</ele>
        <time>2013-08-24T12:24:34Z</time>
      </trkpt>
      <trkpt lat="43.8901" lon="7.46502">
        <ele>458</ele>
        <time>2013-08-24T12:24:43Z</time>
      </trkpt>
      <trkpt lat="43.89004" lon="7.46514">
        <ele>464</ele>
        <time>2013-08-24T12:24:51Z</time>
      </trkpt>
      <trkpt lat="43.88995" lon="7.46522">
        <ele>464</ele>
        <time>2013-08-24T12:25:00Z</time>
      </trkpt>
      <trkpt lat="43.88984" lon="7.46525">
        <ele>464</ele>
        <time>2013-08-24T12:25:06Z</time>
      </trkpt>
      <trkpt lat="43.88976" lon="7.46532">
        <ele>464</ele>
        <time>2013-08-24T12:25:15Z</time>
      </trkpt>
      <trkpt lat="43.88966" lon="7.46532">
        <ele>471</ele>
        <time>2013-08-24T12:25:23Z</time>
      </trkpt>
      <trkpt lat="43.88958" lon="7.46526">
        <ele>484</ele>
        <time>2013-08-24T12:25:34Z</time>
      </trkpt>
      <trkpt lat="43.88949" lon="7.46522">
        <ele>494</ele>
        <time>2013-08-24T12:25:43Z</time>
      </trkpt>
      <trkpt lat="43.8894" lon="7.46523">
        <ele>472</ele>
        <time>2013-08-24T12:25:52Z</time>
      </trkpt>
      <trkpt lat="43.8893" lon="7.46526">
        <ele>460</ele>
        <time>2013-08-24T12:25:57Z</time>
      </trkpt>
      <trkpt lat="43.88921" lon="7.4653">
        <ele>460</ele>
        <time>2013-08-24T12:26:13Z</time>
      </trkpt>
      <trkpt lat="43.8891" lon="7.46537">
        <ele>460</ele>
        <time>2013-08-24T12:26:17Z</time>
      </trkpt>
      <trkpt lat="43.88903" lon="7.46546">
        <ele>441</ele>
        <time>2013-08-24T12:26:27Z</time>
      </trkpt>
      <trkpt lat="43.88899" lon="7.46557">
        <ele>453</ele>
        <time>2013-08-24T12:26:33Z</time>
      </trkpt>
      <trkpt lat="43.88892" lon="7.46567">
        <ele>467</ele>
        <time>2013-08-24T12:26:41Z</time>
      </trkpt>
      <trkpt lat="43.88885" lon="7.46577">
        <ele>461</ele>
        <time>2013-08-24T12:26:48Z</time>
      </trkpt>
      <trkpt lat="43.88875" lon="7.46582">
        <ele>461</ele>
        <time>2013-08-24T12:26:57Z</time>
      </trkpt>
      <trkpt lat="43.88866" lon="7.46587">
        <ele>456</ele>
        <time>2013-08-24T12:27:06Z</time>
      </trkpt>
      <trkpt lat="43.88858" lon="7.46596">
        <ele>463</ele>
        <time>2013-08-24T12:27:13Z</time>
      </trkpt>
      <trkpt lat="43.88849" lon="7.46601">
        <ele>463</ele>
        <time>2013-08-24T12:27:18Z</time>
      </trkpt>
      <trkpt lat="43.88839" lon="7.46603">
        <ele>463</ele>
        <time>2013-08-24T12:27:32Z</time>
      </trkpt>
      <trkpt lat="43.88848" lon="7.46595">
        <ele>463</ele>
        <time>2013-08-24T12:27:39Z</time>
      </trkpt>
      <trkpt lat="43.8884" lon="7.466">
        <ele>443</ele>
        <time>2013-08-24T12:28:06Z</time>
      </trkpt>
      <trkpt lat="43.88831" lon="7.46607">
        <ele>454</ele>
        <time>2013-08-24T12:28:11Z</time>
      </trkpt>
      <trkpt lat="43.88822" lon="7.46612">
        <ele>454</ele>
        <time>2013-08-24T12:28:18Z</time>
      </trkpt>
      <trkpt lat="43.88812" lon="7.46618">
        <ele>454</ele>
        <time>2013-08-24T12:28:25Z</time>
      </trkpt>
      <trkpt lat="43.88803" lon="7.46626">
        <ele>454</ele>
        <time>2013-08-24T12:28:33Z</time>
      </trkpt>
      <trkpt lat="43.88793" lon="7.4663">
        <ele>464</ele>
        <time>2013-08-24T12:28:44Z</time>
      </trkpt>
      <trkpt lat="43.88784" lon="7.46635">
        <ele>464</ele>
        <time>2013-08-24T12:28:51Z</time>
      </trkpt>
      <trkpt lat="43.88773" lon="7.46635">
        <ele>471</ele>
        <time>2013-08-24T12:29:01Z</time>
      </trkpt>
      <trkpt lat="43.88763" lon="7.46637">
        <ele>462</ele>
        <time>2013-08-24T12:29:08Z</time>
      </trkpt>
      <trkpt lat="43.88754" lon="7.46643">
        <ele>462</ele>
        <time>2013-08-24T12:29:13Z</time>
      </trkpt>
      <trkpt lat="43.88745" lon="7.46648">
        <ele>443</ele>
        <time>2013-08-24T12:29:25Z</time>
      </trkpt>
      <trkpt lat="43.88734" lon="7.46649">
        <ele>433</ele>
        <time>2013-08-24T12:29:32Z</time>
      </trkpt>
      <trkpt lat="43.88725" lon="7.46656">
        <ele>442</ele>
        <time>2013-08-24T12:29:41Z</time>
      </trkpt>
      <trkpt lat="43.88719" lon="7.46666">
        <ele>442</ele>
        <time>2013-08-24T12:29:50Z</time>
      </trkpt>
      <trkpt lat="43.8871" lon="7.4667">
        <ele>442</ele>
        <time>2013-08-24T12:29:58Z</time>
      </trkpt>
      <trkpt lat="43.88699" lon="7.4667">
        <ele>427</ele>
        <time>2013-08-24T12:30:12Z</time>
      </trkpt>
      <trkpt lat="43.8869" lon="7.4667">
        <ele>434</ele>
        <time>2013-08-24T12:30:19Z</time>
      </trkpt>
      <trkpt lat="43.88679" lon="7.4667">
        <ele>434</ele>
        <time>2013-08-24T12:30:25Z</time>
      </trkpt>
      <trkpt lat="43.88669" lon="7.46669">
        <ele>454</ele>
        <time>2013-08-24T12:30:36Z</time>
      </trkpt>
      <trkpt lat="43.88661" lon="7.46675">
        <ele>459</ele>
        <time>2013-08-24T12:30:41Z</time>
      </trkpt>
      <trkpt lat="43.88652" lon="7.46673">
        <ele>459</ele>
        <time>2013-08-24T12:30:46Z</time>
      </trkpt>
      <trkpt lat="43.88642" lon="7.46677">
        <ele>459</ele>
        <time>2013-08-24T12:30:54Z</time>
      </trkpt>
      <trkpt lat="43.88633" lon="7.4668">
        <ele>459</ele>
        <time>2013-08-24T12:31:04Z</time>
      </trkpt>
      <trkpt lat="43.88626" lon="7.46671">
        <ele>459</ele>
        <time>2013-08-24T12:31:14Z</time>
      </trkpt>
      <trkpt lat="43.88616" lon="7.46674">
        <ele>471</ele>
        <time>2013-08-24T12:31:20Z</time>
      </trkpt>
      <trkpt lat="43.88613" lon="7.46663">
        <ele>454</ele>
        <time>2013-08-24T12:31:28Z</time>
      </trkpt>
      <trkpt lat="43.88606" lon="7.46654">
        <ele>445</ele>
        <time>2013-08-24T12:31:36Z</time>
      </trkpt>
      <trkpt lat="43.88596" lon="7.46654">
        <ele>445</ele>
        <time>2013-08-24T12:31:40Z</time>
      </trkpt>
      <trkpt lat="43.88582" lon="7.46649">
        <ele>456</ele>
        <time>2013-08-24T12:31:49Z</time>
      </trkpt>
      <trkpt lat="43.88574" lon="7.46645">
        <ele>449</ele>
        <time>2013-08-24T12:31:57Z</time>
      </trkpt>
      <trkpt lat="43.88565" lon="7.46638">
        <ele>443</ele>
        <time>2013-08-24T12:32:07Z</time>
      </trkpt>
      <trkpt lat="43.88555" lon="7.46644">
        <ele>443</ele>
        <time>2013-08-24T12:32:11Z</time>
      </trkpt>
      <trkpt lat="43.88545" lon="7.46646">
        <ele>450</ele>
        <time>2013-08-24T12:32:22Z</time>
      </trkpt>
      <trkpt lat="43.88534" lon="7.46646">
        <ele>450</ele>
        <time>2013-08-24T12:32:30Z</time>
      </trkpt>
      <trkpt lat="43.88525" lon="7.46638">
        <ele>459</ele>
        <time>2013-08-24T12:32:40Z</time>
      </trkpt>
      <trkpt lat="43.88516" lon="7.46637">
        <ele>453</ele>
        <time>2013-08-24T12:32:47Z</time>
      </trkpt>
      <trkpt lat="43.88509" lon="7.46629">
        <ele>447</ele>
        <time>2013-08-24T12:32:56Z</time>
      </trkpt>
      <trkpt lat="43.88503" lon="7.46619">
        <ele>447</ele>
        <time>2013-08-24T12:33:04Z</time>
      </trkpt>
      <trkpt lat="43.88496" lon="7.4661">
        <ele>447</ele>
        <time>2013-08-24T12:33:12Z</time>
      </trkpt>
      <trkpt lat="43.88489" lon="7.46601">
        <ele>447</ele>
        <time>2013-08-24T12:33:20Z</time>
      </trkpt>
      <trkpt lat="43.8848" lon="7.46597">
        <ele>454</ele>
        <time>2013-08-24T12:33:29Z</time>
      </trkpt>
      <trkpt lat="43.88473" lon="7.46589">
        <ele>454</ele>
        <time>2013-08-24T12:33:36Z</time>
      </trkpt>
      <trkpt lat="43.88461" lon="7.46598">
        <ele>454</ele>
        <time>2013-08-24T12:33:39Z</time>
      </trkpt>
      <trkpt lat="43.88456" lon="7.46587">
        <ele>463</ele>
        <time>2013-08-24T12:33:48Z</time>
      </trkpt>
      <trkpt lat="43.8845" lon="7.46577">
        <ele>453</ele>
        <time>2013-08-24T12:33:55Z</time>
      </trkpt>
      <trkpt lat="43.88445" lon="7.46567">
        <ele>453</ele>
        <time>2013-08-24T12:34:01Z</time>
      </trkpt>
      <trkpt lat="43.88437" lon="7.4656">
        <ele>453</ele>
        <time>2013-08-24T12:34:08Z</time>
      </trkpt>
      <trkpt lat="43.88428" lon="7.4656">
        <ele>453</ele>
        <time>2013-08-24T12:34:14Z</time>
      </trkpt>
      <trkpt lat="43.8842" lon="7.46552">
        <ele>453</ele>
        <time>2013-08-24T12:34:21Z</time>
      </trkpt>
      <trkpt lat="43.88417" lon="7.4654">
        <ele>453</ele>
        <time>2013-08-24T12:34:30Z</time>
      </trkpt>
      <trkpt lat="43.88415" lon="7.46526">
        <ele>447</ele>
        <time>2013-08-24T12:34:37Z</time>
      </trkpt>
      <trkpt lat="43.88406" lon="7.46522">
        <ele>439</ele>
        <time>2013-08-24T12:34:44Z</time>
      </trkpt>
      <trkpt lat="43.88404" lon="7.4651">
        <ele>439</ele>
        <time>2013-08-24T12:34:51Z</time>
      </trkpt>
      <trkpt lat="43.88402" lon="7.46496">
        <ele>433</ele>
        <time>2013-08-24T12:34:58Z</time>
      </trkpt>
      <trkpt lat="43.884" lon="7.46485">
        <ele>433</ele>
        <time>2013-08-24T12:35:06Z</time>
      </trkpt>
      <trkpt lat="43.88403" lon="7.46472">
        <ele>420</ele>
        <time>2013-08-24T12:35:12Z</time>
      </trkpt>
      <trkpt lat="43.88403" lon="7.4646">
        <ele>420</ele>
        <time>2013-08-24T12:35:18Z</time>
      </trkpt>
      <trkpt lat="43.88397" lon="7.46449">
        <ele>405</ele>
        <time>2013-08-24T12:35:26Z</time>
      </trkpt>
      <trkpt lat="43.88398" lon="7.46434">
        <ele>415</ele>
        <time>2013-08-24T12:35:33Z</time>
      </trkpt>
      <trkpt lat="43.88392" lon="7.46425">
        <ele>427</ele>
        <time>2013-08-24T12:35:43Z</time>
      </trkpt>
      <trkpt lat="43.88388" lon="7.46411">
        <ele>432</ele>
        <time>2013-08-24T12:35:52Z</time>
      </trkpt>
      <trkpt lat="43.88385" lon="7.46399">
        <ele>421</ele>
        <time>2013-08-24T12:35:59Z</time>
      </trkpt>
      <trkpt lat="43.88387" lon="7.46386">
        <ele>410</ele>
        <time>2013-08-24T12:36:02Z</time>
      </trkpt>
      <trkpt lat="43.8838" lon="7.46379">
        <ele>410</ele>
        <time>2013-08-24T12:36:10Z</time>
      </trkpt>
      <trkpt lat="43.88369" lon="7.46381">
        <ele>410</ele>
        <time>2013-08-24T12:36:17Z</time>
      </trkpt>
      <trkpt lat="43.88359" lon="7.46383">
        <ele>410</ele>
        <time>2013-08-24T12:36:23Z</time>
      </trkpt>
      <trkpt lat="43.8835" lon="7.46381">
        <ele>419</ele>
        <time>2013-08-24T12:36:33Z</time>
      </trkpt>
      <trkpt lat="43.88341" lon="7.46385">
        <ele>419</ele>
        <time>2013-08-24T12:36:38Z</time>
      </trkpt>
      <trkpt lat="43.88333" lon="7.46379">
        <ele>430</ele>
        <time>2013-08-24T12:36:47Z</time>
      </trkpt>
      <trkpt lat="43.88324" lon="7.46373">
        <ele>442</ele>
        <time>2013-08-24T12:36:54Z</time>
      </trkpt>
      <trkpt lat="43.88316" lon="7.46367">
        <ele>434</ele>
        <time>2013-08-24T12:37:02Z</time>
      </trkpt>
      <trkpt lat="43.88311" lon="7.46352">
        <ele>422</ele>
        <time>2013-08-24T12:37:13Z</time>
      </trkpt>
      <trkpt lat="43.88305" lon="7.4634">
        <ele>422</ele>
        <time>2013-08-24T12:37:21Z</time>
      </trkpt>
      <trkpt lat="43.88299" lon="7.4633">
        <ele>422</ele>
        <time>2013-08-24T12:37:29Z</time>
      </trkpt>
      <trkpt lat="43.88296" lon="7.46316">
        <ele>422</ele>
        <time>2013-08-24T12:37:41Z</time>
      </trkpt>
      <trkpt lat="43.88294" lon="7.46302">
        <ele>429</ele>
        <time>2013-08-24T12:37:54Z</time>
      </trkpt>
      <trkpt lat="43.88298" lon="7.46289">
        <ele>423</ele>
        <time>2013-08-24T12:37:58Z</time>
      </trkpt>
      <trkpt lat="43.883" lon="7.46276">
        <ele>423</ele>
        <time>2013-08-24T12:38:02Z</time>
      </trkpt>
      <trkpt lat="43.88293" lon="7.46266">
        <ele>432</ele>
        <time>2013-08-24T12:38:07Z</time>
      </trkpt>
      <trkpt lat="43.88283" lon="7.46268">
        <ele>432</ele>
        <time>2013-08-24T12:38:12Z</time>
      </trkpt>
      <trkpt lat="43.88274" lon="7.46262">
        <ele>432</ele>
        <time>2013-08-24T12:38:18Z</time>
      </trkpt>
      <trkpt lat="43.88265" lon="7.46258">
        <ele>440</ele>
        <time>2013-08-24T12:38:25Z</time>
      </trkpt>
      <trkpt lat="43.88262" lon="7.46246">
        <ele>430</ele>
        <time>2013-08-24T12:38:34Z</time>
      </trkpt>
      <trkpt lat="43.88264" lon="7.46229">
        <ele>424</ele>
        <time>2013-08-24T12:38:45Z</time>
      </trkpt>
      <trkpt lat="43.88268" lon="7.46216">
        <ele>424</ele>
        <time>2013-08-24T12:38:50Z</time>
      </trkpt>
      <trkpt lat="43.8827" lon="7.46205">
        <ele>408</ele>
        <time>2013-08-24T12:38:58Z</time>
      </trkpt>
      <trkpt lat="43.88262" lon="7.46201">
        <ele>408</ele>
        <time>2013-08-24T12:39:09Z</time>
      </trkpt>
      <trkpt lat="43.88261" lon="7.46183">
        <ele>403</ele>
        <time>2013-08-24T12:39:18Z</time>
      </trkpt>
      <trkpt lat="43.88258" lon="7.4617">
        <ele>403</ele>
        <time>2013-08-24T12:39:21Z</time>
      </trkpt>
      <trkpt lat="43.88253" lon="7.4616">
        <ele>410</ele>
        <time>2013-08-24T12:39:27Z</time>
      </trkpt>
      <trkpt lat="43.88244" lon="7.46167">
        <ele>410</ele>
        <time>2013-08-24T12:39:31Z</time>
      </trkpt>
      <trkpt lat="43.88234" lon="7.46163">
        <ele>425</ele>
        <time>2013-08-24T12:39:44Z</time>
      </trkpt>
      <trkpt lat="43.88227" lon="7.46153">
        <ele>425</ele>
        <time>2013-08-24T12:39:53Z</time>
      </trkpt>
      <trkpt lat="43.8822" lon="7.46146">
        <ele>414</ele>
        <time>2013-08-24T12:40:00Z</time>
      </trkpt>
      <trkpt lat="43.88213" lon="7.46139">
        <ele>414</ele>
        <time>2013-08-24T12:40:10Z</time>
      </trkpt>
      <trkpt lat="43.88208" lon="7.46125">
        <ele>425</ele>
        <time>2013-08-24T12:40:18Z</time>
      </trkpt>
      <trkpt lat="43.88208" lon="7.46113">
        <ele>431</ele>
        <time>2013-08-24T12:40:26Z</time>
      </trkpt>
      <trkpt lat="43.88207" lon="7.46099">
        <ele>421</ele>
        <time>2013-08-24T12:40:38Z</time>
      </trkpt>
      <trkpt lat="43.88208" lon="7.46085">
        <ele>421</ele>
        <time>2013-08-24T12:40:44Z</time>
      </trkpt>
      <trkpt lat="43.88209" lon="7.46071">
        <ele>421</ele>
        <time>2013-08-24T12:40:53Z</time>
      </trkpt>
      <trkpt lat="43.88209" lon="7.46058">
        <ele>421</ele>
        <time>2013-08-24T12:40:58Z</time>
      </trkpt>
      <trkpt lat="43.88205" lon="7.46043">
        <ele>433</ele>
        <time>2013-08-24T12:41:06Z</time>
      </trkpt>
      <trkpt lat="43.88202" lon="7.4603">
        <ele>441</ele>
        <time>2013-08-24T12:41:13Z</time>
      </trkpt>
      <trkpt lat="43.88194" lon="7.46024">
        <ele>441</ele>
        <time>2013-08-24T12:41:19Z</time>
      </trkpt>
      <trkpt lat="43.88183" lon="7.46019">
        <ele>427</ele>
        <time>2013-08-24T12:41:30Z</time>
      </trkpt>
      <trkpt lat="43.88178" lon="7.46008">
        <ele>427</ele>
        <time>2013-08-24T12:41:36Z</time>
      </trkpt>
      <trkpt lat="43.88171" lon="7.46001">
        <ele>427</ele>
        <time>2013-08-24T12:41:42Z</time>
      </trkpt>
      <trkpt lat="43.88165" lon="7.45988">
        <ele>427</ele>
        <time>2013-08-24T12:41:49Z</time>
      </trkpt>
      <trkpt lat="43.88157" lon="7.45984">
        <ele>421</ele>
        <time>2013-08-24T12:41:54Z</time>
      </trkpt>
      <trkpt lat="43.88147" lon="7.45979">
        <ele>431</ele>
        <time>2013-08-24T12:42:04Z</time>
      </trkpt>
      <trkpt lat="43.8814" lon="7.45968">
        <ele>431</ele>
        <time>2013-08-24T12:42:14Z</time>
      </trkpt>
      <trkpt lat="43.88134" lon="7.45958">
        <ele>426</ele>
        <time>2013-08-24T12:42:23Z</time>
      </trkpt>
      <trkpt lat="43.88129" lon="7.45943">
        <ele>409</ele>
        <time>2013-08-24T12:42:35Z</time>
      </trkpt>
      <trkpt lat="43.88129" lon="7.4593">
        <ele>415</ele>
        <time>2013-08-24T12:42:40Z</time>
      </trkpt>
      <trkpt lat="43.88128" lon="7.45916">
        <ele>415</ele>
        <time>2013-08-24T12:42:47Z</time>
      </trkpt>
      <trkpt lat="43.88124" lon="7.45904">
        <ele>415</ele>
        <time>2013-08-24T12:42:58Z</time>
      </trkpt>
      <trkpt lat="43.88122" lon="7.45891">
        <ele>415</ele>
        <time>2013-08-24T12:43:05Z</time>
      </trkpt>
      <trkpt lat="43.88118" lon="7.45879">
        <ele>415</ele>
        <time>2013-08-24T12:43:12Z</time>
      </trkpt>
      <trkpt lat="43.88122" lon="7.45867">
        <ele>415</ele>
        <time>2013-08-24T12:43:19Z</time>
      </trkpt>
      <trkpt lat="43.88119" lon="7.45854">
        <ele>410</ele>
        <time>2013-08-24T12:43:27Z</time>
      </trkpt>
      <trkpt lat="43.88122" lon="7.45842">
        <ele>392</ele>
        <time>2013-08-24T12:44:14Z</time>
      </trkpt>
      <trkpt lat="43.88129" lon="7.45833">
        <ele>392</ele>
        <time>2013-08-24T12:44:23Z</time>
      </trkpt>
      <trkpt lat="43.88129" lon="7.45818">
        <ele>392</ele>
        <time>2013-08-24T12:44:30Z</time>
      </trkpt>
      <trkpt lat="43.8813" lon="7.45806">
        <ele>404</ele>
        <time>2013-08-24T12:44:36Z</time>
      </trkpt>
      <trkpt lat="43.88135" lon="7.45794">
        <ele>404</ele>
        <time>2013-08-24T12:44:45Z</time>
      </trkpt>
      <trkpt lat="43.88136" lon="7.4578">
        <ele>404</ele>
        <time>2013-08-24T12:44:52Z</time>
      </trkpt>
      <trkpt lat="43.88139" lon="7.45768">
        <ele>404</ele>
        <time>2013-08-24T12:45:01Z</time>
      </trkpt>
      <trkpt lat="43.88141" lon="7.45754">
        <ele>404</ele>
        <time>2013-08-24T12:45:08Z</time>
      </trkpt>
      <trkpt lat="43.88148" lon="7.45742">
        <ele>404</ele>
        <time>2013-08-24T12:45:16Z</time>
      </trkpt>
      <trkpt lat="43.88142" lon="7.45732">
        <ele>417</ele>
        <time>2013-08-24T12:45:26Z</time>
      </trkpt>
      <trkpt lat="43.88137" lon="7.45721">
        <ele>424</ele>
        <time>2013-08-24T12:45:31Z</time>
      </trkpt>
      <trkpt lat="43.88135" lon="7.4571">
        <ele>424</ele>
        <time>2013-08-24T12:45:40Z</time>
      </trkpt>
      <trkpt lat="43.88127" lon="7.45702">
        <ele>424</ele>
        <time>2013-08-24T12:45:48Z</time>
      </trkpt>
      <trkpt lat="43.88119" lon="7.45692">
        <ele>430</ele>
        <time>2013-08-24T12:45:56Z</time>
      </trkpt>
      <trkpt lat="43.88112" lon="7.45685">
        <ele>430</ele>
        <time>2013-08-24T12:46:03Z</time>
      </trkpt>
      <trkpt lat="43.88103" lon="7.45681">
        <ele>430</ele>
        <time>2013-08-24T12:46:10Z</time>
      </trkpt>
      <trkpt lat="43.88094" lon="7.45681">
        <ele>409</ele>
        <time>2013-08-24T12:46:18Z</time>
      </trkpt>
      <trkpt lat="43.88086" lon="7.45667">
        <ele>409</ele>
        <time>2013-08-24T12:46:30Z</time>
      </trkpt>
      <trkpt lat="43.88086" lon="7.45655">
        <ele>409</ele>
        <time>2013-08-24T12:46:36Z</time>
      </trkpt>
      <trkpt lat="43.88083" lon="7.45643">
        <ele>416</ele>
        <time>2013-08-24T12:46:43Z</time>
      </trkpt>
      <trkpt lat="43.88072" lon="7.45644">
        <ele>416</ele>
        <time>2013-08-24T12:46:48Z</time>
      </trkpt>
      <trkpt lat="43.88063" lon="7.45642">
        <ele>426</ele>
        <time>2013-08-24T12:46:52Z</time>
      </trkpt>
      <trkpt lat="43.88053" lon="7.45639">
        <ele>426</ele>
        <time>2013-08-24T12:46:55Z</time>
      </trkpt>
      <trkpt lat="43.88053" lon="7.45625">
        <ele>434</ele>
        <time>2013-08-24T12:47:05Z</time>
      </trkpt>
      <trkpt lat="43.88055" lon="7.45612">
        <ele>434</ele>
        <time>2013-08-24T12:47:10Z</time>
      </trkpt>
      <trkpt lat="43.88054" lon="7.45598">
        <ele>423</ele>
        <time>2013-08-24T12:47:20Z</time>
      </trkpt>
      <trkpt lat="43.88044" lon="7.45586">
        <ele>399</ele>
        <time>2013-08-24T12:47:30Z</time>
      </trkpt>
      <trkpt lat="43.88044" lon="7.45573">
        <ele>391</ele>
        <time>2013-08-24T12:47:39Z</time>
      </trkpt>
      <trkpt lat="43.88038" lon="7.45562">
        <ele>391</ele>
        <time>2013-08-24T12:47:46Z</time>
      </trkpt>
      <trkpt lat="43.88035" lon="7.4555">
        <ele>391</ele>
        <time>2013-08-24T12:47:53Z</time>
      </trkpt>
      <trkpt lat="43.88033" lon="7.45536">
        <ele>391</ele>
        <time>2013-08-24T12:47:58Z</time>
      </trkpt>
      <trkpt lat="43.88033" lon="7.4552">
        <ele>404</ele>
        <time>2013-08-24T12:48:08Z</time>
      </trkpt>
      <trkpt lat="43.88028" lon="7.45509">
        <ele>404</ele>
        <time>2013-08-24T12:48:14Z</time>
      </trkpt>
      <trkpt lat="43.88024" lon="7.45496">
        <ele>404</ele>
        <time>2013-08-24T12:48:22Z</time>
      </trkpt>
      <trkpt lat="43.8802" lon="7.45484">
        <ele>404</ele>
        <time>2013-08-24T12:48:30Z</time>
      </trkpt>
      <trkpt lat="43.88014" lon="7.45475">
        <ele>404</ele>
        <time>2013-08-24T12:48:37Z</time>
      </trkpt>
      <trkpt lat="43.88009" lon="7.45461">
        <ele>404</ele>
        <time>2013-08-24T12:48:46Z</time>
      </trkpt>
      <trkpt lat="43.88004" lon="7.45448">
        <ele>404</ele>
        <time>2013-08-24T12:48:53Z</time>
      </trkpt>
      <trkpt lat="43.87997" lon="7.45439">
        <ele>404</ele>
        <time>2013-08-24T12:49:01Z</time>
      </trkpt>
      <trkpt lat="43.88001" lon="7.45427">
        <ele>395</ele>
        <time>2013-08-24T12:49:09Z</time>
      </trkpt>
      <trkpt lat="43.88003" lon="7.45413">
        <ele>395</ele>
        <time>2013-08-24T12:49:16Z</time>
      </trkpt>
      <trkpt lat="43.88009" lon="7.45401">
        <ele>389</ele>
        <time>2013-08-24T12:49:23Z</time>
      </trkpt>
      <trkpt lat="43.88012" lon="7.45389">
        <ele>389</ele>
        <time>2013-08-24T12:49:29Z</time>
      </trkpt>
      <trkpt lat="43.88009" lon="7.45377">
        <ele>389</ele>
        <time>2013-08-24T12:49:36Z</time>
      </trkpt>
      <trkpt lat="43.88006" lon="7.45365">
        <ele>389</ele>
        <time>2013-08-24T12:49:45Z</time>
      </trkpt>
      <trkpt lat="43.88001" lon="7.45353">
        <ele>389</ele>
        <time>2013-08-24T12:49:52Z</time>
      </trkpt>
      <trkpt lat="43.87996" lon="7.45341">
        <ele>389</ele>
        <time>2013-08-24T12:49:59Z</time>
      </trkpt>
      <trkpt lat="43.87992" lon="7.45329">
        <ele>381</ele>
        <time>2013-08-24T12:50:06Z</time>
      </trkpt>
      <trkpt lat="43.87986" lon="7.45319">
        <ele>381</ele>
        <time>2013-08-24T12:50:13Z</time>
      </trkpt>
      <trkpt lat="43.87987" lon="7.45306">
        <ele>381</ele>
        <time>2013-08-24T12:50:21Z</time>
      </trkpt>
      <trkpt lat="43.87984" lon="7.45295">
        <ele>381</ele>
        <time>2013-08-24T12:50:26Z</time>
      </trkpt>
      <trkpt lat="43.87983" lon="7.45282">
        <ele>381</ele>
        <time>2013-08-24T12:50:35Z</time>
      </trkpt>
      <trkpt lat="43.87979" lon="7.45269">
        <ele>390</ele>
        <time>2013-08-24T12:50:44Z</time>
      </trkpt>
      <trkpt lat="43.87979" lon="7.45255">
        <ele>390</ele>
        <time>2013-08-24T12:50:49Z</time>
      </trkpt>
      <trkpt lat="43.87979" lon="7.45242">
        <ele>390</ele>
        <time>2013-08-24T12:50:56Z</time>
      </trkpt>
      <trkpt lat="43.87982" lon="7.45229">
        <ele>390</ele>
        <time>2013-08-24T12:51:05Z</time>
      </trkpt>
      <trkpt lat="43.87986" lon="7.45215">
        <ele>380</ele>
        <time>2013-08-24T12:51:14Z</time>
      </trkpt>
      <trkpt lat="43.87986" lon="7.45202">
        <ele>380</ele>
        <time>2013-08-24T12:51:20Z</time>
      </trkpt>
      <trkpt lat="43.87983" lon="7.4519">
        <ele>374</ele>
        <time>2013-08-24T12:51:28Z</time>
      </trkpt>
      <trkpt lat="43.87976" lon="7.45183">
        <ele>374</ele>
        <time>2013-08-24T12:51:34Z</time>
      </trkpt>
      <trkpt lat="43.87975" lon="7.4517">
        <ele>382</ele>
        <time>2013-08-24T12:51:42Z</time>
      </trkpt>
      <trkpt lat="43.8797" lon="7.45157">
        <ele>388</ele>
        <time>2013-08-24T12:51:49Z</time>
      </trkpt>
      <trkpt lat="43.87962" lon="7.4515">
        <ele>388</ele>
        <time>2013-08-24T12:51:58Z</time>
      </trkpt>
      <trkpt lat="43.87955" lon="7.45143">
        <ele>388</ele>
        <time>2013-08-24T12:52:03Z</time>
      </trkpt>
      <trkpt lat="43.87951" lon="7.45132">
        <ele>388</ele>
        <time>2013-08-24T12:52:09Z</time>
      </trkpt>
      <trkpt lat="43.87951" lon="7.45118">
        <ele>388</ele>
        <time>2013-08-24T12:52:18Z</time>
      </trkpt>
      <trkpt lat="43.8796" lon="7.45115">
        <ele>388</ele>
        <time>2013-08-24T12:52:25Z</time>
      </trkpt>
      <trkpt lat="43.87967" lon="7.45108">
        <ele>388</ele>
        <time>2013-08-24T12:52:33Z</time>
      </trkpt>
      <trkpt lat="43.87975" lon="7.45113">
        <ele>381</ele>
        <time>2013-08-24T12:52:38Z</time>
      </trkpt>
      <trkpt lat="43.87983" lon="7.45102">
        <ele>392</ele>
        <time>2013-08-24T12:52:52Z</time>
      </trkpt>
      <trkpt lat="43.87988" lon="7.45091">
        <ele>392</ele>
        <time>2013-08-24T12:52:56Z</time>
      </trkpt>
      <trkpt lat="43.87988" lon="7.45075">
        <ele>386</ele>
        <time>2013-08-24T12:53:02Z</time>
      </trkpt>
      <trkpt lat="43.87983" lon="7.45065">
        <ele>386</ele>
        <time>2013-08-24T12:53:08Z</time>
      </trkpt>
      <trkpt lat="43.87983" lon="7.45052">
        <ele>378</ele>
        <time>2013-08-24T12:53:17Z</time>
      </trkpt>
      <trkpt lat="43.87984" lon="7.45038">
        <ele>373</ele>
        <time>2013-08-24T12:53:25Z</time>
      </trkpt>
      <trkpt lat="43.8798" lon="7.45027">
        <ele>373</ele>
        <time>2013-08-24T12:53:32Z</time>
      </trkpt>
      <trkpt lat="43.8798" lon="7.45012">
        <ele>380</ele>
        <time>2013-08-24T12:53:39Z</time>
      </trkpt>
      <trkpt lat="43.87976" lon="7.45001">
        <ele>380</ele>
        <time>2013-08-24T12:53:46Z</time>
      </trkpt>
      <trkpt lat="43.87977" lon="7.44988">
        <ele>387</ele>
        <time>2013-08-24T12:53:54Z</time>
      </trkpt>
      <trkpt lat="43.87973" lon="7.44977">
        <ele>380</ele>
        <time>2013-08-24T12:54:02Z</time>
      </trkpt>
      <trkpt lat="43.87971" lon="7.44963">
        <ele>386</ele>
        <time>2013-08-24T12:54:11Z</time>
      </trkpt>
      <trkpt lat="43.87974" lon="7.4495">
        <ele>386</ele>
        <time>2013-08-24T12:54:17Z</time>
      </trkpt>
      <trkpt lat="43.87979" lon="7.44939">
        <ele>378</ele>
        <time>2013-08-24T12:54:24Z</time>
      </trkpt>
      <trkpt lat="43.87975" lon="7.44927">
        <ele>378</ele>
        <time>2013-08-24T12:54:31Z</time>
      </trkpt>
      <trkpt lat="43.87973" lon="7.44915">
        <ele>394</ele>
        <time>2013-08-24T12:54:40Z</time>
      </trkpt>
      <trkpt lat="43.87971" lon="7.44902">
        <ele>394</ele>
        <time>2013-08-24T12:54:48Z</time>
      </trkpt>
      <trkpt lat="43.87968" lon="7.4489">
        <ele>394</ele>
        <time>2013-08-24T12:54:53Z</time>
      </trkpt>
      <trkpt lat="43.87962" lon="7.4488">
        <ele>394</ele>
        <time>2013-08-24T12:54:57Z</time>
      </trkpt>
      <trkpt lat="43.87964" lon="7.44866">
        <ele>394</ele>
        <time>2013-08-24T12:55:06Z</time>
      </trkpt>
      <trkpt lat="43.87961" lon="7.44853">
        <ele>378</ele>
        <time>2013-08-24T12:55:14Z</time>
      </trkpt>
      <trkpt lat="43.87956" lon="7.44842">
        <ele>368</ele>
        <time>2013-08-24T12:55:18Z</time>
      </trkpt>
      <trkpt lat="43.87953" lon="7.4483">
        <ele>368</ele>
        <time>2013-08-24T12:55:25Z</time>
      </trkpt>
      <trkpt lat="43.87951" lon="7.44818">
        <ele>368</ele>
        <time>2013-08-24T12:55:32Z</time>
      </trkpt>
      <trkpt lat="43.87948" lon="7.44806">
        <ele>375</ele>
        <time>2013-08-24T12:55:38Z</time>
      </trkpt>
      <trkpt lat="43.87944" lon="7.44795">
        <ele>381</ele>
        <time>2013-08-24T12:55:45Z</time>
      </trkpt>
      <trkpt lat="43.8794" lon="7.44782">
        <ele>381</ele>
        <time>2013-08-24T12:55:53Z</time>
      </trkpt>
      <trkpt lat="43.87936" lon="7.44771">
        <ele>381</ele>
        <time>2013-08-24T12:56:07Z</time>
      </trkpt>
      <trkpt lat="43.87929" lon="7.44779">
        <ele>372</ele>
        <time>2013-08-24T12:56:45Z</time>
      </trkpt>
      <trkpt lat="43.8792" lon="7.44779">
        <ele>372</ele>
        <time>2013-08-24T12:57:03Z</time>
      </trkpt>
      <trkpt lat="43.87911" lon="7.44776">
        <ele>372</ele>
        <time>2013-08-24T12:57:20Z</time>
      </trkpt>
      <trkpt lat="43.87907" lon="7.44788">
        <ele>372</ele>
        <time>2013-08-24T12:57:32Z</time>
      </trkpt>
      <trkpt lat="43.87908" lon="7.448">
        <ele>372</ele>
        <time>2013-08-24T12:57:41Z</time>
      </trkpt>
      <trkpt lat="43.87911" lon="7.44813">
        <ele>372</ele>
        <time>2013-08-24T12:57:48Z</time>
      </trkpt>
      <trkpt lat="43.87916" lon="7.44826">
        <ele>372</ele>
        <time>2013-08-24T12:57:56Z</time>
      </trkpt>
      <trkpt lat="43.87907" lon="7.44827">
        <ele>367</ele>
        <time>2013-08-24T12:58:08Z</time>
      </trkpt>
      <trkpt lat="43.87897" lon="7.4483">
        <ele>356</ele>
        <time>2013-08-24T12:58:19Z</time>
      </trkpt>
      <trkpt lat="43.87888" lon="7.44834">
        <ele>351</ele>
        <time>2013-08-24T12:58:24Z</time>
      </trkpt>
      <trkpt lat="43.87879" lon="7.44834">
        <ele>351</ele>
        <time>2013-08-24T12:58:34Z</time>
      </trkpt>
      <trkpt lat="43.8787" lon="7.4483">
        <ele>375</ele>
        <time>2013-08-24T12:58:47Z</time>
      </trkpt>
      <trkpt lat="43.8786" lon="7.44831">
        <ele>375</ele>
        <time>2013-08-24T12:58:52Z</time>
      </trkpt>
      <trkpt lat="43.87848" lon="7.44826">
        <ele>369</ele>
        <time>2013-08-24T12:58:58Z</time>
      </trkpt>
      <trkpt lat="43.87838" lon="7.44828">
        <ele>357</ele>
        <time>2013-08-24T12:59:17Z</time>
      </trkpt>
      <trkpt lat="43.87839" lon="7.44816">
        <ele>345</ele>
        <time>2013-08-24T12:59:36Z</time>
      </trkpt>
      <trkpt lat="43.87842" lon="7.44804">
        <ele>345</ele>
        <time>2013-08-24T12:59:44Z</time>
      </trkpt>
      <trkpt lat="43.87843" lon="7.44791">
        <ele>345</ele>
        <time>2013-08-24T12:59:53Z</time>
      </trkpt>
      <trkpt lat="43.87847" lon="7.4478">
        <ele>339</ele>
        <time>2013-08-24T13:00:00Z</time>
      </trkpt>
      <trkpt lat="43.87849" lon="7.44766">
        <ele>339</ele>
        <time>2013-08-24T13:00:11Z</time>
      </trkpt>
      <trkpt lat="43.87849" lon="7.44753">
        <ele>345</ele>
        <time>2013-08-24T13:00:19Z</time>
      </trkpt>
      <trkpt lat="43.87847" lon="7.4474">
        <ele>358</ele>
        <time>2013-08-24T13:00:29Z</time>
      </trkpt>
      <trkpt lat="43.87838" lon="7.44735">
        <ele>367</ele>
        <time>2013-08-24T13:00:37Z</time>
      </trkpt>
      <trkpt lat="43.87828" lon="7.44731">
        <ele>367</ele>
        <time>2013-08-24T13:00:46Z</time>
      </trkpt>
      <trkpt lat="43.87819" lon="7.44729">
        <ele>377</ele>
        <time>2013-08-24T13:00:56Z</time>
      </trkpt>
      <trkpt lat="43.8781" lon="7.44726">
        <ele>371</ele>
        <time>2013-08-24T13:01:03Z</time>
      </trkpt>
      <trkpt lat="43.878" lon="7.44723">
        <ele>371</ele>
        <time>2013-08-24T13:01:10Z</time>
      </trkpt>
      <trkpt lat="43.87792" lon="7.44717">
        <ele>360</ele>
        <time>2013-08-24T13:01:28Z</time>
      </trkpt>
      <trkpt lat="43.87782" lon="7.44715">
        <ele>360</ele>
        <time>2013-08-24T13:01:33Z</time>
      </trkpt>
      <trkpt lat="43.87789" lon="7.44737">
        <ele>360</ele>
        <time>2013-08-24T13:05:36Z</time>
      </trkpt>
      <trkpt lat="43.8778" lon="7.44737">
        <ele>360</ele>
        <time>2013-08-24T13:05:37Z</time>
      </trkpt>
      <trkpt lat="43.87777" lon="7.44748">
        <ele>367</ele>
        <time>2013-08-24T13:05:49Z</time>
      </trkpt>
      <trkpt lat="43.87783" lon="7.44758">
        <ele>367</ele>
        <time>2013-08-24T13:05:55Z</time>
      </trkpt>
      <trkpt lat="43.87786" lon="7.4477">
        <ele>367</ele>
        <time>2013-08-24T13:06:02Z</time>
      </trkpt>
      <trkpt lat="43.87789" lon="7.44783">
        <ele>350</ele>
        <time>2013-08-24T13:06:10Z</time>
      </trkpt>
      <trkpt lat="43.8779" lon="7.44797">
        <ele>356</ele>
        <time>2013-08-24T13:06:27Z</time>
      </trkpt>
      <trkpt lat="43.87786" lon="7.44815">
        <ele>356</ele>
        <time>2013-08-24T13:06:40Z</time>
      </trkpt>
      <trkpt lat="43.87783" lon="7.44827">
        <ele>367</ele>
        <time>2013-08-24T13:06:43Z</time>
      </trkpt>
      <trkpt lat="43.87784" lon="7.44842">
        <ele>354</ele>
        <time>2013-08-24T13:06:50Z</time>
      </trkpt>
      <trkpt lat="43.87782" lon="7.44853">
        <ele>354</ele>
        <time>2013-08-24T13:07:01Z</time>
      </trkpt>
      <trkpt lat="43.87781" lon="7.44871">
        <ele>346</ele>
        <time>2013-08-24T13:07:16Z</time>
      </trkpt>
      <trkpt lat="43.8778" lon="7.44885">
        <ele>357</ele>
        <time>2013-08-24T13:07:21Z</time>
      </trkpt>
      <trkpt lat="43.87781" lon="7.44897">
        <ele>357</ele>
        <time>2013-08-24T13:07:26Z</time>
      </trkpt>
      <trkpt lat="43.87778" lon="7.44909">
        <ele>357</ele>
        <time>2013-08-24T13:07:35Z</time>
      </trkpt>
      <trkpt lat="43.87773" lon="7.44919">
        <ele>357</ele>
        <time>2013-08-24T13:07:48Z</time>
      </trkpt>
      <trkpt lat="43.87764" lon="7.44925">
        <ele>357</ele>
        <time>2013-08-24T13:07:53Z</time>
      </trkpt>
      <trkpt lat="43.87753" lon="7.44925">
        <ele>357</ele>
        <time>2013-08-24T13:07:55Z</time>
      </trkpt>
      <trkpt lat="43.87756" lon="7.4494">
        <ele>362</ele>
        <time>2013-08-24T13:08:00Z</time>
      </trkpt>
      <trkpt lat="43.87756" lon="7.44952">
        <ele>362</ele>
        <time>2013-08-24T13:08:08Z</time>
      </trkpt>
      <trkpt lat="43.87758" lon="7.44966">
        <ele>362</ele>
        <time>2013-08-24T13:08:15Z</time>
      </trkpt>
      <trkpt lat="43.87759" lon="7.44978">
        <ele>349</ele>
        <time>2013-08-24T13:08:28Z</time>
      </trkpt>
      <trkpt lat="43.87758" lon="7.44992">
        <ele>349</ele>
        <time>2013-08-24T13:08:35Z</time>
      </trkpt>
      <trkpt lat="43.87759" lon="7.45004">
        <ele>349</ele>
        <time>2013-08-24T13:08:41Z</time>
      </trkpt>
      <trkpt lat="43.87759" lon="7.45017">
        <ele>355</ele>
        <time>2013-08-24T13:08:47Z</time>
      </trkpt>
      <trkpt lat="43.87756" lon="7.45029">
        <ele>355</ele>
        <time>2013-08-24T13:08:53Z</time>
      </trkpt>
      <trkpt lat="43.87756" lon="7.45042">
        <ele>361</ele>
        <time>2013-08-24T13:09:05Z</time>
      </trkpt>
      <trkpt lat="43.87756" lon="7.45055">
        <ele>361</ele>
        <time>2013-08-24T13:09:15Z</time>
      </trkpt>
      <trkpt lat="43.87756" lon="7.45069">
        <ele>361</ele>
        <time>2013-08-24T13:09:23Z</time>
      </trkpt>
    </trkseg>
  </trk>
</gpx>